GFSMA_925_spd_003.txt.gz
Wind_Speed
5 4 3 2 4 3 3 4 7 10 13 15 15 16 16 16 16 13 10 10 9 10 12 12 12 13 16 15 15 13 14 13 12 11 11 12 15 18 22 25 27 31 32
6 6 7 5 4 3 5 8 12 14 14 16 17 16 15 17 12 10 10 10 11 12 12 13 15 15 16 16 15 15 15 15 14 14 13 13 13 14 13 15 19 21 26
8 4 5 5 4 6 8 11 13 14 15 17 17 16 16 14 8 11 11 11 12 13 12 14 17 17 17 15 17 16 16 16 15 14 14 14 15 16 15 14 15 17 19
4 3 4 6 7 9 12 13 15 16 16 19 20 17 19 8 6 18 11 15 13 14 13 15 17 18 15 18 17 16 17 17 16 14 12 14 15 14 14 15 16 17 18
8 8 9 9 9 10 11 12 13 15 15 21 20 20 16 2 2 8 13 18 14 17 15 19 19 19 18 18 16 17 16 15 14 13 13 14 14 14 15 17 18 19 19
10 9 10 9 9 10 10 12 13 14 11 21 17 21 10 1 4 7 16 21 17 19 19 22 23 22 21 20 19 18 17 18 18 15 16 16 17 18 18 19 20 21 22
11 10 9 8 9 10 11 13 12 14 13 22 10 16 5 7 10 7 20 22 19 21 23 23 27 25 24 22 24 22 21 19 14 17 17 17 18 20 21 22 22 22 25
11 9 9 9 9 9 10 12 13 13 11 19 11 4 4 7 3 25 15 22 16 29 27 31 28 26 23 23 28 26 23 13 14 17 18 19 20 22 24 25 27 28 28
10 8 8 8 8 9 10 11 13 15 11 14 10 9 4 3 9 5 23 9 27 15 28 30 29 24 20 29 28 25 21 14 19 19 19 21 24 26 28 30 32 33 33
8 7 6 7 8 8 9 11 12 14 13 12 8 13 9 7 3 5 6 25 11 27 26 30 27 22 30 24 25 22 14 19 21 22 25 28 30 33 33 33 35 35 36
7 6 5 6 7 7 8 10 12 13 14 13 13 13 10 13 8 3 10 10 26 25 27 24 23 32 25 27 23 15 18 22 26 28 29 34 36 35 35 36 37 38 39
7 5 5 6 6 6 8 10 12 13 14 15 16 15 13 5 9 6 6 12 15 23 25 33 24 26 27 23 20 20 21 25 27 34 36 34 34 35 35 37 39 39 40
5 3 4 4 5 7 9 10 13 15 15 17 16 16 15 13 16 15 15 16 10 27 18 18 18 21 20 26 24 26 26 32 34 34 35 35 36 36 37 39 39 40 42
4 2 2 4 6 7 10 12 15 16 16 17 17 18 14 14 18 19 16 19 14 9 22 17 24 21 21 22 21 28 34 32 34 35 36 37 38 39 41 41 41 42 42
3 1 3 5 7 9 12 14 16 18 19 18 19 18 15 18 19 22 20 19 14 10 14 16 15 21 22 27 28 27 30 29 33 33 34 37 40 41 43 47 47 47 47
2 1 4 6 9 11 13 16 17 18 18 19 20 19 19 18 21 22 23 22 20 18 11 28 26 25 25 25 30 32 31 32 28 30 36 39 45 48 48 49 48 46 44
1 4 7 9 11 14 16 17 18 17 19 21 21 20 19 19 21 25 24 22 21 20 13 33 30 28 31 30 30 30 28 22 29 33 38 44 44 40 41 40 41 41 42
3 5 8 10 13 15 17 18 17 19 21 22 23 22 20 20 21 23 24 24 24 25 22 15 34 34 31 31 31 30 27 26 29 32 37 38 37 38 36 36 36 37 38
4 6 9 12 15 16 17 16 19 20 21 22 22 22 23 21 23 25 27 27 25 20 24 25 29 34 31 30 32 26 31 29 28 32 35 33 31 33 36 41 41 41 38
5 8 11 13 14 16 16 18 19 21 22 23 23 23 23 23 25 27 25 25 23 26 27 27 28 24 32 27 25 26 31 29 30 31 30 28 37 38 35 35 38 39 40
7 10 12 14 15 17 18 18 20 21 22 22 21 21 22 22 23 25 27 27 30 28 27 21 25 22 21 24 24 27 28 31 27 28 32 34 29 31 34 35 36 36 35
9 11 13 15 17 19 17 17 18 22 21 23 26 24 23 22 22 25 29 31 31 33 30 26 18 20 27 27 29 28 26 23 14 29 22 33 32 32 32 32 34 35 37
11 14 16 17 19 19 15 17 19 19 22 22 24 25 25 24 27 32 32 32 31 24 26 29 29 27 28 29 28 29 27 24 25 34 28 28 31 32 33 34 36 37 38
13 15 17 19 19 18 17 18 20 20 21 22 24 25 26 29 31 30 31 22 29 26 28 30 28 30 29 33 34 30 29 30 29 30 25 13 29 31 34 35 37 38 37
14 16 18 18 18 18 18 19 21 22 23 24 27 25 24 26 29 31 29 29 27 28 30 27 27 31 34 31 30 29 22 21 14 24 27 25 28 29 32 36 36 32 31
14 17 18 17 16 18 20 19 20 22 22 24 22 21 21 25 30 29 32 28 24 30 28 25 29 30 29 29 27 26 26 19 16 14 21 20 26 23 10 30 24 33 32

GFSMA_925_spd_006.txt.gz
Wind_Speed
6 5 4 3 2 4 3 5 7 8 10 12 13 13 12 13 9 6 6 7 7 9 11 12 12 12 12 11 12 12 11 11 10 8 6 5 4 5 8 11 15 17 18
5 5 5 4 4 5 6 8 9 11 12 14 14 12 10 10 6 7 6 7 8 9 13 15 15 15 13 14 13 12 12 11 10 8 7 6 5 7 8 6 7 8 11
9 5 6 6 7 7 8 9 10 12 13 15 14 11 12 5 10 8 8 7 8 9 9 13 16 16 15 15 14 14 14 14 12 10 8 7 9 9 8 7 7 8 9
8 6 6 7 8 9 10 12 14 15 15 18 18 14 14 1 4 11 9 8 11 11 11 14 16 16 16 15 15 16 14 13 12 10 9 9 9 9 9 10 11 12 12
9 9 8 9 8 9 12 13 13 15 15 21 21 18 14 3 4 6 10 10 11 13 12 16 18 19 17 15 15 16 14 15 15 14 13 12 13 13 13 14 14 15 15
12 10 10 8 8 9 12 13 13 16 15 22 16 21 8 1 5 4 10 12 11 14 17 20 23 23 20 17 16 18 18 18 17 14 13 14 14 14 15 16 17 17 18
13 10 9 9 10 12 13 14 14 16 17 23 14 17 5 4 9 7 19 12 12 18 22 24 28 27 25 20 19 20 20 20 17 13 16 17 16 17 17 19 20 21 21
13 10 9 10 10 11 12 14 15 14 12 18 13 4 4 6 6 19 15 14 22 18 27 29 30 30 24 21 25 24 23 20 15 17 18 19 18 20 22 23 24 25 26
12 10 9 10 10 11 13 13 13 14 12 14 12 8 4 2 7 5 12 13 16 19 26 29 30 22 24 27 29 26 24 18 17 19 20 21 24 25 27 28 30 30 30
11 10 9 9 10 10 10 11 11 12 11 11 7 11 6 6 3 5 4 23 5 29 26 30 23 30 29 24 26 25 23 17 20 23 26 27 28 31 33 34 34 33 32
11 9 8 8 9 9 9 9 10 11 10 9 9 8 5 9 5 2 7 8 25 23 26 19 34 19 25 24 25 21 18 23 25 27 28 31 35 35 34 35 35 35 35
11 8 7 7 8 7 7 8 9 10 10 11 9 8 7 3 6 4 4 12 14 17 27 26 18 22 22 24 24 28 22 25 29 30 34 35 35 35 36 36 37 38 37
10 7 6 6 5 6 6 7 8 10 11 11 11 12 10 8 9 12 13 14 10 23 10 18 10 21 22 22 26 27 28 30 34 34 35 37 37 36 36 37 38 39 41
9 7 5 4 4 5 6 7 10 11 12 12 11 11 11 10 12 13 14 15 12 6 21 9 20 16 15 25 26 28 31 31 35 37 36 37 38 36 37 39 40 41 42
8 6 4 3 4 5 7 9 11 13 13 12 13 14 14 14 14 14 16 16 11 8 13 8 7 25 24 26 26 29 32 32 32 36 38 36 35 37 42 44 46 47 47
6 4 3 3 4 6 8 10 12 12 13 15 16 17 17 17 16 17 17 18 19 19 10 25 27 26 26 28 30 31 32 32 34 34 31 33 41 45 48 49 48 45 43
5 3 3 3 6 8 10 11 12 13 16 18 18 20 20 20 20 19 19 20 22 23 15 34 31 30 33 33 30 29 29 29 31 27 36 42 42 42 43 44 43 42 40
4 3 3 5 7 10 11 12 13 15 17 20 21 21 23 22 23 23 24 25 26 27 23 22 32 33 33 32 33 31 29 27 29 32 35 37 40 42 41 38 37 38 38
4 3 4 7 10 11 13 13 14 16 17 18 19 21 22 21 22 23 24 26 26 24 22 25 31 34 35 30 31 28 29 31 30 30 34 35 36 37 37 38 43 42 41
3 4 6 8 10 12 14 15 15 15 17 18 21 22 23 22 22 23 23 23 21 25 27 26 27 30 24 23 28 28 29 28 31 30 33 36 35 36 37 37 38 39 40
4 6 7 9 12 15 17 14 15 16 18 20 21 20 20 19 19 20 24 27 28 27 26 24 19 18 27 27 25 29 29 32 32 31 33 32 30 31 34 36 36 36 36
5 7 9 13 15 16 16 14 16 19 17 22 22 23 23 22 22 23 28 28 29 27 22 26 25 23 23 28 31 28 27 27 15 26 23 34 31 32 32 33 34 34 36
7 9 12 14 16 16 14 16 17 19 19 21 23 26 27 26 27 29 32 31 16 25 27 30 28 27 29 30 29 30 29 27 28 34 30 30 31 32 33 34 35 36 37
9 12 15 16 17 17 15 17 19 20 20 21 24 26 26 28 27 29 31 24 29 26 27 28 28 31 29 34 33 30 31 32 32 32 26 13 31 32 35 35 37 38 36
10 13 15 17 17 17 18 19 20 21 22 24 26 22 23 25 27 31 30 28 26 26 31 27 24 31 33 30 29 29 24 23 14 26 29 24 27 30 34 37 34 28 30
12 14 17 17 15 18 20 19 20 21 22 23 20 20 19 24 30 28 31 28 23 30 29 24 31 31 30 30 27 25 26 21 19 13 23 21 28 23 9 27 24 33 30

GFSMA_925_spd_012.txt.gz
Wind_Speed
8 7 6 4 3 3 1 3 4 5 6 7 8 7 7 7 5 2 1 4 7 10 11 12 11 12 12 12 11 12 12 13 13 12 11 11 10 9 9 9 10 10 10
9 8 9 7 4 3 2 3 4 5 6 7 8 7 6 4 1 1 2 3 3 6 11 12 12 12 12 12 12 13 13 13 13 13 13 11 12 13 12 12 9 10 10
11 11 10 7 5 3 3 4 4 5 7 7 7 5 5 2 1 3 2 3 3 5 5 8 11 12 13 13 13 13 14 14 15 15 15 15 16 15 14 14 13 13 13
13 14 11 7 5 4 3 4 5 5 7 8 8 6 6 4 3 3 3 3 3 4 7 9 12 14 16 16 15 14 15 16 16 17 18 17 17 16 16 17 17 18 18
17 14 10 9 6 5 4 4 5 7 9 11 9 9 6 5 6 4 2 2 4 5 6 11 16 17 18 16 14 14 14 16 17 19 20 20 19 17 18 18 19 19 19
18 14 11 10 7 6 6 5 5 7 9 12 9 6 1 4 6 4 2 4 3 5 6 10 14 14 15 13 14 13 16 19 19 20 21 22 19 19 20 21 21 22 22
19 16 13 10 8 8 7 6 4 6 9 13 8 3 2 1 5 6 6 5 4 6 9 11 15 15 14 17 15 15 18 17 19 21 22 22 20 21 23 24 24 24 25
20 16 14 11 9 9 7 7 7 5 6 10 7 5 3 2 0 6 6 6 6 9 10 18 16 15 17 15 16 18 17 18 21 22 23 22 22 24 25 26 27 29 30
18 16 14 11 10 8 7 6 7 7 6 6 8 5 2 2 11 3 4 8 8 12 17 16 15 19 15 17 15 17 16 19 21 23 24 25 26 27 28 30 32 34 35
15 15 14 12 10 8 7 6 6 5 4 5 2 4 2 3 3 5 4 10 10 17 19 18 19 21 17 15 17 17 17 21 28 28 27 27 28 30 32 34 36 37 38
15 15 13 11 10 8 7 6 5 4 3 3 3 4 4 6 6 5 9 9 19 19 19 16 21 14 16 17 18 14 20 28 26 27 28 30 32 34 36 39 41 42 42
14 13 12 10 9 8 7 5 4 2 1 1 3 3 5 5 7 8 9 14 18 21 20 21 13 17 17 19 16 19 28 27 29 29 29 30 32 35 37 39 41 42 42
15 14 12 10 8 7 6 5 3 1 1 3 4 5 6 8 11 13 16 17 13 23 19 13 16 18 19 16 21 28 29 29 29 30 31 33 34 35 36 38 40 42 44
15 14 11 9 8 6 5 3 2 1 3 4 5 6 8 10 11 13 16 17 14 13 22 18 22 14 14 25 26 28 28 28 29 30 32 35 36 37 37 37 39 40 40
16 14 12 9 7 5 4 2 1 3 3 4 6 8 9 11 13 14 16 17 18 14 13 17 12 20 24 25 27 28 29 30 31 34 34 36 36 36 39 39 41 42 43
16 14 11 9 7 4 2 1 2 3 4 5 7 9 11 12 14 15 16 18 19 22 14 22 25 26 26 27 28 28 29 31 33 34 36 36 37 40 39 41 40 41 42
15 13 10 8 5 3 1 2 3 4 6 7 8 9 12 13 15 16 17 18 19 21 17 28 28 28 29 29 30 28 29 31 35 36 37 37 37 38 38 39 40 41 42
13 11 9 7 4 2 1 2 4 6 7 9 10 11 13 14 16 16 16 18 19 21 25 27 30 30 30 29 29 31 33 34 32 33 35 36 37 38 37 38 39 40 40
12 10 7 5 3 1 2 4 6 8 9 10 11 13 15 15 16 16 17 19 21 23 26 28 31 31 30 25 31 34 29 30 29 31 33 34 36 38 37 37 38 40 42
10 8 6 4 1 2 3 5 7 9 11 12 13 14 16 15 16 18 20 22 23 25 28 28 29 29 25 30 32 29 27 29 30 30 36 34 33 35 34 37 41 41 41
8 6 4 2 1 3 4 7 8 11 13 14 15 16 16 16 18 19 21 23 26 26 26 26 21 25 27 28 27 28 28 29 33 30 32 31 29 35 36 36 36 36 35
7 4 2 0 3 4 8 7 9 12 14 15 16 17 18 19 18 20 22 23 26 28 28 23 24 25 30 29 28 27 28 27 14 28 25 37 32 36 34 34 35 36 38
5 3 0 2 4 5 7 9 11 13 14 15 16 18 19 19 20 22 22 26 27 25 25 32 29 29 30 29 31 30 30 29 27 34 33 33 32 33 34 35 36 37 38
3 1 2 3 5 6 9 11 12 13 14 15 16 19 20 20 20 22 27 26 21 27 26 25 28 31 31 31 30 33 30 32 33 31 28 14 32 31 33 36 38 35 32
1 1 2 5 6 7 9 11 13 14 14 16 17 19 19 20 20 26 26 26 29 27 25 24 27 29 31 33 28 26 25 22 16 27 29 25 26 30 35 38 27 21 26
0 2 4 5 6 8 10 12 14 14 16 18 19 19 19 19 24 25 27 28 27 26 27 29 28 27 24 23 22 20 22 21 20 13 17 20 27 23 9 21 19 36 30

GFSMA_925_spd_015.txt.gz
Wind_Speed
9 8 7 6 5 3 2 3 4 5 7 8 8 8 7 6 5 2 2 2 5 9 11 11 11 11 12 12 12 13 14 14 14 15 14 13 12 13 13 13 13 11 10
10 9 8 7 5 4 3 3 4 6 7 8 8 7 6 5 3 1 1 0 0 1 4 9 10 11 12 12 12 13 13 13 14 14 15 15 15 14 13 13 12 12 13
10 11 10 8 6 4 3 3 4 5 6 7 7 6 5 4 2 1 1 1 4 6 6 6 8 10 12 13 13 13 13 13 14 15 15 16 17 17 16 15 15 14 15
13 11 10 8 6 5 3 3 4 4 6 7 7 6 6 4 3 2 1 1 1 2 8 11 12 13 14 14 13 13 13 14 15 16 17 18 18 19 17 16 17 18 18
17 15 13 9 7 6 4 4 4 5 6 8 8 7 5 3 4 3 2 2 4 4 5 8 14 13 17 13 13 13 13 15 17 17 17 20 20 21 19 18 18 19 20
17 15 11 11 8 6 5 4 5 5 7 10 8 5 2 2 4 5 4 5 5 5 6 9 13 12 12 12 14 12 13 16 16 17 18 20 20 21 20 21 22 22 23
20 16 13 11 9 8 6 4 4 5 7 12 6 6 3 2 4 6 5 6 5 6 7 9 13 13 13 14 11 13 15 14 15 18 19 19 20 20 20 22 23 25 25
21 17 14 13 10 10 7 6 6 3 5 9 6 6 2 3 3 3 9 7 8 6 8 13 13 13 15 14 14 15 14 15 16 19 22 23 23 23 23 24 26 27 27
21 17 14 13 12 9 8 6 5 5 4 5 6 4 2 2 8 3 3 7 8 10 13 16 15 15 18 14 14 15 14 16 17 25 26 25 26 26 27 28 29 30 31
21 17 14 14 11 9 8 6 4 4 3 3 1 3 1 3 2 4 2 10 13 12 18 18 18 20 18 16 15 16 16 15 24 25 26 27 27 28 29 31 33 34 36
20 16 14 14 12 9 8 6 5 4 3 2 2 2 3 5 8 6 8 8 17 17 18 17 17 19 15 15 16 17 16 21 26 27 27 28 28 29 30 32 34 36 38
18 15 14 13 11 9 8 6 4 3 1 1 2 2 3 3 6 7 7 13 16 19 18 22 17 17 16 17 17 17 20 26 28 27 27 28 29 30 32 33 34 36 37
20 17 15 13 10 9 7 5 4 2 1 3 4 4 5 7 9 12 14 14 12 19 18 19 19 18 18 17 17 22 26 28 27 28 30 31 32 33 35 35 36 36 37
19 18 15 12 11 9 6 4 2 1 3 4 5 6 7 9 10 12 13 14 11 12 18 19 21 20 15 17 23 27 27 28 29 30 32 34 35 35 36 37 37 37 38
19 17 15 12 10 8 5 3 2 3 4 5 6 8 9 10 11 13 14 15 15 10 10 16 20 13 23 23 24 27 29 30 30 33 35 35 36 37 37 37 38 39 39
19 17 14 11 9 6 4 2 3 4 5 7 7 9 10 11 13 14 16 16 18 19 12 20 22 23 25 25 27 28 29 30 30 34 38 37 37 37 37 38 38 38 38
19 17 14 11 8 5 3 2 4 5 7 8 9 10 11 12 14 15 16 17 18 19 14 24 24 24 26 28 27 27 27 32 34 36 37 34 35 36 36 37 37 37 39
17 16 13 10 7 4 1 3 5 7 9 10 11 11 13 14 15 16 16 17 19 21 23 22 25 26 24 28 28 28 27 31 36 31 32 35 36 36 37 38 37 38 38
17 14 12 9 6 3 1 4 6 9 10 12 12 13 14 15 17 16 17 19 20 22 23 25 26 26 29 27 25 28 34 27 27 30 34 36 36 39 37 36 36 37 38
16 13 10 8 5 2 1 4 7 10 12 13 14 15 15 16 17 17 19 21 22 23 24 25 26 29 27 21 27 27 25 26 29 29 34 37 33 35 35 36 40 40 39
14 12 9 6 4 1 2 6 8 11 13 15 15 16 16 16 16 19 20 20 23 23 24 25 26 26 24 26 24 24 26 28 35 27 32 36 26 35 37 36 37 37 35
12 10 7 4 2 0 6 6 8 11 14 16 16 16 17 17 17 18 21 21 23 26 26 27 23 23 28 25 25 25 29 26 12 29 20 41 31 35 35 34 34 36 37
10 8 5 2 0 2 8 7 10 12 14 15 15 16 17 17 19 19 20 22 25 28 25 32 30 24 26 28 30 31 27 27 28 35 31 37 32 34 34 36 34 35 38
8 5 3 1 2 4 10 9 11 13 14 15 15 16 17 18 19 20 22 25 24 28 27 25 25 27 29 32 31 27 30 31 34 32 25 18 33 35 34 34 40 35 30
6 3 1 2 4 5 8 9 12 13 14 16 16 17 18 18 19 22 25 25 26 26 26 26 27 32 33 31 29 26 25 22 17 28 27 27 27 30 35 39 30 23 24
4 2 2 3 5 6 7 9 12 12 15 16 17 18 18 19 20 24 25 26 26 26 26 29 30 29 26 26 24 23 23 20 21 19 23 19 25 22 7 23 21 35 31

GFSMA_925_spd_018.txt.gz
Wind_Speed
13 13 12 10 8 7 7 4 2 1 3 7 6 7 6 5 3 4 3 2 5 8 9 10 10 11 11 11 11 11 12 12 12 12 12 12 12 12 12 12 10 9 9
12 15 13 10 9 7 5 3 1 3 4 5 5 5 4 4 1 3 4 4 1 3 4 6 9 10 11 12 11 11 11 12 13 14 14 14 14 14 14 13 13 12 11
17 14 12 12 9 8 4 3 2 2 3 4 4 5 5 3 1 2 4 5 5 6 7 8 9 10 11 12 12 12 12 11 13 14 14 15 16 16 17 16 14 13 14
17 14 14 13 9 8 5 3 4 3 4 5 5 4 4 3 2 3 4 4 2 4 7 10 12 12 11 13 12 13 12 12 14 15 15 15 17 17 17 18 16 16 16
17 17 18 14 10 8 7 4 5 4 6 8 5 5 5 2 5 4 3 1 5 6 6 7 11 11 12 12 14 14 12 14 14 14 15 17 18 18 19 18 17 17 18
21 21 19 15 12 9 8 7 6 6 8 9 4 4 1 2 4 5 3 1 6 6 5 8 9 14 13 12 14 11 13 13 13 15 15 17 18 19 19 19 18 19 20
24 22 19 16 13 11 9 6 6 6 9 10 5 4 4 2 5 5 7 6 3 3 4 7 13 16 13 15 14 13 14 14 14 15 17 20 21 21 21 21 21 21 22
28 25 22 19 16 14 10 8 7 5 6 11 5 2 3 1 2 3 6 3 4 7 5 11 16 16 14 17 18 14 12 14 16 16 21 22 22 23 23 23 24 25 25
28 24 22 20 18 14 12 9 7 7 5 5 8 4 2 1 5 1 2 2 7 6 10 15 16 16 19 22 14 14 14 16 15 18 23 24 26 26 26 26 26 27 28
27 24 22 21 18 15 12 10 7 7 6 4 3 3 2 1 1 4 2 9 9 13 16 17 22 23 20 22 16 17 17 16 18 23 26 28 27 27 27 28 28 29 30
27 24 23 21 18 15 12 9 8 6 5 4 2 1 0 2 6 5 4 4 19 23 20 20 17 22 25 22 20 21 19 17 21 26 29 28 28 29 30 30 30 31 31
27 24 22 20 18 16 12 10 7 5 4 3 1 0 1 1 2 2 2 5 12 17 18 22 19 20 22 19 17 13 14 19 25 27 28 29 30 31 31 32 33 34 34
29 26 23 20 18 16 12 9 6 4 2 2 2 3 3 5 7 9 12 11 5 16 16 19 14 20 22 18 14 17 20 24 26 29 31 31 31 32 33 33 34 34 34
31 27 23 20 18 15 12 9 6 4 3 1 3 5 6 7 9 10 12 12 7 6 19 11 25 19 11 20 24 24 25 25 30 30 32 32 33 34 35 36 35 34 35
31 27 24 21 17 14 11 8 5 3 2 3 5 5 7 8 9 11 13 13 11 6 9 7 18 17 27 29 27 27 31 32 30 31 32 35 37 37 37 36 36 36 36
30 29 25 20 17 13 10 7 5 3 3 3 5 7 9 10 12 14 15 15 16 18 8 18 22 26 27 27 31 30 29 32 29 34 35 35 37 34 35 35 36 36 36
31 27 24 20 16 13 9 6 4 3 4 5 7 9 10 12 14 14 15 18 19 20 14 24 26 27 28 29 28 31 35 28 33 33 35 32 34 34 37 36 36 37 38
28 25 21 18 15 12 7 5 4 4 4 7 9 10 12 12 13 15 16 17 17 20 24 22 23 24 25 29 31 33 32 27 33 33 28 35 35 35 37 37 37 36 36
26 22 20 17 12 9 5 3 4 5 6 8 9 10 13 15 16 17 17 15 19 22 22 23 25 25 28 28 29 29 28 33 28 31 31 34 36 35 36 35 35 36 36
26 22 19 15 10 6 3 3 3 5 7 9 11 12 13 15 16 15 16 21 19 22 22 21 22 25 25 26 24 27 29 24 31 29 33 34 32 35 33 33 36 35 34
24 20 16 12 8 6 4 5 6 7 8 10 12 13 13 12 13 17 18 18 21 20 22 19 22 26 18 25 23 23 26 31 34 32 27 35 27 35 36 34 33 33 31
20 18 14 11 7 4 2 5 5 9 10 11 14 14 16 17 16 15 17 20 20 23 23 24 21 22 25 23 21 25 30 27 11 25 22 37 30 34 33 32 33 34 36
19 15 11 8 5 1 4 6 6 10 11 11 14 16 16 15 17 18 19 19 22 22 24 29 28 25 25 27 30 28 29 25 25 34 26 32 33 33 33 35 34 34 37
16 12 9 5 3 2 5 7 8 10 11 12 14 16 15 17 18 19 22 23 21 28 25 26 27 29 29 32 31 28 28 29 31 32 24 19 35 36 36 34 36 36 31
12 9 6 2 1 1 4 6 9 12 12 13 14 15 16 18 17 20 22 27 25 23 23 26 26 29 30 31 28 29 25 23 20 28 26 25 29 30 36 38 30 24 24
10 6 3 1 2 3 2 6 8 11 13 14 16 16 16 19 20 21 25 25 22 24 30 26 28 33 26 27 25 24 25 19 24 21 22 14 26 20 11 24 23 32 30

GFSMA_925_spd_021.txt.gz
Wind_Speed
16 17 14 15 13 11 10 7 6 3 1 2 2 3 3 3 2 3 5 4 7 9 9 9 10 10 10 10 10 10 10 10 11 11 11 11 12 12 12 12 11 10 10
18 16 19 20 16 13 10 7 4 1 1 1 3 3 2 4 1 4 5 5 4 5 6 8 9 9 10 11 11 11 11 10 11 11 12 12 12 13 13 13 13 11 10
21 22 22 17 13 11 10 7 4 2 1 1 2 4 2 2 3 5 7 6 5 4 5 7 9 9 10 11 11 11 10 10 12 12 12 13 13 14 14 14 14 13 12
23 24 20 17 14 11 9 6 5 3 1 2 2 2 2 3 6 7 5 4 1 2 4 6 7 8 10 10 11 11 10 11 11 11 12 13 14 15 15 15 15 14 13
27 22 19 19 16 13 9 6 6 3 3 3 3 2 2 6 8 7 4 1 3 3 4 5 8 10 12 10 12 11 11 13 11 11 12 13 15 16 16 16 16 15 15
24 21 21 20 18 15 11 8 6 5 5 4 1 2 3 6 9 6 6 3 2 2 4 6 8 12 15 10 11 12 12 10 11 12 12 15 16 17 17 18 18 18 17
27 25 25 22 18 16 14 10 8 6 6 5 2 4 4 4 5 5 5 6 3 1 3 7 10 15 17 15 16 14 11 10 12 13 13 17 17 19 20 20 20 20 21
29 28 28 24 22 19 15 13 10 7 5 9 3 2 2 1 1 3 4 5 3 2 3 7 11 15 17 19 18 12 10 12 13 14 16 19 21 23 23 23 22 23 23
30 31 29 26 24 20 18 14 10 7 6 6 8 3 2 1 3 1 3 5 2 1 5 9 14 17 18 18 22 19 15 12 15 14 17 21 24 25 24 24 25 25 26
32 31 29 27 24 22 19 15 12 9 8 7 4 5 4 2 2 3 2 4 3 7 15 20 17 15 19 22 20 20 17 14 16 17 21 25 26 26 26 27 28 27 27
32 31 29 27 25 22 20 17 14 11 9 8 6 3 2 2 3 2 3 5 12 21 19 14 23 17 16 17 18 18 17 15 19 21 26 27 28 29 30 30 29 30 31
34 32 30 28 26 23 20 18 14 10 9 7 6 4 3 2 2 2 2 4 9 13 15 19 17 12 16 18 12 9 12 16 20 23 27 29 31 30 30 30 31 32 32
36 34 31 30 27 23 20 17 14 11 8 6 5 4 4 4 4 5 6 6 4 9 9 15 11 13 15 13 20 20 20 20 24 27 31 30 29 30 30 31 33 34 35
36 36 34 30 26 23 19 15 13 10 7 6 4 3 4 5 5 6 6 5 3 4 11 8 18 17 12 27 30 27 29 29 28 28 28 30 28 31 33 33 33 34 34
37 37 33 29 25 21 17 14 12 10 6 4 3 3 5 5 5 6 6 7 4 3 4 4 6 18 27 27 25 25 28 28 26 31 30 28 31 32 32 31 30 32 32
34 36 31 27 22 20 17 13 11 8 5 4 3 5 7 8 9 10 11 10 10 12 4 11 21 26 27 26 27 26 30 32 29 28 29 30 33 31 29 31 32 33 33
36 35 30 26 24 20 16 12 9 7 4 4 4 6 8 8 11 11 9 11 13 15 10 17 20 22 25 31 30 33 32 30 29 28 30 31 29 31 33 32 33 34 35
34 32 28 26 22 18 14 11 9 6 4 4 5 7 9 10 10 11 14 14 13 13 18 19 20 23 25 29 31 33 30 27 29 30 26 31 33 31 34 33 32 33 34
34 30 29 25 21 17 13 10 7 4 3 4 5 7 9 10 13 14 13 13 14 19 20 24 23 24 26 30 30 27 27 28 28 26 32 31 32 31 30 31 32 33 33
35 32 27 24 19 15 12 9 5 4 3 4 6 7 9 10 11 11 12 16 18 19 21 23 21 23 24 27 22 26 25 25 31 31 32 31 27 30 31 31 32 31 31
33 30 26 22 17 13 9 6 3 1 3 6 7 8 8 9 12 14 16 15 17 20 20 18 17 20 20 23 22 24 27 30 32 31 31 27 27 33 33 30 30 30 28
29 25 21 18 15 10 7 3 1 3 5 7 9 10 11 13 15 12 15 17 18 20 19 17 19 20 23 23 24 25 28 27 12 25 19 29 30 31 31 31 30 32 35
18 17 15 13 11 8 5 3 4 6 7 8 10 12 13 14 12 16 15 17 19 19 19 24 24 23 24 26 31 29 24 22 25 32 29 29 30 31 31 31 32 35 35
16 14 11 9 9 8 5 3 4 7 8 8 9 10 13 14 14 14 19 20 19 21 21 22 24 28 28 27 26 26 28 27 28 30 27 21 29 33 34 31 34 33 29
16 13 9 8 8 7 4 4 6 9 11 10 10 12 13 15 17 18 20 23 25 21 25 23 22 23 25 28 25 25 23 21 20 27 31 24 22 27 31 35 28 24 24
14 11 8 6 6 5 3 4 5 9 12 11 13 14 14 15 18 18 21 23 20 25 27 25 23 30 28 27 22 21 25 21 22 17 17 11 24 22 9 23 19 30 33

GFSMA_925_spd_024.txt.gz
Wind_Speed
22 20 17 16 15 14 12 11 9 6 4 2 1 2 1 3 7 8 7 8 10 10 9 8 8 8 8 8 8 8 8 8 9 10 10 10 11 12 13 13 12 11 10
22 24 19 18 17 15 14 11 9 6 4 3 3 4 2 4 6 9 9 8 7 7 8 8 7 7 8 8 8 9 8 8 10 10 10 10 11 12 12 12 12 12 11
22 22 23 21 18 18 15 11 8 6 4 3 3 4 4 4 6 9 9 8 7 5 6 6 7 7 9 9 10 9 8 10 10 10 10 11 11 12 12 12 13 12 11
23 23 24 25 22 18 14 11 9 6 4 3 4 4 5 4 8 10 8 6 4 2 1 2 3 5 8 8 10 9 8 10 9 9 10 10 12 13 13 13 13 13 13
25 26 28 27 22 18 14 11 10 7 4 3 6 5 2 7 9 10 9 5 3 2 0 3 5 7 10 9 9 9 9 10 8 9 9 11 13 13 14 15 15 14 14
30 30 29 26 21 18 15 13 11 8 4 4 6 7 5 7 9 9 8 6 5 3 2 3 6 9 12 12 12 11 10 8 8 9 9 10 13 14 15 16 16 17 16
33 32 29 25 22 20 18 15 13 9 5 6 8 7 5 6 8 8 8 8 8 5 2 1 6 10 14 12 14 11 9 8 9 10 10 11 13 15 17 18 18 18 18
36 34 30 27 24 22 20 18 15 11 5 4 3 4 1 1 5 6 6 9 7 6 3 2 6 10 11 11 13 14 10 9 10 13 12 13 15 19 20 19 20 20 20
37 35 32 30 27 25 24 20 16 12 9 5 4 3 2 3 0 3 6 7 7 6 0 7 11 10 12 14 15 13 13 9 12 14 14 16 19 22 22 22 23 23 24
39 37 35 32 30 27 24 21 17 14 11 9 5 4 3 3 2 1 4 8 6 5 10 15 12 16 11 11 12 12 12 12 14 16 18 19 22 23 24 25 25 26 26
40 38 35 32 30 28 24 22 20 16 12 11 7 5 3 3 3 3 2 4 6 11 17 10 15 13 9 12 11 9 9 11 15 18 21 23 26 27 28 28 27 27 27
37 37 36 33 31 29 27 22 18 15 13 11 9 7 6 3 3 3 1 3 6 10 11 17 14 6 11 10 11 14 15 17 18 22 25 28 30 30 28 28 28 28 29
38 39 38 35 33 31 27 23 19 16 14 11 9 7 5 4 4 4 3 3 3 4 6 11 7 13 9 11 20 24 21 20 23 25 26 26 27 28 28 27 29 30 31
41 40 37 34 33 29 26 22 18 15 12 10 9 6 5 5 5 5 4 3 3 3 4 7 12 9 9 27 25 22 22 23 23 25 27 28 29 27 27 28 31 31 31
36 38 37 35 32 28 25 22 19 16 11 9 8 6 5 5 5 5 6 6 5 2 3 4 5 6 26 26 25 23 25 27 27 27 26 26 26 27 28 31 29 29 29
35 39 39 34 32 28 23 21 17 14 12 9 7 6 6 5 6 7 8 9 9 9 3 5 15 25 26 26 27 25 28 24 25 23 25 26 27 27 27 28 30 31 31
36 39 38 35 33 27 24 20 15 13 11 9 6 6 6 7 8 10 10 10 12 13 9 13 18 25 25 27 29 31 29 28 27 26 24 26 26 26 30 29 29 30 31
35 37 38 36 31 28 24 17 16 14 10 9 6 6 6 8 10 11 11 13 14 14 17 15 19 24 25 28 30 30 28 30 28 26 25 27 28 28 28 29 27 28 29
35 36 37 35 31 26 21 19 16 12 9 6 5 6 6 9 11 12 13 14 15 16 18 21 20 23 26 29 29 28 28 28 27 26 28 27 29 28 26 26 28 29 30
34 34 32 27 22 19 17 13 12 10 7 5 4 6 7 9 10 10 10 13 16 16 16 21 21 21 23 26 24 26 25 25 28 28 31 27 27 25 28 31 29 29 30
27 25 24 24 21 18 13 10 8 6 4 3 5 5 6 7 9 11 14 13 13 17 20 22 18 18 19 22 22 24 24 28 29 31 29 24 26 29 35 31 30 30 29
28 28 24 19 16 14 10 8 5 3 2 2 4 4 6 8 9 11 12 14 15 19 19 16 17 16 22 23 25 23 25 24 10 23 15 30 29 29 33 33 31 30 32
26 21 18 17 13 11 8 4 2 1 1 2 4 5 6 6 8 11 12 13 16 17 18 22 22 23 25 28 30 29 23 21 26 31 30 30 28 30 33 32 31 33 34
25 22 16 13 10 7 6 5 1 2 3 4 4 6 8 10 11 13 16 18 17 19 20 19 24 28 28 25 23 24 27 28 29 29 27 21 26 29 31 31 34 33 32
20 16 14 12 12 10 5 2 1 3 6 5 5 8 10 12 12 15 17 19 21 21 21 22 21 21 22 25 27 25 24 21 22 26 26 24 17 24 28 33 28 24 25
18 16 13 9 7 7 5 2 4 5 7 8 9 11 12 12 15 15 19 19 18 21 23 19 21 28 28 27 22 19 23 21 21 16 8 8 21 20 9 19 21 25 34

GFSMA_925_spd_027.txt.gz
Wind_Speed
22 21 19 16 15 14 13 12 10 7 5 3 2 2 2 5 8 8 7 8 9 10 9 8 7 8 8 7 8 8 8 9 9 9 10 10 10 11 11 11 11 11 10
24 22 20 18 17 15 13 12 10 7 6 4 4 4 4 6 8 8 8 8 7 7 7 7 7 7 7 7 7 7 7 9 8 8 9 9 10 11 11 11 12 12 11
26 24 23 20 18 16 15 13 10 8 6 5 6 6 5 7 8 9 7 7 7 6 6 6 6 7 6 6 7 6 6 8 7 7 8 8 9 10 11 11 11 11 11
25 24 25 22 20 18 17 14 10 8 6 6 7 6 6 7 10 10 9 7 6 4 3 2 3 4 6 6 7 6 7 8 6 7 6 8 9 10 10 11 11 11 11
27 26 26 25 23 21 18 15 12 9 7 5 6 7 5 7 11 12 10 7 5 3 2 1 2 4 6 6 8 8 8 7 6 6 7 7 9 10 11 12 13 13 13
30 28 27 26 26 23 19 17 13 10 8 7 8 8 5 7 10 11 10 8 7 5 3 1 2 5 7 8 9 9 8 7 7 8 8 9 10 11 13 15 15 15 14
34 32 29 29 29 27 23 18 15 12 8 9 9 6 4 5 9 10 11 9 9 7 5 3 4 6 8 9 9 9 11 8 9 8 11 10 11 12 15 16 16 16 16
37 36 34 29 30 27 23 21 19 15 6 12 5 5 1 2 7 8 10 10 11 9 7 4 5 8 8 10 12 12 10 9 9 11 12 12 13 14 17 17 18 19 19
37 39 38 34 33 32 28 25 22 18 12 9 10 5 2 4 2 5 7 10 11 10 6 4 7 10 11 10 9 9 8 9 11 13 14 15 16 18 19 21 22 22 23
38 39 40 39 36 34 30 27 25 22 17 14 9 7 4 4 3 1 5 8 10 11 7 8 10 9 9 8 8 8 9 9 11 14 16 18 20 21 23 24 26 26 25
39 39 43 42 40 37 32 28 27 23 20 17 12 9 6 4 4 3 2 3 11 13 11 9 12 9 6 7 9 10 11 13 15 16 19 22 24 26 27 28 27 26 27
39 40 43 43 41 38 32 30 27 24 20 16 14 12 9 5 5 4 2 3 5 7 8 13 7 7 7 11 10 14 18 19 19 22 24 25 26 26 26 26 27 27 27
40 43 43 40 39 37 33 29 28 25 21 18 15 12 9 7 7 7 4 3 3 4 5 9 8 7 13 13 14 25 22 21 22 22 23 25 26 27 27 28 27 27 29
47 46 42 41 40 36 32 29 24 22 20 17 14 11 10 7 7 8 6 6 1 2 4 8 7 11 11 13 26 22 23 22 23 24 25 25 25 25 25 26 27 28 30
41 44 43 40 37 35 32 30 25 21 18 15 12 10 8 7 8 8 8 8 6 2 3 3 4 6 13 24 24 22 22 26 23 22 24 24 24 26 27 27 28 28 28
38 39 41 38 35 34 31 29 25 19 14 13 12 10 10 8 9 9 8 8 10 9 3 8 8 22 24 25 25 23 26 27 24 22 25 25 25 25 26 27 27 29 31
36 36 37 37 37 36 32 28 24 21 15 10 10 8 7 8 10 11 9 9 10 11 8 10 18 21 22 24 26 28 28 27 29 26 24 25 25 26 28 28 29 29 30
33 34 36 34 33 32 28 25 21 16 15 11 7 7 11 8 10 12 11 11 12 13 14 14 18 21 23 23 26 28 29 30 28 28 26 25 27 28 28 28 28 28 28
29 28 29 29 30 29 25 20 15 14 10 8 9 11 10 9 13 12 12 12 12 13 16 17 17 21 23 25 29 30 27 28 27 28 27 26 26 26 25 25 27 29 30
26 27 28 30 29 25 20 17 14 13 8 7 6 6 8 11 12 11 9 9 11 14 15 18 22 23 22 24 24 24 24 26 28 32 31 25 23 22 28 30 29 29 29
31 32 32 30 28 24 19 15 12 9 7 4 6 6 9 9 7 8 10 11 10 12 17 20 20 20 19 18 20 25 25 26 26 31 26 23 24 30 35 32 32 30 28
31 31 30 27 22 18 14 10 7 6 3 5 6 6 7 7 7 9 9 9 12 17 17 16 18 14 17 21 24 22 24 21 10 20 20 31 27 32 35 35 32 29 31
33 31 28 25 23 19 14 9 6 1 4 6 4 4 4 6 8 9 9 10 13 16 17 19 21 22 23 26 31 29 24 21 24 29 28 32 25 32 34 33 31 32 33
33 31 26 21 18 16 11 4 4 4 3 3 2 3 6 8 9 10 13 15 14 15 18 19 22 26 27 26 25 24 24 28 28 26 21 20 24 28 33 32 35 32 29
30 25 20 17 14 12 11 10 4 2 1 3 3 5 7 10 11 13 15 16 16 19 20 22 20 21 22 25 26 25 26 20 19 22 23 22 19 26 29 34 23 24 24
22 19 16 12 11 12 9 6 1 4 5 5 5 8 11 10 12 12 16 18 17 22 23 20 20 27 27 25 21 19 21 22 17 15 8 8 20 16 10 19 19 26 35

GFSMA_925_spd_030.txt.gz
Wind_Speed
20 20 17 15 13 12 11 10 8 6 5 3 2 1 3 6 8 9 9 7 9 11 9 8 8 7 7 7 7 7 8 9 9 8 9 9 10 10 10 10 11 11 10
22 21 20 18 15 14 13 11 10 8 6 4 4 3 5 8 9 8 8 8 8 8 8 8 8 8 7 7 7 7 8 8 8 8 8 8 9 10 10 10 10 10 10
25 23 22 20 18 17 15 13 12 9 7 6 6 5 7 8 9 9 8 8 8 8 8 8 7 7 6 6 6 5 6 8 6 7 6 7 9 9 9 10 10 10 10
29 26 25 23 20 19 18 16 14 11 9 8 7 8 8 9 10 10 10 8 8 7 6 5 5 6 6 6 6 6 6 6 5 6 6 7 8 8 9 10 11 11 11
31 30 27 25 23 22 21 19 16 13 10 8 9 8 7 8 11 11 10 9 8 6 6 4 3 2 3 4 6 7 6 6 4 5 7 7 8 9 9 10 12 12 12
32 30 27 26 26 25 23 21 18 14 11 10 9 8 6 8 11 12 11 10 9 7 6 4 2 1 2 3 5 6 6 7 6 7 7 9 9 9 10 12 13 13 13
34 32 29 28 29 29 27 25 20 15 12 13 12 6 5 7 10 12 12 11 10 9 8 7 5 5 6 8 9 9 8 8 7 8 9 10 10 11 12 13 15 15 16
36 35 34 33 32 32 31 26 24 19 11 18 7 6 1 2 8 11 12 13 13 11 10 8 6 7 8 11 12 11 10 7 8 9 11 12 12 13 15 16 17 18 19
39 38 38 36 35 35 34 33 29 24 17 19 13 6 2 4 3 7 10 12 13 14 12 9 8 9 10 9 8 7 7 8 9 11 13 14 15 17 18 19 21 22 22
40 41 41 41 39 40 38 36 32 29 24 19 17 15 6 5 3 1 6 10 14 15 13 9 8 9 8 7 6 5 7 8 10 12 15 17 18 20 22 24 25 25 25
43 41 42 42 44 44 42 39 36 33 28 24 18 13 9 7 6 3 2 5 13 15 15 12 10 8 8 6 7 8 8 12 14 17 19 21 23 24 25 25 25 25 25
44 42 44 45 46 46 44 41 38 34 31 24 25 20 16 8 7 5 2 3 5 7 14 14 12 9 9 7 8 10 13 16 17 19 21 22 24 25 26 26 26 27 27
42 46 45 45 46 47 44 39 35 33 29 25 21 19 16 14 13 12 7 3 3 4 6 10 10 11 10 9 10 15 22 21 18 20 22 23 24 24 24 24 24 25 26
46 47 47 45 46 46 41 36 34 31 26 20 18 13 14 13 11 12 9 8 1 1 3 8 8 11 11 11 15 20 20 18 20 22 23 23 23 23 23 24 25 26 27
38 42 43 44 41 41 37 37 34 31 27 23 18 18 14 11 9 8 10 9 7 3 2 4 5 6 7 16 21 20 19 21 20 21 22 22 24 25 24 25 26 27 28
33 35 38 41 39 36 34 35 32 28 25 25 22 20 15 9 7 7 5 7 9 8 3 7 6 12 19 22 22 21 22 24 25 23 23 23 23 23 24 25 26 28 28
29 30 32 34 34 32 32 32 30 28 23 20 17 15 10 9 9 6 7 7 9 9 8 9 13 17 20 22 23 23 24 26 28 26 24 24 22 23 24 26 26 27 28
23 26 27 27 29 31 32 31 29 26 21 17 13 8 9 11 8 7 7 11 10 10 11 11 18 19 21 21 22 24 25 27 28 27 24 23 24 24 25 24 24 26 27
20 22 24 27 29 31 32 30 28 24 20 15 8 9 4 11 6 5 9 11 11 11 12 13 16 19 20 21 24 25 27 29 28 27 25 24 21 21 22 22 24 27 29
19 21 24 26 28 29 30 28 24 18 14 11 9 5 5 8 5 8 10 8 9 11 13 16 19 21 21 22 22 23 22 24 27 29 28 20 20 21 25 28 30 29 29
25 26 27 27 28 30 25 23 19 16 12 9 5 4 5 6 5 5 7 8 10 12 13 17 19 19 19 19 18 23 25 25 26 27 22 24 26 33 36 33 30 28 26
26 26 27 30 29 27 23 22 20 17 13 7 4 5 5 5 5 6 7 8 9 13 16 14 18 16 18 22 23 23 22 18 10 20 18 28 28 33 34 32 29 26 28
26 30 30 31 28 25 20 18 16 13 8 3 3 8 4 2 5 6 8 9 10 12 13 16 17 21 22 25 27 27 23 19 21 29 29 29 23 31 33 33 30 30 31
27 30 28 28 28 21 17 13 9 10 8 5 6 2 1 4 7 7 10 12 13 13 14 18 20 23 23 21 21 20 25 26 24 28 22 16 26 27 34 33 35 29 26
26 25 24 23 22 18 13 13 12 10 8 5 2 3 4 7 9 10 12 13 13 15 17 18 17 17 18 21 23 22 25 20 17 21 20 21 21 26 28 32 17 23 23
24 22 20 17 15 15 11 10 9 4 3 2 2 5 8 8 9 10 12 12 12 19 18 18 18 23 23 21 19 17 18 20 16 13 5 7 23 18 9 21 20 27 35

GFSMA_925_spd_036.txt.gz
Wind_Speed
16 16 15 15 14 12 12 11 9 8 7 6 5 5 5 5 6 7 7 11 9 8 8 8 7 7 7 6 7 7 7 7 8 8 8 9 9 9 10 10 10 10 10
17 17 16 16 15 14 13 12 11 9 8 6 5 5 6 6 7 8 8 7 9 8 9 8 7 6 6 5 5 5 6 6 6 6 6 7 8 8 8 9 9 9 9
18 17 17 17 16 15 14 13 12 10 9 7 6 6 7 7 8 8 9 7 7 9 9 9 8 7 5 5 3 2 3 3 3 4 4 6 6 6 7 7 8 9 9
22 20 20 18 17 16 16 14 13 12 10 9 7 7 8 9 9 9 9 9 9 8 10 9 8 7 6 4 3 2 2 3 2 3 4 5 5 6 6 7 8 9 9
25 23 22 21 20 19 18 16 15 13 12 10 9 8 9 10 11 11 11 11 10 10 9 12 11 8 7 4 2 2 2 3 3 4 5 5 6 7 7 7 8 9 9
26 26 24 22 22 21 19 18 17 15 13 11 9 8 8 10 11 11 12 12 11 12 11 9 9 7 9 8 6 4 3 4 5 5 6 6 7 8 9 9 10 11 11
26 27 27 26 26 25 23 21 19 17 13 13 9 7 7 9 12 13 14 14 13 13 12 11 9 8 8 9 8 8 9 6 5 6 6 7 9 10 11 11 13 14 14
27 30 30 29 28 26 25 24 22 18 14 19 11 9 4 8 13 16 16 17 16 14 13 13 11 10 8 6 8 9 9 7 4 6 7 9 10 12 13 14 15 16 17
29 31 31 31 30 29 30 30 29 25 20 21 20 8 4 6 10 12 17 17 17 16 14 14 13 11 9 7 7 5 8 7 4 5 7 9 11 13 15 17 18 20 21
30 31 30 30 30 32 30 34 34 35 24 20 18 20 10 4 4 4 12 17 17 18 17 15 14 12 10 8 9 9 9 7 6 6 9 12 14 16 18 19 20 22 22
33 32 31 30 31 35 35 32 32 34 33 26 24 13 14 10 7 5 4 10 17 19 18 17 15 14 12 10 8 9 10 8 7 10 12 14 16 18 19 21 22 22 23
25 29 31 31 34 34 35 39 38 35 32 27 31 28 23 11 10 7 4 7 10 14 17 16 15 13 11 9 10 12 9 10 11 13 15 17 18 19 19 20 21 22 22
24 29 31 31 31 34 34 32 34 40 37 33 30 34 31 24 16 18 11 5 4 5 10 14 14 13 12 10 9 9 10 13 15 15 16 17 19 19 20 21 21 22 23
22 22 24 29 31 29 29 28 29 32 33 34 33 32 35 29 24 18 14 10 2 4 9 6 12 12 11 10 10 11 9 15 17 17 17 18 20 20 22 22 23 23 24
22 22 21 22 26 27 27 26 28 28 27 28 29 32 35 31 24 19 16 13 7 4 5 6 4 8 9 8 9 9 13 14 16 19 19 20 21 22 23 23 23 24 24
17 16 18 19 22 25 25 25 23 23 24 25 24 29 28 22 20 17 15 14 8 7 2 4 5 3 6 4 10 14 14 17 18 18 20 20 21 22 23 23 23 24 25
12 13 14 15 17 20 25 27 24 24 22 23 26 28 25 24 18 15 15 13 13 10 3 4 5 5 11 16 16 15 15 16 17 19 20 22 23 23 22 23 24 25 25
9 10 12 13 14 16 18 23 26 25 26 22 19 19 18 21 18 14 10 7 6 6 4 3 7 10 13 13 13 15 16 16 19 20 22 22 22 22 23 23 22 22 22
5 4 5 6 8 10 13 17 17 18 20 22 21 21 18 18 15 11 10 9 6 4 7 6 3 5 8 10 14 14 17 18 19 20 21 22 21 22 22 21 22 24 25
4 4 4 2 1 3 8 15 19 21 21 21 22 19 17 15 14 11 9 7 6 4 6 4 7 10 11 11 12 15 16 17 21 19 20 22 20 20 23 23 24 25 26
9 9 8 6 7 9 10 16 19 22 25 24 20 18 15 12 10 8 7 7 6 6 7 10 10 8 11 12 14 14 16 18 19 21 21 17 17 20 22 22 23 24 23
11 11 10 7 9 10 11 12 19 25 24 22 20 16 14 10 8 5 2 2 5 7 8 11 10 13 13 13 13 15 16 17 14 13 12 21 22 25 24 23 23 25 26
13 14 14 15 19 19 18 17 19 20 20 17 14 12 11 8 5 6 9 10 11 11 10 12 16 15 14 14 13 15 16 16 18 24 23 25 24 25 23 24 25 27 29
20 21 22 22 22 18 19 18 17 17 16 15 10 8 6 6 5 3 5 6 8 6 9 11 14 15 14 14 14 14 15 19 21 23 20 21 23 22 24 25 27 28 29
20 22 21 21 20 17 18 16 15 14 13 11 7 5 5 3 2 5 7 6 7 8 9 12 14 14 14 15 16 16 16 16 17 22 19 18 20 21 24 29 23 19 22
23 22 21 18 15 16 15 14 11 10 10 6 5 3 1 1 3 4 5 6 8 10 12 13 12 12 13 13 13 13 14 15 15 12 4 6 15 16 7 14 14 21 23

GFSMA_925_spd_039.txt.gz
Wind_Speed
15 16 14 15 13 12 13 12 10 9 8 7 6 5 4 5 5 6 7 11 10 8 8 8 7 7 7 7 7 8 8 8 8 8 9 10 10 10 10 11 11 11 11
17 17 17 18 18 14 13 13 12 11 10 8 7 6 6 6 7 8 7 10 10 8 8 8 8 7 6 6 5 6 6 6 7 7 7 8 8 9 9 9 10 10 10
19 18 18 18 21 20 15 14 14 13 11 10 9 8 8 8 8 9 8 8 9 10 9 9 8 8 7 6 5 3 3 3 4 5 5 5 6 6 7 7 8 9 9
23 22 21 19 23 21 17 16 15 14 13 12 11 10 9 9 9 10 10 10 10 9 12 11 10 8 7 6 5 3 3 1 1 2 3 3 4 4 5 5 6 7 9
24 24 24 21 22 23 21 18 18 17 15 14 12 11 11 11 12 12 12 12 12 12 11 14 14 12 10 7 5 4 2 1 1 2 3 4 4 5 5 5 6 7 8
26 26 24 23 23 24 23 21 20 19 18 16 13 11 11 11 12 14 14 14 14 15 13 12 16 13 13 10 9 7 5 3 3 4 4 5 6 7 7 8 8 9 10
24 27 27 25 25 25 26 24 22 21 18 16 12 9 9 11 13 15 16 16 17 17 16 15 12 12 14 14 12 10 8 7 4 4 4 5 7 8 9 10 11 12 12
28 28 30 28 29 28 27 27 27 22 21 23 13 12 4 9 16 19 18 18 18 19 19 18 16 15 12 9 10 11 10 9 6 4 4 6 7 9 10 12 13 15 15
28 29 29 29 28 29 29 29 29 28 23 23 21 8 4 5 9 16 20 19 20 20 20 19 18 16 15 13 14 12 12 10 8 4 4 5 8 10 12 14 15 17 18
30 30 31 32 32 30 30 32 33 32 25 22 21 25 10 4 3 3 13 20 20 21 20 20 19 18 17 15 12 13 11 9 8 5 5 8 10 12 15 17 18 19 20
24 30 30 30 34 33 32 30 31 35 34 25 27 17 18 14 11 3 3 9 20 22 21 21 20 18 17 15 14 14 13 10 8 5 7 10 12 14 16 18 19 20 20
22 25 28 31 31 33 32 33 33 33 35 30 29 25 25 14 12 8 3 6 11 17 22 20 19 18 16 15 12 15 12 11 11 8 9 12 14 15 16 17 19 20 20
18 22 25 30 31 30 31 30 31 31 35 34 32 33 31 27 18 20 13 4 4 6 12 19 18 17 16 16 15 16 14 12 13 12 11 13 14 15 18 18 19 20 21
19 18 22 25 30 32 31 29 29 30 29 32 33 29 30 30 31 28 22 11 2 2 5 6 18 16 15 13 13 13 12 9 13 15 14 14 15 17 18 20 20 20 21
19 20 17 19 23 28 32 29 30 27 27 27 26 25 21 19 24 29 25 20 9 4 5 9 7 17 14 13 13 12 7 10 13 16 18 17 17 19 19 20 21 21 21
14 17 18 23 19 20 25 27 30 28 26 26 25 24 22 22 22 19 16 11 10 5 3 3 3 13 13 11 8 10 14 15 17 18 17 19 19 20 21 22 21 22 23
11 14 15 14 14 13 17 20 22 22 22 20 22 24 25 23 21 18 15 19 16 15 7 4 7 8 9 11 14 16 18 19 20 18 18 20 21 23 22 23 21 22 24
8 10 8 8 8 10 10 14 16 18 16 17 17 18 18 18 18 17 15 10 9 7 7 8 11 10 12 13 14 15 16 15 19 18 19 21 23 24 23 22 21 21 23
7 6 4 2 2 4 5 5 8 8 11 13 15 16 18 19 19 18 16 14 8 7 7 8 8 8 8 10 10 11 13 15 18 18 19 20 21 22 22 21 21 22 24
9 8 7 5 4 2 1 4 7 9 10 11 13 15 17 19 20 17 14 11 10 9 8 7 5 4 6 9 11 14 13 12 13 16 20 20 21 21 20 20 22 24 24
9 8 8 8 7 6 5 4 8 8 11 13 14 15 14 12 11 12 12 13 11 9 5 3 3 4 7 9 11 11 12 13 14 19 19 18 16 18 22 23 23 22 21
10 10 11 9 11 12 11 6 5 10 14 17 18 17 15 13 14 7 8 8 6 6 6 7 6 6 11 12 10 10 10 10 8 11 9 20 22 23 24 25 23 23 23
15 19 19 19 22 19 15 15 11 14 15 15 15 14 12 9 8 9 7 5 7 6 8 6 7 10 11 10 8 12 14 13 16 20 19 24 23 25 25 25 22 24 25
21 21 22 23 24 20 17 16 14 14 14 13 10 8 6 4 4 2 3 1 1 5 8 8 10 11 11 11 11 13 15 16 18 19 16 19 24 24 26 27 25 25 26
21 21 20 19 20 18 16 14 14 12 11 10 7 7 4 4 2 1 2 3 5 7 6 7 10 13 14 14 14 14 15 14 14 16 17 16 15 19 23 31 27 20 19
20 18 18 15 14 15 14 15 13 9 8 4 4 1 2 3 3 3 4 6 6 6 7 9 11 10 11 13 12 14 15 14 12 10 1 4 11 12 8 17 16 21 28

GFSMA_925_spd_042.txt.gz
Wind_Speed
19 16 16 15 12 17 13 16 10 11 12 10 9 9 8 8 8 10 11 14 12 9 8 8 9 9 8 9 8 8 8 9 8 9 10 10 10 10 10 11 11 11 11
21 23 20 19 18 15 14 16 14 14 12 12 12 10 10 10 10 9 11 14 15 12 10 10 10 10 9 8 8 7 7 7 7 7 8 8 8 8 8 9 10 10 10
20 19 21 27 25 22 15 18 17 17 16 16 14 13 13 13 14 11 12 11 16 14 11 11 11 10 10 9 7 6 5 5 5 5 5 6 6 6 7 7 8 9 9
25 23 21 21 25 24 24 17 20 19 19 19 18 16 16 15 15 17 12 13 13 16 15 14 13 12 11 10 8 6 6 4 3 1 2 3 4 5 5 5 6 7 8
27 28 25 23 23 24 26 26 22 23 21 20 19 18 17 17 17 17 19 13 13 14 15 18 17 15 13 11 9 8 6 4 3 1 1 0 1 2 3 4 4 5 7
28 28 29 26 25 27 28 29 26 24 23 23 20 17 17 16 17 19 20 20 18 17 17 17 20 19 18 13 11 10 8 5 4 3 3 2 2 2 3 4 5 5 6
28 30 32 32 28 29 32 32 30 25 25 22 19 13 13 18 18 20 22 21 24 23 19 20 18 21 20 18 16 14 11 8 6 5 4 3 3 4 5 5 6 7 8
24 31 35 36 36 33 30 34 33 29 28 27 19 12 3 9 22 25 22 24 26 26 26 22 20 20 19 18 19 17 14 11 8 6 5 4 3 4 6 7 8 9 11
33 23 30 35 37 35 36 33 36 35 27 31 30 11 3 5 5 19 30 27 27 28 28 28 25 22 20 18 17 17 15 14 10 7 5 3 4 6 7 9 10 11 12
29 29 32 30 32 34 33 35 35 39 29 30 32 33 15 8 4 2 14 30 28 28 29 30 29 26 26 24 21 19 17 14 13 10 5 4 5 7 9 11 12 12 13
24 27 23 35 32 33 34 30 35 35 41 31 32 28 34 19 13 3 3 10 26 30 29 30 30 29 28 26 24 21 19 16 13 12 8 6 6 8 10 12 14 14 15
26 25 27 23 32 29 32 35 34 34 36 34 36 31 28 18 15 9 2 4 11 20 30 27 28 29 29 26 22 22 21 17 15 11 7 7 8 10 11 12 14 15 16
18 19 23 25 26 29 32 31 35 35 32 38 34 35 38 32 22 25 9 4 3 5 13 23 22 25 26 25 24 22 18 16 14 12 8 8 9 11 13 14 14 16 17
19 15 12 22 25 24 25 31 33 34 34 37 39 33 35 37 33 23 23 12 1 1 4 5 18 19 21 22 20 17 18 15 13 10 9 10 12 12 13 16 16 17 18
10 14 15 11 13 19 19 22 28 30 31 33 35 35 31 30 30 25 21 17 10 5 3 7 9 18 20 18 18 17 14 11 11 10 11 14 17 15 14 16 18 18 19
13 12 13 14 12 10 12 17 23 25 25 28 27 26 27 25 25 26 27 22 18 10 3 6 10 21 24 23 17 19 22 23 20 17 13 15 17 17 17 19 20 20 20
10 10 12 15 16 16 13 11 11 12 12 12 17 20 24 25 23 20 19 19 18 17 5 7 15 18 17 18 19 20 23 21 21 19 15 16 18 18 18 21 21 20 20
7 7 7 6 7 8 10 10 10 10 10 12 12 14 16 16 16 15 15 16 15 15 10 8 13 18 22 22 18 19 19 16 15 17 15 16 17 19 20 20 21 21 21
9 8 7 6 5 4 4 5 6 5 6 6 8 11 12 13 13 12 12 12 13 12 13 13 9 14 16 16 13 15 14 14 16 14 12 14 16 18 19 20 20 20 20
9 11 12 11 10 9 5 2 1 1 1 3 3 6 7 8 12 12 13 14 14 14 11 11 7 6 6 8 9 12 14 10 10 9 13 16 19 19 17 16 17 18 19
10 10 10 12 13 12 11 7 6 5 5 6 6 5 5 7 9 10 12 12 11 9 7 8 7 5 7 7 10 7 10 7 8 15 19 15 14 14 17 21 20 20 18
15 15 16 17 18 16 11 9 6 9 10 12 14 14 12 12 10 7 6 7 6 8 9 5 5 3 7 9 11 11 3 5 4 12 6 23 23 21 20 21 19 17 18
18 20 21 21 20 16 14 14 12 14 15 14 13 12 9 7 7 7 6 4 5 1 1 3 5 6 6 4 5 8 11 12 14 19 18 25 19 22 22 23 20 19 19
21 20 18 18 19 16 15 13 12 14 15 13 10 9 6 5 4 3 2 2 2 1 6 7 7 7 7 7 7 8 9 11 14 16 15 15 15 26 22 21 23 20 18
18 17 16 16 17 16 14 13 12 12 11 10 10 9 8 6 5 3 4 5 4 4 4 5 6 9 11 11 11 12 13 14 13 10 18 17 11 18 26 24 10 10 12
15 15 16 15 14 14 12 11 11 11 10 9 6 6 4 1 3 2 3 6 3 2 4 8 11 11 12 11 11 11 12 13 12 8 4 4 9 12 10 11 11 27 25

GFSMA_925_spd_045.txt.gz
Wind_Speed
19 23 18 14 14 15 15 14 11 10 12 12 13 11 11 11 10 14 15 14 14 13 11 9 10 11 10 10 10 10 10 9 9 10 10 10 10 10 11 11 11 12 11
19 24 19 18 17 15 14 17 16 14 16 15 15 14 13 12 13 15 16 16 15 15 13 12 12 12 11 10 10 10 10 9 9 9 8 9 9 9 9 9 10 10 10
22 25 23 21 20 20 15 20 21 19 17 17 17 16 15 15 16 15 17 17 17 17 16 14 13 13 13 12 11 10 10 9 8 8 7 7 7 6 7 7 8 8 8
26 23 26 27 26 26 24 21 18 22 21 21 20 18 17 17 18 17 17 18 17 18 18 16 17 16 15 14 13 11 10 10 8 8 7 6 6 5 5 4 4 4 6
27 30 27 25 26 27 30 28 26 23 24 24 22 20 20 20 20 21 20 20 19 19 19 20 20 20 18 16 15 13 12 10 10 7 7 6 5 4 4 3 2 2 2
29 30 33 32 29 28 29 32 32 29 28 27 23 22 21 22 22 23 24 23 22 22 20 21 23 24 22 19 16 15 13 11 10 9 8 7 7 5 4 3 2 1 2
27 31 34 34 34 33 34 34 33 34 31 29 20 19 19 22 25 27 26 27 27 26 24 24 23 26 25 23 19 17 15 13 11 10 10 9 8 7 5 4 3 3 3
30 28 33 38 37 38 35 35 36 33 33 30 16 5 2 10 26 29 29 29 31 29 29 29 27 26 27 27 24 20 17 15 13 12 12 11 9 8 6 5 5 5 5
27 29 32 33 37 38 39 39 38 37 29 33 33 14 2 6 3 19 37 33 33 33 34 32 30 29 27 28 26 24 21 18 14 13 13 12 11 9 7 6 7 7 8
27 25 25 27 35 37 43 40 37 40 36 30 31 38 25 6 4 3 12 32 32 34 36 35 34 32 30 28 27 24 21 19 16 14 13 11 10 8 8 7 8 8 9
26 24 24 26 25 31 36 38 38 32 41 29 30 29 33 20 11 3 4 5 27 34 34 36 37 35 32 29 28 26 22 18 15 13 14 11 10 10 9 9 8 10 10
16 26 28 29 28 22 25 29 30 32 35 40 35 33 26 14 19 6 3 4 7 17 32 34 37 38 35 33 30 26 23 17 14 12 12 10 10 10 10 10 10 11 12
12 12 13 20 23 23 22 24 28 29 32 35 38 38 38 33 25 24 12 3 4 11 10 28 28 35 35 31 29 24 22 21 16 12 11 11 10 12 12 12 13 13 13
7 6 6 4 7 14 18 22 19 23 27 30 34 34 34 34 38 33 23 15 2 4 6 6 19 23 25 25 21 24 18 16 15 14 13 15 13 13 15 15 15 15 14
9 11 10 7 5 10 12 14 15 17 22 25 29 31 33 35 35 33 31 26 20 7 6 9 8 18 23 22 27 27 26 23 22 17 17 19 16 16 17 17 17 15 15
10 10 10 10 9 7 8 9 10 13 16 17 21 22 26 27 24 25 25 25 23 18 5 17 12 19 26 30 32 35 28 27 20 20 17 19 19 17 17 19 18 18 18
9 7 8 8 9 8 9 9 9 9 12 11 11 13 17 17 18 19 19 20 22 22 11 9 18 20 25 26 27 22 18 20 18 21 23 26 20 17 19 19 18 20 19
7 8 6 6 8 8 7 7 8 9 9 10 10 9 12 13 15 14 14 12 14 17 14 6 15 17 20 23 22 21 19 16 20 24 23 16 16 17 18 18 18 19 18
7 8 9 10 9 7 6 6 6 6 7 7 6 5 4 5 8 7 10 10 12 13 12 9 7 13 15 19 17 18 17 19 21 17 15 14 13 13 18 18 18 18 17
9 9 10 11 10 10 8 5 5 4 4 3 3 3 3 3 4 5 6 8 8 7 6 6 5 6 7 9 14 13 11 11 12 11 9 10 13 16 17 15 14 14 16
9 9 11 12 12 11 11 8 7 8 9 9 8 7 8 6 5 2 2 4 4 5 4 5 4 4 7 6 7 4 7 5 9 9 10 16 13 14 16 19 19 17 15
13 15 16 15 17 16 13 11 9 11 11 11 11 11 11 11 10 7 5 2 1 2 2 2 2 2 2 2 5 8 8 4 2 4 2 20 17 19 14 12 13 14 13
13 16 17 18 18 16 14 14 12 14 14 12 11 9 9 8 7 8 7 5 4 2 2 2 2 1 2 1 1 4 5 8 9 14 14 17 18 21 13 16 13 14 14
14 16 17 17 18 15 13 12 12 12 11 10 8 7 7 6 5 5 6 6 3 2 3 5 6 6 4 4 6 8 9 10 13 16 15 8 11 18 15 16 16 12 8
15 15 14 13 15 14 12 13 12 11 10 10 10 9 8 7 6 4 4 4 3 4 3 4 3 5 7 9 9 9 10 10 10 5 12 13 9 14 20 10 2 4 4
14 13 14 15 14 13 11 8 8 8 7 6 6 5 5 6 5 5 5 5 3 1 4 7 10 10 9 10 10 10 11 11 9 5 2 6 6 9 9 6 5 16 17

GFSMA_925_spd_048.txt.gz
Wind_Speed
17 17 17 16 16 17 18 17 15 14 15 14 12 12 12 12 12 13 15 15 14 12 11 10 9 10 9 10 10 10 10 10 10 10 10 10 10 9 9 9 10 10 10
20 21 22 22 20 18 17 18 17 16 14 15 15 15 16 15 14 14 18 18 16 15 14 12 11 12 11 11 11 11 11 10 10 10 10 10 9 9 9 9 9 9 9
23 23 23 27 25 20 19 19 18 19 20 19 20 18 18 17 18 17 19 20 19 18 17 15 14 14 14 13 12 12 12 12 11 10 10 10 9 9 8 8 8 7 8
24 26 26 29 28 25 24 23 22 23 24 24 24 22 21 19 20 21 20 22 23 22 20 19 18 17 17 15 14 14 13 12 11 10 10 9 9 9 8 7 6 6 5
25 27 30 29 30 28 27 28 26 24 25 27 27 24 24 23 22 23 24 24 26 25 23 22 22 21 20 19 17 15 14 14 13 11 10 9 9 8 8 7 5 4 4
30 31 32 31 31 30 30 32 33 32 29 28 28 26 25 25 24 26 27 27 28 28 26 25 24 25 25 22 19 18 16 15 14 13 11 11 10 9 8 7 6 5 4
27 31 33 34 32 32 34 34 34 35 35 32 22 24 26 27 27 29 29 30 32 31 30 28 27 27 28 27 23 20 19 17 15 14 13 12 11 10 9 8 7 6 6
28 28 26 31 35 36 38 37 34 34 37 34 18 3 3 11 29 34 33 33 34 33 35 33 31 29 29 30 29 24 21 19 17 15 14 14 12 12 10 8 8 7 7
26 27 27 27 30 32 38 42 40 37 29 27 31 13 1 6 2 13 35 38 38 36 36 36 34 33 30 30 30 29 26 21 18 16 15 14 14 12 10 8 9 8 8
20 24 26 27 27 27 33 37 39 40 34 25 25 35 25 4 4 4 9 21 36 33 35 35 35 36 35 34 32 32 30 26 18 16 15 14 13 12 10 9 9 10 9
14 17 21 26 25 24 27 28 33 35 36 30 30 20 34 22 10 5 4 5 11 28 36 34 36 38 38 37 35 31 30 27 19 17 15 14 13 13 9 10 9 10 10
9 9 11 20 25 27 25 23 23 26 31 36 32 31 27 13 20 14 4 6 8 12 25 35 36 38 39 37 34 34 31 26 19 16 14 13 11 13 10 9 8 10 13
6 5 6 8 14 17 18 19 20 20 21 23 27 32 35 35 28 21 17 11 7 13 8 19 31 35 37 36 34 31 28 22 17 15 12 12 12 12 9 9 10 11 14
6 8 8 7 7 7 11 13 13 15 15 18 18 24 28 32 33 30 24 14 4 7 7 14 16 28 32 33 33 32 31 28 20 17 18 17 19 20 22 21 16 15 16
7 8 8 8 7 6 7 8 7 10 12 13 15 17 22 24 26 28 29 26 18 3 3 11 13 14 20 25 29 31 35 27 27 26 27 25 28 27 22 18 18 17 18
6 6 6 6 6 7 6 5 4 6 7 9 9 13 17 21 23 22 23 24 21 15 4 8 12 12 15 19 26 30 31 28 21 21 22 21 21 19 19 19 19 19 19
8 7 7 6 6 5 5 3 3 3 4 4 7 6 7 11 13 13 14 16 19 17 8 7 11 14 16 21 22 25 24 25 24 21 20 16 17 19 21 20 19 19 20
8 8 8 7 7 6 6 5 6 6 8 7 6 6 6 6 6 8 9 10 10 11 9 6 9 11 14 19 23 20 20 22 21 22 22 18 19 19 18 18 19 18 19
7 8 9 9 9 8 6 5 3 4 4 4 5 5 5 5 6 8 8 7 8 8 10 5 5 6 13 15 16 17 16 17 15 17 16 17 17 16 17 17 18 18 19
9 10 10 10 10 10 9 8 7 7 7 6 6 6 6 6 5 4 3 2 2 1 1 3 3 3 4 5 13 12 13 13 14 13 10 11 10 13 15 16 17 16 15
10 11 12 13 13 15 13 9 8 10 10 11 12 12 13 13 11 7 5 5 4 4 3 3 3 1 2 1 3 2 4 4 7 9 9 12 16 17 17 18 19 19 17
12 13 15 18 16 16 13 12 11 13 13 12 13 12 10 11 13 12 10 8 7 5 5 3 3 3 3 2 1 3 5 4 2 3 6 13 17 21 17 15 14 14 14
13 15 16 16 15 15 13 13 11 12 11 11 10 10 10 9 7 6 5 3 5 5 5 3 3 2 2 1 0 1 2 5 7 10 11 18 17 21 12 11 13 13 12
13 14 14 14 14 13 11 11 10 9 9 10 11 11 11 10 9 8 7 6 5 4 4 2 2 3 3 3 5 7 7 8 10 14 14 8 10 16 14 13 15 15 13
13 12 12 11 11 11 10 11 9 9 9 9 9 10 10 9 7 5 6 6 5 4 3 2 0 1 3 5 6 9 8 8 8 5 5 9 7 13 18 12 2 6 9
11 12 13 12 10 10 9 7 6 5 5 6 6 6 6 7 6 6 8 7 6 5 7 8 9 11 12 11 10 11 10 10 8 6 1 3 5 10 8 5 4 9 11

GFSMA_925_spd_051.txt.gz
Wind_Speed
14 15 15 15 15 14 14 14 15 14 14 14 14 14 14 13 13 12 12 14 15 15 11 10 9 9 8 8 8 7 7 6 6 6 7 7 7 8 9 9 9 9 9
17 17 18 18 18 16 15 16 17 17 17 16 17 16 16 16 16 14 15 17 18 18 16 12 11 11 10 10 10 10 9 8 8 7 6 6 6 7 7 8 9 8 9
21 20 21 21 21 20 19 19 18 19 20 19 19 18 19 18 19 18 17 18 20 20 18 15 13 13 13 11 11 11 11 10 9 8 7 7 6 6 6 6 7 8 7
23 23 24 25 23 24 25 24 23 23 23 23 23 23 22 21 21 21 21 20 22 23 22 20 18 16 15 14 14 13 12 12 11 10 9 8 7 6 6 6 6 6 6
26 28 28 27 26 27 29 29 28 27 27 28 27 27 26 26 24 23 24 23 24 25 26 24 22 21 20 18 16 16 15 14 14 12 11 10 9 8 7 6 5 5 5
27 27 30 30 30 29 30 31 31 31 30 30 28 29 27 28 27 28 28 26 27 27 28 28 26 24 23 22 19 18 17 17 16 14 13 11 10 9 8 8 6 6 5
25 28 30 31 32 31 31 30 32 32 33 33 27 24 28 29 29 31 31 31 32 32 31 31 30 27 25 26 26 22 20 19 17 16 15 13 12 11 10 9 8 7 6
28 30 28 29 30 32 32 32 32 30 32 30 13 5 3 8 24 32 34 35 37 34 33 34 33 31 29 28 29 28 24 22 20 18 17 16 15 13 12 10 9 8 7
26 27 27 26 26 26 27 30 32 33 27 23 24 13 1 4 3 9 20 29 37 37 35 34 34 34 32 30 30 32 30 26 23 20 17 17 16 14 13 11 10 9 9
16 18 20 22 24 24 26 27 27 30 29 22 19 25 29 14 4 3 7 14 16 28 36 34 34 34 36 36 34 34 32 29 25 20 18 17 17 16 14 12 11 9 11
16 14 15 19 22 25 25 24 25 25 26 27 24 18 23 22 18 6 9 8 14 17 19 27 33 34 36 38 39 38 33 30 25 23 19 19 18 17 15 13 11 10 10
7 10 12 12 17 21 24 25 24 22 22 22 25 25 22 10 7 11 8 13 14 19 21 21 24 30 33 34 37 39 35 31 25 24 19 19 18 17 13 10 6 5 4
5 6 7 7 8 12 17 17 17 17 19 19 20 22 21 23 22 16 16 10 6 8 10 19 22 25 29 31 29 30 36 35 28 24 23 23 17 12 12 15 19 20 17
7 8 9 8 8 7 6 9 10 11 13 12 11 14 15 16 17 19 17 7 3 6 6 18 16 19 23 29 29 29 29 38 31 26 23 20 22 25 25 23 21 21 20
7 9 10 9 8 8 7 5 4 6 6 7 7 9 14 17 15 16 18 20 12 3 3 5 6 9 14 18 24 26 30 33 32 29 25 27 25 24 23 22 20 20 19
6 6 5 5 5 5 4 3 1 2 3 2 3 4 6 7 9 10 11 14 15 12 3 2 4 11 13 13 14 20 27 28 28 23 22 25 24 23 22 21 19 19 20
5 5 5 5 5 6 5 4 5 4 4 4 5 6 4 4 5 5 5 5 5 6 4 5 9 12 12 10 13 17 20 23 20 17 17 16 17 19 19 18 19 20 18
5 5 5 6 7 7 7 6 6 8 8 9 9 6 6 7 6 6 5 5 5 4 3 4 5 7 7 8 11 12 16 16 19 19 16 17 18 16 16 19 19 18 19
5 6 6 7 8 8 8 8 8 8 6 6 6 6 7 7 7 7 6 4 4 4 5 4 4 5 4 6 8 10 11 13 15 15 15 15 15 14 17 18 19 18 17
7 8 9 9 10 10 10 10 10 10 10 10 11 12 12 12 9 7 6 6 6 5 4 2 2 3 3 3 5 7 9 9 10 12 13 14 11 10 11 11 15 16 18
10 10 11 14 14 15 13 12 13 14 15 15 15 15 15 14 12 10 8 8 6 6 5 5 3 2 2 3 2 1 2 3 6 8 8 9 12 14 17 19 20 20 19
10 11 15 14 17 16 14 15 15 16 15 14 12 10 9 8 9 11 10 11 11 8 6 3 3 2 2 3 2 2 2 2 2 2 5 8 10 17 21 21 19 18 16
12 12 13 15 16 15 14 15 13 14 15 13 11 10 9 9 8 8 7 6 5 5 5 4 3 3 2 2 2 2 2 3 4 8 10 15 16 23 19 14 13 13 14
11 12 13 12 13 13 12 12 11 11 11 11 11 11 9 9 10 8 8 7 6 5 7 3 2 3 3 3 4 5 6 7 10 12 12 7 11 15 16 12 14 16 14
11 10 10 9 11 11 9 9 9 9 8 9 8 8 9 8 8 6 8 8 6 4 3 3 2 1 2 3 6 8 7 8 6 4 6 8 7 14 18 13 5 5 7
10 9 11 10 9 9 7 6 7 6 6 6 5 4 4 7 6 6 10 9 9 6 7 8 8 9 10 10 8 8 8 8 7 5 2 2 5 10 8 5 3 6 11

GFSMA_925_spd_054.txt.gz
Wind_Speed
11 11 12 13 12 11 11 12 12 12 12 12 12 13 13 13 12 12 11 10 10 13 11 9 8 7 7 6 6 5 5 4 4 4 4 4 4 4 5 6 6 6 7
16 14 14 14 14 14 13 13 14 14 15 15 15 15 15 15 15 15 13 12 14 15 15 12 11 9 9 8 8 7 7 5 5 5 5 5 5 5 5 5 6 6 6
19 18 16 16 16 16 17 18 17 17 17 17 18 17 17 17 18 18 17 15 15 17 18 16 13 12 11 11 10 9 9 8 7 7 6 6 5 5 5 6 6 6 6
19 20 21 20 19 19 20 21 21 21 21 21 22 22 21 21 21 21 20 19 18 19 20 21 19 16 15 13 13 12 12 11 10 9 8 7 6 5 5 5 5 6 6
20 22 23 23 22 23 23 24 25 25 26 27 27 27 26 25 24 24 24 23 22 22 23 23 23 22 20 18 16 15 14 13 13 12 11 10 10 9 8 7 6 5 5
25 26 27 27 26 25 26 26 26 28 29 31 30 30 28 27 27 29 29 28 27 26 25 25 26 26 24 23 19 18 17 16 16 15 14 13 11 10 10 9 8 7 6
23 23 27 28 28 27 29 28 27 27 29 29 26 26 30 27 27 31 32 31 31 31 29 28 28 29 28 25 24 21 20 19 18 17 16 14 13 12 11 10 10 9 8
24 24 26 27 25 27 27 28 28 27 27 26 14 5 3 10 18 22 25 30 32 32 32 31 30 30 30 29 28 27 25 22 21 20 18 17 16 15 14 13 12 11 10
20 21 23 24 25 25 26 26 25 25 23 20 22 13 1 4 2 8 11 14 18 22 27 29 29 28 30 31 31 30 30 28 23 22 21 19 18 17 16 15 14 13 10
12 12 14 16 19 20 22 24 24 25 24 18 17 21 24 9 2 3 7 13 13 20 20 20 22 25 27 29 33 35 32 30 28 24 20 17 16 18 18 18 16 14 12
12 12 13 14 16 19 21 23 25 24 22 22 20 16 16 19 19 6 5 5 10 13 17 15 16 18 22 27 29 33 34 29 28 26 25 26 21 22 22 21 18 15 12
7 8 9 11 12 14 17 21 21 20 20 21 21 19 17 8 6 8 5 8 8 11 16 17 18 19 19 21 23 25 28 29 28 27 23 25 23 22 23 22 17 13 11
7 8 9 9 9 10 11 12 15 18 18 19 19 17 18 17 15 14 13 6 5 4 6 14 15 15 16 17 20 22 23 25 29 30 32 32 27 24 22 19 17 17 17
7 9 10 10 10 10 9 8 7 9 10 11 10 11 14 13 9 14 13 4 2 5 4 9 10 11 11 12 14 17 19 21 24 28 31 27 24 25 22 16 17 19 19
6 8 8 8 8 7 6 4 3 2 2 2 2 4 6 9 8 9 11 12 5 2 2 1 2 6 10 12 13 15 17 19 20 26 30 25 20 16 20 22 19 22 20
4 5 4 4 3 3 1 2 3 2 5 1 0 1 1 1 1 2 4 6 7 3 3 0 1 10 12 13 15 15 15 16 15 20 25 24 23 21 19 18 23 21 19
3 3 3 3 4 4 5 5 6 6 6 6 7 5 2 1 1 2 3 2 3 2 3 4 5 9 10 11 11 10 11 12 11 9 11 12 15 20 23 22 19 19 21
1 1 2 3 4 5 5 6 8 9 8 8 7 3 3 3 3 3 2 3 2 2 3 3 5 8 8 8 6 5 7 9 9 8 12 11 10 11 13 15 17 17 18
3 3 3 4 5 6 6 8 8 9 11 11 10 10 10 7 8 6 6 5 5 4 3 2 3 5 4 6 5 3 5 7 10 16 17 20 21 18 16 15 16 17 17
5 5 5 6 7 7 8 8 9 10 12 13 15 16 16 15 12 11 12 10 8 7 6 4 3 4 4 5 4 4 4 5 7 8 10 11 12 14 13 13 10 10 12
7 8 10 11 12 10 9 10 12 14 15 15 15 15 16 16 15 15 13 11 8 7 6 5 4 4 5 5 5 5 3 3 4 5 7 7 9 11 11 13 16 20 21
8 9 12 12 14 13 12 12 14 14 13 12 12 12 10 8 8 9 9 12 11 9 7 4 5 4 4 4 4 5 5 4 3 4 6 7 8 12 15 19 20 20 18
11 11 12 13 13 12 11 12 12 14 14 13 13 13 11 11 9 9 9 8 5 5 5 4 4 4 4 5 4 5 5 5 5 10 13 12 13 18 13 11 11 12 11
12 11 11 11 12 11 11 11 11 11 12 12 12 11 10 10 9 9 9 7 5 7 8 5 4 4 3 4 5 6 7 7 10 11 8 5 8 16 12 11 12 12 13
11 10 8 9 10 10 7 7 7 7 8 8 8 8 8 8 7 7 9 7 6 4 3 2 3 4 4 5 6 9 8 8 7 4 6 5 6 15 16 7 5 5 1
10 8 9 9 9 8 4 5 5 5 6 6 5 4 3 5 6 6 9 8 8 6 6 7 8 8 9 8 7 7 7 7 6 5 2 4 6 9 8 5 4 4 6

GFSMA_925_spd_057.txt.gz
Wind_Speed
9 7 8 9 10 10 10 10 10 10 10 10 10 11 12 11 11 11 11 10 9 9 11 10 9 7 6 5 5 4 4 3 3 3 2 1 2 2 4 5 5 5 5
12 11 10 10 12 12 11 11 11 11 11 11 12 13 13 13 12 13 13 12 12 12 15 14 11 10 8 8 7 7 6 5 4 4 4 3 2 1 1 2 3 4 5
15 15 14 13 13 13 13 14 15 15 14 14 14 14 14 15 15 16 16 16 15 15 17 17 15 13 13 10 10 9 9 8 7 6 6 5 5 5 3 3 3 4 4
15 17 18 17 15 15 16 17 17 18 19 18 18 18 18 18 19 19 20 20 19 18 18 19 19 17 16 14 12 12 11 10 10 9 8 8 7 6 5 5 4 4 4
16 17 19 19 17 18 19 19 20 20 20 20 22 22 22 22 23 23 24 24 24 23 21 20 20 21 21 18 15 14 14 14 13 12 11 10 9 8 8 7 7 6 6
19 20 22 23 22 22 23 23 23 22 23 22 22 24 24 25 26 26 27 29 29 27 26 24 22 23 24 23 20 17 16 15 16 15 13 12 12 11 10 10 10 9 8
20 20 22 23 24 25 25 24 23 23 23 23 16 16 21 20 21 21 22 25 28 29 27 26 25 24 25 25 25 22 19 18 18 19 17 15 14 13 12 12 12 11 11
24 25 25 25 25 24 24 24 24 18 19 21 8 4 4 9 15 19 18 19 20 20 22 23 23 25 25 25 26 27 25 22 20 20 21 20 18 16 15 13 13 13 12
19 21 22 23 24 24 25 25 25 23 16 17 18 9 2 4 3 11 13 13 13 15 14 13 14 14 19 23 25 27 29 27 24 21 20 21 21 20 17 16 15 14 15
12 12 13 15 17 18 19 21 21 22 20 16 15 18 21 11 3 2 4 8 11 13 15 14 14 13 13 17 19 23 27 29 28 25 22 19 18 18 17 17 16 18 17
8 9 11 13 14 14 15 17 19 19 21 21 19 12 13 15 16 7 2 6 7 7 15 14 14 15 14 15 16 18 20 23 27 25 26 25 23 18 16 16 21 24 21
5 5 5 7 8 9 10 13 15 17 19 20 20 19 19 8 7 7 4 7 6 9 12 13 13 10 10 11 12 13 14 15 18 22 27 28 27 26 27 27 25 25 23
6 8 9 9 9 9 9 8 10 14 16 19 20 19 19 20 16 11 6 2 3 2 4 9 7 9 9 11 11 12 12 12 14 17 23 27 25 24 26 26 26 25 24
6 8 9 10 11 11 10 8 7 9 10 13 14 13 12 10 11 11 6 5 2 6 5 6 5 6 6 8 10 11 13 12 11 13 18 23 27 25 25 23 20 12 12
5 7 8 8 8 8 7 5 5 5 4 4 4 6 8 8 8 8 8 8 5 2 3 3 2 2 7 9 12 13 14 14 13 13 16 20 21 21 14 20 20 15 12
3 4 4 4 4 3 3 3 4 4 5 3 1 1 2 1 0 1 2 2 4 6 2 4 3 6 8 9 11 11 10 10 9 12 17 14 14 14 14 9 9 10 13
2 2 2 1 2 2 2 3 4 5 5 4 3 2 2 2 2 2 1 1 0 2 3 2 3 5 8 9 8 7 6 7 7 5 15 8 10 9 8 10 13 16 19
2 1 0 1 2 3 5 6 7 8 8 7 6 5 3 1 1 0 1 1 0 1 2 2 2 5 5 7 6 4 4 4 4 5 5 3 3 4 8 11 12 13 17
2 2 2 2 3 4 6 8 8 9 9 9 9 8 6 4 5 4 4 4 4 3 1 0 1 4 3 6 4 4 4 4 5 8 12 13 13 14 13 14 14 14 15
5 4 3 3 4 5 7 8 10 11 13 13 13 12 11 10 9 8 8 7 5 4 3 3 2 2 3 4 6 7 7 7 7 6 7 8 9 11 11 14 15 14 14
6 7 7 8 7 7 8 12 14 14 14 14 13 13 14 14 12 10 8 7 5 4 3 3 2 2 3 4 5 5 4 5 4 6 7 6 6 7 9 10 11 13 15
8 10 10 11 11 11 11 11 14 14 13 12 13 10 8 6 6 6 5 8 8 5 4 2 2 2 2 3 4 5 4 4 2 5 9 9 11 11 13 15 17 19 20
12 13 13 12 12 12 12 12 14 14 13 12 12 10 8 7 5 5 5 3 4 5 4 3 3 2 2 2 3 3 4 3 3 8 9 8 8 9 8 12 12 13 12
13 13 13 13 13 12 11 12 11 11 11 11 10 8 7 7 6 5 4 4 4 6 6 5 5 3 2 3 2 4 4 6 7 7 6 4 6 9 10 10 10 8 11
14 13 13 13 14 13 9 9 9 8 8 7 5 5 5 6 3 3 4 4 2 2 2 0 2 3 4 5 5 7 5 5 5 2 4 3 5 11 8 3 3 3 3
14 12 12 12 11 11 7 6 6 6 6 4 3 3 2 2 1 2 3 3 2 1 1 3 4 4 5 4 5 5 4 2 2 3 1 4 5 7 6 4 4 10 9

GFSMA_925_spd_060.txt.gz
Wind_Speed
6 5 6 7 7 7 7 6 6 7 7 7 8 8 8 9 9 8 7 10 9 8 10 11 10 9 8 6 5 4 4 4 2 2 2 2 2 2 3 2 2 3 3
7 7 7 7 8 8 7 7 7 7 7 8 8 9 9 9 9 9 8 9 10 11 12 15 13 11 10 9 8 7 6 5 4 4 3 3 3 2 2 2 2 2 3
9 9 9 8 8 8 8 9 9 9 10 10 10 10 10 10 10 10 10 10 10 12 13 15 16 15 14 13 11 10 9 8 7 6 6 5 5 4 3 2 2 2 2
11 10 10 10 9 8 8 10 10 11 11 12 12 11 11 11 12 12 13 12 12 11 13 15 18 18 17 16 14 13 12 12 11 10 9 8 7 6 5 5 4 3 4
11 12 11 11 10 10 11 11 12 12 13 13 13 14 13 14 14 14 15 16 15 15 14 14 17 19 20 20 18 16 14 15 15 13 11 10 10 9 8 7 6 5 5
12 13 13 13 12 13 13 14 14 14 15 15 15 16 16 16 16 16 17 17 16 16 16 15 14 15 18 23 23 20 18 16 17 18 17 15 14 13 11 10 9 8 7
13 14 14 14 13 15 16 16 16 16 17 15 13 15 16 13 15 16 14 13 12 12 12 13 13 14 15 19 23 25 22 20 19 20 20 19 18 17 16 14 12 10 9
14 14 15 16 16 16 17 17 17 17 15 13 10 8 5 13 15 10 10 10 10 9 9 9 10 12 13 14 16 19 24 23 22 20 21 24 22 20 18 17 15 13 11
12 15 16 16 17 17 19 18 16 15 16 14 14 10 3 7 3 6 7 8 8 7 7 6 7 10 10 11 13 16 21 24 25 23 22 20 24 22 21 20 18 18 17
12 12 12 13 16 17 19 20 21 20 20 17 13 16 18 8 3 3 6 7 7 8 7 8 10 8 10 12 12 13 15 17 21 23 25 25 21 23 24 21 20 20 17
9 10 11 12 12 11 14 14 13 15 17 17 17 14 14 12 13 8 4 6 7 5 7 7 7 6 6 6 6 10 11 13 16 18 22 25 25 19 19 25 22 22 21
6 7 8 8 9 9 9 10 12 14 16 17 19 19 17 7 9 9 6 7 4 6 5 6 6 6 5 7 7 10 11 11 11 12 15 20 23 24 21 24 21 23 25
5 6 9 9 10 11 12 10 11 13 14 17 18 16 21 21 13 10 8 4 5 6 4 3 5 4 5 5 6 8 9 10 11 11 12 14 17 19 24 28 24 24 23
5 7 8 9 10 11 11 10 10 11 13 14 16 16 17 17 15 15 9 7 3 6 6 6 1 1 2 4 6 8 9 13 13 14 14 14 17 20 19 14 24 17 15
6 7 7 8 9 9 9 8 7 7 8 7 6 7 9 7 9 9 10 9 5 2 5 4 4 3 5 9 10 9 9 11 12 12 15 16 17 17 15 13 9 11 10
6 6 6 6 6 6 6 4 7 7 6 4 1 2 3 2 2 3 3 4 6 3 2 2 2 5 9 9 12 11 9 5 4 10 14 9 6 5 9 7 15 12 9
5 5 5 5 4 3 3 0 4 6 5 3 3 3 2 2 2 2 3 3 2 3 3 3 4 6 6 8 9 8 6 3 2 4 6 9 10 9 7 8 6 7 9
4 5 5 4 3 3 1 2 3 4 4 5 4 4 3 2 2 2 2 2 1 2 3 4 2 3 4 7 6 5 4 3 3 5 4 3 2 3 3 3 5 8 9
3 3 2 2 3 3 2 3 4 5 5 5 5 5 4 4 4 4 4 3 2 2 1 1 1 2 3 6 4 4 4 4 5 6 6 7 8 8 8 9 9 12 14
3 2 2 1 2 3 3 4 5 7 7 7 7 8 7 7 6 6 5 4 3 2 2 2 2 0 1 3 3 4 3 5 5 6 7 7 7 8 9 10 11 12 10
4 3 3 2 3 3 5 7 7 9 9 9 9 10 11 11 9 6 5 4 3 2 1 1 2 2 1 1 2 4 5 5 3 6 7 6 6 6 5 6 7 9 11
6 6 5 4 4 5 7 9 9 9 9 8 8 8 7 5 5 4 5 5 4 1 1 2 2 2 2 2 2 3 5 5 3 4 8 9 7 7 7 7 11 14 15
9 8 7 6 6 7 8 10 11 10 10 10 9 7 5 4 2 2 2 1 4 4 3 0 1 1 2 2 2 3 3 4 5 7 8 6 5 6 6 7 10 11 12
10 11 9 8 7 7 9 10 10 11 11 10 8 6 4 4 3 3 2 2 1 3 3 3 2 0 1 2 3 3 5 7 8 5 4 4 5 6 8 7 10 4 5
12 11 11 10 11 10 9 9 8 8 8 7 5 3 3 3 1 2 2 1 1 2 2 3 4 5 6 7 6 6 6 5 5 2 3 4 5 10 7 4 4 5 6
12 10 12 12 10 9 7 6 6 5 4 4 4 3 3 2 2 2 1 2 3 3 3 3 4 6 5 4 5 3 3 4 3 4 1 5 6 8 6 3 4 8 6

GFSMA_925_spd_063.txt.gz
Wind_Speed
6 6 6 6 7 6 6 6 6 6 6 6 7 7 8 8 8 8 7 11 10 8 8 11 9 9 8 6 4 4 4 6 4 3 3 3 1 1 2 3 4 5 5
7 6 6 6 7 7 7 7 7 7 7 7 7 8 8 8 8 8 9 9 12 10 10 11 12 10 10 9 9 7 7 6 5 5 4 3 3 2 1 1 1 2 4
9 8 7 7 7 7 8 8 8 9 9 8 9 9 9 9 10 10 11 11 10 12 12 12 14 13 13 12 11 11 11 10 8 7 6 6 5 4 3 2 1 2 2
10 8 8 8 8 8 8 8 9 9 9 10 10 10 10 10 12 12 13 13 13 12 12 14 12 15 15 15 15 14 15 14 12 12 9 9 8 7 5 4 3 2 2
10 10 9 8 9 9 10 10 10 11 11 12 12 13 12 13 14 14 15 15 15 15 14 13 16 16 16 18 17 17 17 17 16 15 13 12 10 11 9 8 7 6 5
10 11 10 10 10 12 12 13 14 14 14 15 14 15 16 15 16 16 16 16 16 15 13 15 13 14 14 14 19 20 18 17 17 18 17 15 13 13 12 11 10 8 8
11 11 11 12 13 14 14 15 15 16 17 16 14 14 17 17 16 16 14 15 13 10 10 10 11 11 11 13 14 16 21 20 19 17 20 19 18 17 16 15 14 13 11
12 12 13 14 14 15 16 17 17 17 17 14 6 10 3 11 16 15 10 9 9 10 9 7 7 8 9 9 10 13 15 18 21 20 19 21 23 23 21 18 17 16 15
10 14 16 18 18 19 20 21 19 15 15 16 15 10 3 4 5 5 6 7 9 9 7 6 4 5 7 7 8 9 13 16 19 19 20 20 20 22 23 22 20 18 17
10 10 10 10 13 15 17 19 21 18 18 16 14 18 21 13 3 3 10 10 8 7 6 5 5 5 6 7 8 9 13 13 13 16 17 19 21 21 20 25 25 22 21
7 9 10 11 12 11 11 12 12 12 15 17 18 16 14 14 16 9 5 6 9 8 5 5 3 2 3 3 1 7 7 10 12 13 14 15 18 21 21 20 29 26 24
5 7 8 8 8 8 8 9 10 11 12 14 17 18 16 9 7 8 5 8 6 5 3 3 1 1 2 2 5 6 7 8 9 10 11 11 12 14 13 17 23 30 28
6 6 9 8 8 9 11 11 11 11 13 15 16 19 20 19 16 12 8 5 5 8 2 5 1 2 3 3 3 4 7 8 12 12 13 11 12 15 16 16 18 17 29
5 7 8 8 9 10 11 11 11 12 13 14 16 15 17 21 20 19 13 8 3 6 7 5 3 0 0 2 4 4 6 10 13 13 16 18 17 16 18 18 15 12 17
5 6 7 8 9 10 9 9 9 11 10 8 10 10 10 8 11 10 12 11 5 3 5 5 3 4 2 4 8 7 7 9 8 13 16 15 13 14 11 8 5 8 10
4 4 5 6 7 8 7 6 7 9 9 8 4 2 1 2 3 2 3 3 5 3 2 1 3 4 4 6 9 8 8 4 5 8 10 13 12 6 2 3 9 10 11
4 4 5 5 5 6 5 3 4 7 8 7 6 5 4 2 1 2 3 3 3 4 4 2 3 4 2 5 8 8 6 4 5 5 5 6 4 6 7 7 7 5 3
4 5 5 5 4 4 4 2 2 0 2 1 0 1 1 1 2 2 2 3 2 2 2 4 2 3 5 6 7 5 5 5 4 6 4 5 4 3 3 3 3 3 4
4 4 5 4 4 4 2 1 1 2 3 4 3 3 3 3 4 3 3 2 1 0 1 2 1 3 3 7 4 4 4 6 5 7 7 5 7 10 9 9 9 9 9
5 4 3 3 3 3 4 4 2 3 4 6 6 6 5 5 5 4 5 4 3 2 2 2 1 1 1 3 4 5 4 6 5 5 7 8 7 7 6 6 8 9 8
4 4 3 4 4 3 2 4 5 5 5 7 6 6 9 8 7 5 5 5 4 2 2 1 1 2 2 3 3 4 6 6 4 5 5 4 7 4 5 6 6 6 7
5 5 4 3 2 2 4 5 6 7 6 6 8 8 7 5 5 6 7 6 5 3 1 1 2 3 2 4 3 4 5 6 3 6 9 10 8 7 6 6 11 13 13
7 6 5 4 2 3 5 8 8 8 9 8 7 7 5 3 3 3 4 4 5 4 3 1 1 3 2 2 4 4 4 5 7 9 11 7 6 7 7 7 11 14 10
9 8 6 6 6 4 5 7 8 8 9 8 6 5 3 3 2 3 2 2 3 2 2 2 2 3 2 0 2 3 5 7 9 5 6 4 6 7 9 8 11 8 8
11 10 9 8 7 6 7 6 7 8 7 5 4 3 2 2 2 2 1 1 1 2 3 2 3 3 5 6 6 5 5 6 5 1 2 3 5 12 9 7 7 6 11
12 10 10 9 9 8 7 7 6 3 4 4 4 3 4 3 2 2 1 2 2 2 3 2 4 5 3 3 3 3 4 4 4 5 1 4 7 8 6 3 5 8 10

GFSMA_925_spd_066.txt.gz
Wind_Speed
6 7 7 7 7 6 4 6 5 6 7 6 7 8 8 7 8 8 9 10 10 9 8 8 10 9 8 6 4 2 3 4 3 2 2 2 1 2 3 4 5 6 6
7 8 7 8 8 8 7 7 7 7 7 8 8 8 9 9 9 9 10 11 11 12 10 10 10 12 11 9 7 7 6 6 5 3 2 2 2 1 0 1 2 4 5
8 8 8 8 7 7 8 8 8 9 9 10 10 10 11 11 10 10 12 13 13 13 12 11 12 13 13 14 12 11 11 10 8 8 4 3 4 3 3 2 3 3 4
11 10 9 9 8 8 8 8 9 9 10 11 12 12 12 13 14 11 13 14 16 15 14 12 13 13 14 15 15 14 15 14 12 10 8 6 6 5 5 4 5 5 5
12 12 10 9 9 9 9 9 10 11 12 12 13 14 14 15 15 15 16 16 17 18 17 15 15 15 15 16 17 16 16 15 16 14 12 10 9 7 7 7 6 6 7
12 12 11 10 9 10 11 11 12 13 15 15 16 19 18 20 19 19 21 18 16 15 14 11 12 15 13 13 13 15 17 17 16 17 17 14 12 11 10 10 10 9 9
12 12 12 11 10 12 12 12 13 15 17 17 18 20 20 19 19 23 21 18 15 10 10 12 10 10 11 10 9 11 12 15 19 16 15 19 18 16 14 14 14 13 12
14 11 11 12 12 12 14 15 15 16 17 16 9 9 3 7 16 19 19 12 8 8 7 7 6 6 7 8 8 8 9 12 13 16 16 16 18 21 21 21 18 17 16
12 13 14 14 16 17 18 18 18 18 18 19 17 11 3 3 3 1 5 6 6 7 6 6 8 6 9 9 9 9 11 12 13 15 13 14 15 17 18 23 23 21 21
14 15 16 15 16 16 17 20 21 19 18 15 15 18 21 18 3 3 7 4 4 6 6 7 7 3 3 4 6 8 9 10 9 11 10 10 12 14 17 17 23 25 25
9 9 10 10 11 12 12 12 13 13 14 15 16 18 17 18 20 9 5 9 10 8 8 8 4 5 2 5 6 7 6 6 7 9 9 10 10 11 10 11 17 23 31
6 7 8 7 8 9 10 10 9 10 11 12 12 15 17 12 5 9 3 9 8 6 6 8 10 7 5 5 2 3 3 5 7 10 10 9 7 9 12 11 8 7 12
7 7 9 8 8 9 11 11 12 12 12 12 13 16 17 20 22 16 14 7 7 11 5 7 6 4 5 3 0 1 4 6 6 10 11 12 14 13 16 16 14 13 15
6 9 10 8 8 10 11 11 11 12 11 13 12 12 13 14 17 19 16 10 2 7 8 5 5 5 4 3 0 2 6 8 7 10 12 16 15 13 11 10 8 8 12
11 11 8 7 8 9 9 9 9 8 7 9 12 12 12 13 13 14 15 13 9 3 5 5 6 5 3 3 4 5 7 4 8 9 11 13 11 6 6 6 2 2 1
8 7 7 7 7 8 7 7 7 8 9 10 8 6 3 2 3 5 4 6 6 3 2 2 3 3 1 3 4 7 6 3 3 7 8 9 8 7 5 5 8 7 8
9 7 7 7 7 7 5 3 5 7 7 8 7 7 5 3 4 4 2 3 4 4 2 2 2 2 2 3 6 5 4 3 2 5 6 6 6 6 6 7 9 9 8
8 8 7 6 6 6 5 3 3 2 5 4 3 4 4 4 5 5 1 2 3 2 3 4 4 1 4 4 5 3 4 4 4 5 4 4 4 2 2 3 2 1 1
7 6 5 5 7 7 6 6 4 4 5 6 6 6 5 5 5 5 6 5 3 2 3 3 3 1 3 6 3 4 3 9 8 8 8 6 5 5 5 5 6 5 5
7 5 6 6 6 6 6 6 7 7 6 6 5 6 7 6 4 3 3 4 4 4 5 5 3 2 1 4 3 5 5 4 4 5 5 6 8 6 6 6 4 4 4
6 8 8 6 6 5 5 5 6 7 6 6 4 4 4 6 7 7 7 6 4 4 5 4 3 3 1 2 2 3 3 4 1 4 6 2 5 5 3 3 5 6 6
8 8 6 5 4 4 5 6 7 8 9 9 9 9 7 5 6 7 7 6 5 5 4 4 4 5 4 3 3 1 3 3 1 3 10 12 3 5 3 6 9 11 10
8 8 6 6 5 4 5 7 8 10 11 11 11 9 6 5 3 4 5 6 7 6 4 2 2 4 4 1 2 1 1 2 3 7 9 3 3 5 2 6 9 10 5
9 9 7 6 6 5 6 8 9 9 10 9 9 7 4 4 4 4 3 3 5 3 3 2 3 3 2 2 2 1 3 5 6 3 3 1 5 8 9 6 7 7 5
10 10 8 9 7 6 7 8 9 10 10 8 7 6 3 2 2 3 2 2 4 0 2 0 2 3 4 5 6 6 4 4 2 2 1 3 3 11 9 3 5 5 8
12 10 10 10 9 10 10 7 7 6 7 5 5 4 6 4 2 1 3 1 2 2 2 2 3 3 3 2 3 4 5 4 2 2 0 3 5 7 5 0 2 5 8

GFSMA_925_spd_069.txt.gz
Wind_Speed
9 9 8 8 5 4 5 5 4 4 7 6 6 7 7 7 7 8 9 9 10 10 8 7 9 8 8 7 6 6 4 3 2 1 1 1 2 3 3 5 5 5 6
10 12 10 9 8 7 7 7 7 7 7 7 8 9 9 10 10 10 10 12 12 12 11 10 9 11 12 11 9 8 9 8 6 5 2 2 2 3 3 3 4 5 6
12 10 11 11 11 11 10 9 8 8 7 8 10 11 10 12 13 13 12 14 15 14 13 11 10 10 12 14 14 14 12 12 10 7 4 3 3 3 3 3 4 4 6
15 13 13 11 11 10 9 10 10 10 9 9 10 11 11 12 13 15 15 15 16 16 17 15 12 11 13 12 15 16 15 15 14 12 9 7 6 4 4 5 5 5 6
15 15 14 12 12 11 10 10 8 9 10 11 11 12 13 15 17 15 17 17 17 18 18 16 13 13 12 13 13 15 17 16 15 17 14 12 10 8 7 7 8 7 8
15 14 14 13 12 12 11 10 10 11 12 13 15 17 19 20 20 21 23 23 20 16 15 13 10 11 11 9 11 12 12 15 15 14 17 17 14 12 11 11 11 11 10
14 15 15 13 12 13 12 11 11 11 14 15 14 15 17 17 20 17 21 22 21 12 8 5 7 8 7 7 9 8 10 12 12 13 14 16 20 18 16 15 14 14 14
15 17 16 15 15 13 13 14 14 16 16 16 14 13 3 7 11 14 15 15 12 6 4 5 6 6 7 8 9 9 11 12 13 13 11 12 14 20 20 20 20 19 17
16 14 15 15 16 16 16 15 16 18 18 19 18 9 2 3 2 2 1 4 6 7 5 5 7 6 7 9 8 10 9 11 11 11 10 9 10 11 12 18 25 22 20
17 16 17 17 17 18 19 19 19 19 18 17 18 20 18 13 2 3 4 4 3 6 8 9 9 7 8 6 5 6 7 7 8 8 8 8 9 9 10 10 12 18 25
18 18 16 16 14 14 13 13 13 12 13 14 13 14 13 14 16 7 3 7 10 9 7 7 9 9 7 5 5 6 5 4 5 6 8 8 8 8 8 8 9 8 15
14 12 10 10 10 9 10 10 11 10 10 11 12 13 13 9 5 8 4 6 7 14 8 6 10 11 8 4 3 3 2 2 5 8 10 10 10 11 11 10 10 9 8
14 11 11 9 8 9 9 10 11 12 12 12 13 14 14 18 19 20 16 8 8 10 4 8 9 8 5 3 2 3 3 4 5 7 11 13 13 13 13 11 9 9 12
14 13 12 8 10 9 10 11 12 12 12 12 13 14 14 14 14 15 17 12 2 7 8 7 8 6 5 4 2 3 4 7 5 7 9 13 13 8 7 6 5 6 5
13 12 11 11 10 9 10 11 11 10 10 10 11 10 14 13 13 16 16 16 9 2 4 9 6 6 4 3 2 2 4 4 5 7 9 9 10 11 8 4 2 2 3
13 12 10 9 8 8 9 9 9 9 9 9 9 9 9 7 7 7 8 10 11 10 3 4 4 8 5 2 2 6 5 3 2 2 4 7 6 5 6 8 9 7 8
11 9 7 8 8 8 8 8 10 11 10 10 9 10 9 7 7 5 3 3 4 5 3 3 6 8 5 2 5 6 4 3 2 0 2 3 4 6 6 6 8 9 9
7 7 7 7 8 9 7 8 9 9 9 8 9 9 8 7 8 7 7 7 8 5 6 5 8 6 3 5 4 2 1 1 1 2 1 1 2 3 1 1 2 3 2
7 7 8 8 9 9 8 8 8 8 9 10 10 9 10 11 10 9 8 9 8 6 5 5 5 5 2 3 4 3 4 2 4 2 1 3 2 1 2 2 3 3 3
7 8 8 9 9 8 8 9 9 9 9 8 8 8 9 8 5 5 5 7 5 3 3 6 4 4 3 2 0 3 5 2 2 0 0 1 2 2 2 2 1 1 1
10 9 9 8 7 8 9 9 10 10 11 9 7 6 5 6 6 6 6 6 6 6 6 7 6 5 5 5 2 3 2 1 2 1 2 1 3 2 1 1 3 5 6
10 10 9 8 7 7 8 8 10 11 10 10 10 8 7 6 7 5 6 6 6 6 8 7 6 5 4 5 4 3 1 1 2 2 6 6 0 1 1 1 4 6 7
10 10 9 8 8 6 5 6 9 11 11 11 11 11 8 6 5 8 8 7 7 4 5 9 7 7 7 5 6 4 2 2 2 4 6 0 1 1 1 2 4 5 3
11 10 9 9 9 6 7 8 9 10 11 10 11 9 6 6 5 4 6 6 5 4 3 3 5 4 3 3 4 2 2 2 4 2 1 2 3 3 6 4 1 3 4
12 11 10 10 10 8 8 9 11 11 12 12 10 9 6 6 5 4 5 6 5 4 3 3 3 2 3 4 5 5 5 3 2 1 1 3 2 7 5 1 2 1 3
13 13 12 12 11 10 8 9 9 11 12 12 10 7 5 7 6 5 6 5 6 7 5 2 3 3 3 3 3 4 5 4 4 1 1 3 3 5 3 1 2 4 6

GFSMA_925_spd_072.txt.gz
Wind_Speed
13 11 11 10 8 10 9 9 8 7 7 6 6 7 7 6 6 7 8 8 9 8 8 7 8 9 9 9 8 7 5 4 4 4 2 2 2 2 2 3 3 4 5
12 12 12 12 11 10 9 8 8 8 7 7 7 8 8 8 9 11 11 10 11 10 9 9 8 9 11 12 13 11 9 8 6 4 3 2 2 3 3 3 3 3 4
14 11 13 12 12 10 9 9 8 8 8 7 8 10 10 10 12 13 15 15 14 13 13 12 10 8 8 11 14 14 14 14 11 9 6 5 4 3 4 4 5 4 5
16 14 14 13 11 11 11 10 10 10 10 10 10 9 10 12 12 13 13 15 15 15 15 17 13 13 11 12 13 14 15 14 16 14 12 10 8 6 5 6 7 6 7
18 17 15 13 12 12 12 11 10 9 10 10 12 12 13 15 16 17 18 17 17 16 17 16 17 13 12 11 12 12 13 13 13 15 17 15 12 11 9 9 9 9 10
20 18 16 14 13 13 12 12 12 11 13 13 14 17 18 20 21 22 23 20 20 18 16 14 10 12 10 9 8 10 12 11 10 11 14 18 17 15 13 11 11 12 13
21 18 17 16 15 15 13 13 13 13 14 15 14 17 19 20 21 23 23 20 18 16 15 11 9 8 8 9 8 8 9 10 10 9 9 12 16 20 18 16 15 15 15
21 18 18 18 16 16 15 14 14 14 15 16 13 16 3 9 16 16 14 15 8 8 10 9 7 8 8 9 10 10 8 10 11 10 8 8 7 11 20 21 20 20 20
22 20 20 19 18 17 16 13 13 14 17 19 17 6 3 3 3 3 3 3 4 8 8 8 8 8 9 10 9 9 9 9 11 11 7 7 7 6 8 10 17 27 24
22 23 20 19 18 17 17 18 17 16 16 18 19 16 15 13 3 3 4 4 2 4 7 9 9 10 8 8 7 5 5 6 6 5 7 7 7 7 5 5 5 8 16
22 19 19 20 20 18 19 19 19 16 14 14 13 12 11 12 12 7 4 7 6 5 6 8 10 10 9 7 5 4 4 4 4 5 7 9 9 10 9 10 9 10 9
20 18 17 18 16 16 15 15 15 14 13 13 13 14 13 8 4 3 3 7 7 4 5 8 12 12 9 6 4 3 3 1 2 5 8 10 12 12 10 9 9 11 11
19 16 13 13 13 15 15 14 14 13 15 15 15 16 16 17 15 16 15 8 6 7 4 9 11 10 8 7 5 4 4 3 5 7 9 11 12 12 13 11 9 8 8
23 20 17 15 14 15 13 12 13 14 15 16 16 16 17 16 16 17 18 11 3 8 10 6 11 11 8 8 7 5 3 5 8 6 8 9 9 11 7 4 3 2 4
17 18 20 17 15 13 13 12 13 14 14 14 13 13 16 16 19 19 18 16 11 3 4 8 6 11 10 8 6 3 3 4 4 4 5 5 4 4 14 8 4 1 3
17 15 14 14 13 12 12 13 12 12 13 13 12 13 13 13 12 11 12 14 13 9 3 5 5 12 12 8 4 2 5 8 2 1 1 3 3 2 2 5 6 4 8
15 14 14 13 11 9 10 11 11 11 12 13 13 13 13 11 11 11 7 6 7 8 3 3 6 11 10 6 3 3 7 6 2 1 2 2 1 1 2 1 2 4 5
12 11 12 12 10 9 9 10 11 11 12 11 12 12 12 10 11 11 9 7 6 5 2 4 9 9 7 5 3 5 4 2 2 3 0 2 4 4 1 1 1 2 2
10 11 11 12 10 10 10 9 9 10 10 10 10 10 12 10 11 10 9 9 7 8 5 6 7 8 5 4 3 5 5 4 4 3 2 1 1 0 2 0 2 3 2
11 12 11 11 10 10 10 9 9 9 9 9 10 10 12 11 12 10 7 6 7 7 6 6 5 5 4 4 2 4 6 5 4 3 4 4 2 2 1 1 0 1 2
11 11 11 11 9 9 9 10 9 9 9 9 9 9 7 5 6 7 6 6 8 7 6 8 5 3 5 5 6 7 7 5 5 4 4 6 5 4 3 3 2 4 5
12 12 12 10 10 9 10 10 10 11 12 12 9 8 6 6 5 4 5 5 7 8 9 9 8 6 7 7 7 7 5 4 3 5 2 4 2 2 3 3 2 5 5
12 12 11 11 10 10 9 8 8 10 12 11 10 10 9 8 6 6 6 6 2 5 9 10 10 8 8 8 8 7 6 5 3 3 3 2 2 1 3 2 2 3 2
14 13 12 11 11 10 7 8 9 10 11 11 11 11 9 8 8 7 5 6 4 3 3 3 5 6 5 6 6 5 5 4 3 3 1 1 2 2 4 4 4 1 2
14 14 12 12 12 10 10 9 10 11 12 12 12 12 9 8 6 6 7 6 6 4 3 2 3 3 3 3 5 5 5 4 3 4 2 0 1 2 2 4 7 4 3
15 13 13 13 13 12 10 9 11 13 14 15 14 12 10 9 8 7 7 6 7 6 6 4 4 4 3 4 6 6 7 7 4 2 3 1 1 2 1 4 5 5 5

GFSMA_925_spd_075.txt.gz
Wind_Speed
14 12 11 10 8 10 9 9 7 6 7 6 6 6 6 6 7 7 7 7 7 8 8 8 8 8 8 8 9 8 6 5 5 5 4 3 2 1 1 1 1 2 2
14 13 12 12 10 9 8 8 8 8 7 8 8 9 8 9 8 9 10 11 11 10 10 9 9 8 9 10 12 12 11 10 8 6 5 4 3 3 4 4 3 3 3
16 14 13 13 12 11 10 10 9 9 9 8 8 8 11 10 10 10 13 16 15 15 14 13 13 10 10 9 10 12 13 14 13 11 9 7 6 5 6 6 5 5 5
19 16 14 14 11 12 11 11 10 9 9 9 10 9 9 11 14 14 14 15 15 15 16 16 16 16 12 11 11 11 12 10 12 17 15 13 10 9 7 7 8 8 7
21 19 16 13 13 13 12 11 10 9 9 9 9 13 13 15 16 18 21 19 19 19 17 15 15 15 14 12 13 12 10 10 9 9 15 17 15 13 11 11 10 10 10
25 22 19 15 15 14 13 13 13 12 11 11 12 15 17 18 19 20 22 23 21 17 15 16 14 12 14 12 12 12 11 10 8 6 8 11 17 18 15 14 12 13 13
26 23 20 17 16 15 14 15 15 13 13 13 12 16 18 18 21 23 22 23 21 18 17 14 15 11 11 9 9 9 9 9 7 7 6 7 7 14 20 19 17 16 16
27 25 21 19 17 17 16 15 13 11 12 13 9 8 4 11 15 14 13 12 9 8 8 8 9 8 8 6 9 8 9 9 6 7 8 8 7 7 8 18 20 21 20
26 28 23 18 18 18 18 14 14 12 13 14 14 7 2 3 3 10 7 6 5 5 6 8 9 9 8 7 8 7 8 7 5 6 5 6 7 7 7 7 8 13 21
23 26 22 20 17 16 14 16 15 17 18 18 16 14 16 12 3 4 4 2 2 4 6 8 10 10 9 8 8 7 5 3 5 5 6 6 8 9 8 7 7 9 8
19 21 21 16 12 16 20 22 19 20 20 18 15 11 9 12 14 8 5 6 6 6 8 10 12 12 11 9 7 6 5 4 3 4 6 8 10 11 12 12 13 12 11
18 18 18 20 16 20 23 20 16 16 15 15 15 14 14 7 3 7 3 6 5 6 7 9 11 12 10 8 7 6 5 4 3 4 7 10 12 13 12 11 11 10 10
15 21 20 18 17 20 19 17 16 15 14 15 14 16 15 16 15 13 13 7 7 10 7 8 11 11 10 9 7 6 5 3 4 7 9 9 11 14 14 10 9 9 8
21 21 18 14 11 11 11 12 12 13 14 14 15 16 16 16 14 15 12 10 5 9 11 6 12 12 11 11 11 8 5 5 4 9 10 8 7 10 12 4 2 2 6
21 19 17 15 13 11 11 13 11 13 14 13 14 13 14 13 13 16 16 17 8 3 3 8 7 13 12 10 10 7 6 6 4 6 6 4 4 4 8 14 8 7 6
22 20 19 18 15 13 12 13 13 13 14 14 13 12 13 13 13 13 10 13 14 13 5 5 8 10 13 12 10 7 4 4 4 3 0 0 1 4 4 6 5 2 2
13 14 13 12 11 12 12 13 14 14 14 14 13 13 13 13 12 11 9 10 8 8 5 4 6 10 13 11 8 5 4 5 8 3 4 3 2 1 0 1 1 1 2
14 13 12 10 10 11 12 13 13 14 14 14 13 13 13 11 11 11 10 10 9 7 3 4 6 12 8 9 6 4 3 7 5 3 3 4 4 1 1 2 2 2 2
11 10 9 9 10 11 11 11 12 12 13 13 11 11 9 9 9 9 8 8 7 6 4 5 7 12 7 9 7 5 5 5 5 4 3 2 1 2 2 3 4 4 2
11 11 10 10 10 10 10 10 10 11 11 10 9 8 10 11 11 10 9 9 7 7 9 6 7 7 7 8 6 5 5 5 6 5 4 4 4 2 2 0 2 3 3
11 11 10 10 9 9 8 8 10 11 10 11 9 9 10 9 9 8 8 10 10 11 8 9 6 6 7 6 7 6 8 7 6 5 5 6 6 6 5 5 4 5 5
10 10 9 9 9 9 9 9 11 11 13 13 12 10 9 7 7 7 9 9 8 7 8 8 7 5 6 5 7 8 7 5 3 6 4 6 5 5 5 5 4 4 4
10 10 10 10 10 10 10 10 10 10 11 13 12 10 8 7 6 6 5 6 6 8 9 10 10 9 8 8 9 8 8 6 3 3 3 4 4 4 5 5 4 3 1
12 11 11 11 11 10 9 9 9 10 10 11 11 10 9 8 7 7 5 5 3 2 2 5 7 7 5 7 7 6 7 6 4 3 3 3 5 4 6 6 6 3 2
13 11 11 11 11 10 9 9 11 9 10 11 11 10 9 9 8 7 7 6 5 3 3 4 5 5 4 5 4 5 6 6 3 4 5 3 3 3 4 6 9 7 5
13 10 11 11 11 12 10 10 12 12 12 12 11 11 10 7 6 5 6 7 7 6 5 4 5 5 4 4 4 5 6 7 4 3 6 3 3 1 2 5 7 8 6

GFSMA_925_spd_078.txt.gz
Wind_Speed
13 13 11 10 10 11 10 10 8 7 6 5 4 4 4 4 5 6 6 6 6 7 7 7 7 7 6 8 7 7 7 6 6 5 5 4 3 2 2 2 0 1 1
14 14 12 12 10 10 9 10 9 7 6 6 5 6 5 5 6 6 6 8 9 10 10 11 9 9 9 9 10 9 11 10 10 8 7 6 6 4 4 4 3 2 1
16 14 13 13 12 10 10 10 9 8 8 8 7 6 7 7 6 7 9 12 12 12 13 13 13 13 12 9 10 9 9 11 13 13 11 11 9 8 6 5 5 4 3
19 16 14 14 13 13 13 12 11 10 8 8 8 7 7 7 9 10 12 13 16 15 14 13 15 15 14 13 12 10 10 8 10 11 16 14 13 10 9 8 6 7 6
21 20 18 15 14 14 14 12 11 10 8 8 8 8 10 10 14 15 16 17 18 18 17 17 15 14 14 14 13 11 9 9 8 8 8 11 16 15 13 11 9 8 9
25 22 21 18 16 16 15 14 12 11 11 9 10 11 14 15 16 16 17 19 20 20 18 15 15 15 12 13 12 11 9 7 6 5 6 6 7 14 18 16 13 11 11
25 26 24 21 18 18 16 14 13 13 12 10 11 13 14 16 18 19 18 18 15 15 14 14 14 13 11 11 11 10 8 6 4 5 5 7 7 6 7 18 19 16 14
27 27 27 24 21 18 16 15 14 11 10 8 5 5 3 7 8 4 6 12 7 4 4 7 7 7 9 10 9 8 9 7 6 5 4 5 6 8 8 9 10 20 18
20 22 26 25 22 17 17 13 11 11 9 9 10 5 2 3 3 9 6 8 6 6 6 7 8 9 10 10 8 8 8 7 4 1 3 4 6 7 8 7 7 4 3
17 18 23 22 23 16 13 11 10 12 14 13 13 12 14 9 2 4 2 3 3 3 3 6 8 9 10 10 8 8 6 4 1 1 4 5 6 9 10 10 9 7 7
7 13 15 18 16 8 5 7 10 13 12 13 13 12 7 9 11 6 4 4 3 8 6 7 10 10 11 11 9 8 7 5 4 1 3 6 7 9 10 11 12 12 10
11 15 13 9 7 13 11 15 12 11 19 16 13 12 11 6 4 6 4 5 6 7 5 7 11 12 11 11 10 9 7 5 3 3 3 5 8 10 12 12 10 10 9
19 22 21 17 16 13 20 19 16 13 12 10 9 10 11 12 12 10 8 5 6 7 8 8 11 13 13 11 11 9 8 8 6 3 5 9 6 8 15 8 6 6 8
27 21 17 17 17 17 15 15 10 8 8 10 11 11 13 13 13 13 10 7 4 8 10 8 12 13 13 13 12 11 8 9 7 5 5 9 12 4 12 6 2 1 3
19 19 22 20 17 16 16 13 12 10 9 10 11 11 13 12 12 11 11 14 6 3 3 8 8 13 14 13 12 10 8 6 6 6 4 3 2 2 4 8 8 6 5
17 19 19 16 17 17 13 9 8 8 8 9 9 10 10 10 11 11 13 11 11 12 5 4 9 10 14 13 12 9 9 7 5 4 3 4 1 5 4 5 5 3 2
15 14 13 13 13 9 8 8 6 6 7 8 9 10 11 11 11 10 10 10 10 11 6 5 8 10 13 13 11 10 7 5 5 4 6 5 4 3 3 2 1 1 2
11 13 15 13 10 9 7 6 6 5 6 7 9 10 11 10 9 9 9 11 10 9 5 3 6 9 11 11 9 8 6 5 6 7 6 6 4 1 4 2 1 1 1
13 13 13 12 11 8 7 5 5 5 7 8 9 9 9 8 7 8 8 8 9 8 7 6 7 8 10 12 11 9 8 5 5 6 4 3 3 3 3 4 4 2 0
11 11 10 9 7 6 5 4 4 5 6 7 7 7 6 8 10 11 11 10 10 9 8 6 7 8 10 9 11 9 7 7 8 7 6 5 4 2 2 1 2 5 6
11 11 10 9 7 6 4 3 3 6 7 7 9 8 8 9 10 9 9 9 9 9 9 9 8 7 7 7 10 7 8 8 8 8 8 7 6 6 6 4 3 4 4
12 11 10 9 7 6 5 5 5 5 5 8 10 10 8 7 7 7 7 10 10 9 10 10 10 7 9 8 8 8 8 6 3 8 6 6 6 7 6 5 4 4 4
13 12 10 9 8 7 6 6 5 6 7 6 8 10 9 7 6 5 6 5 5 7 8 9 8 9 7 9 8 9 9 6 3 3 3 4 5 5 5 5 4 2 1
15 14 12 10 9 8 7 7 5 6 7 7 8 9 9 8 6 6 5 4 3 1 3 8 9 10 7 7 7 7 7 6 4 5 4 2 4 4 6 5 5 3 2
17 16 13 12 11 9 8 6 9 7 6 7 8 10 10 9 7 8 7 6 4 2 1 2 4 4 4 5 4 5 6 6 3 3 4 2 2 3 4 5 7 7 5
17 15 13 12 11 10 9 9 11 9 8 8 9 10 10 8 8 8 7 7 7 6 6 4 5 5 5 4 4 5 6 7 4 1 6 4 3 1 1 3 7 8 6

GFSMA_925_spd_081.txt.gz
Wind_Speed
15 14 14 12 12 11 11 10 9 8 8 6 5 4 3 3 3 3 3 3 3 4 5 6 6 6 7 6 7 7 6 6 6 6 6 5 5 4 3 2 2 1 2
15 15 14 13 12 12 12 11 10 8 7 7 6 5 5 4 5 5 4 5 6 8 9 10 11 9 10 10 9 8 10 9 9 8 9 9 7 6 5 4 3 2 2
18 16 16 15 13 11 12 11 11 10 8 8 7 6 5 6 5 5 6 9 10 9 10 12 13 12 11 12 11 8 8 7 9 11 13 11 10 8 7 6 4 4 3
20 18 17 16 14 14 13 12 12 11 9 8 7 6 6 6 6 9 10 11 12 14 14 13 14 13 14 13 13 10 7 6 8 7 9 14 15 13 10 7 6 5 5
23 22 19 16 14 15 15 14 13 12 11 9 8 7 8 9 10 12 13 14 15 16 16 15 13 13 14 14 15 11 8 7 8 6 5 5 9 15 15 12 9 7 8
23 24 22 18 16 15 15 15 14 13 11 9 8 8 9 12 12 14 14 15 16 17 17 16 15 13 13 13 13 12 9 8 6 5 4 4 5 6 13 16 15 13 11
28 28 26 23 20 18 18 17 15 14 14 12 8 7 9 12 15 13 13 11 8 13 11 10 12 13 11 11 12 10 8 6 6 5 4 3 4 3 4 4 10 20 16
30 31 32 29 24 22 20 19 18 15 12 8 4 1 2 5 3 5 12 11 13 5 5 5 6 7 9 9 10 9 8 6 5 5 4 4 3 4 4 5 7 8 20
24 26 30 28 27 26 23 22 21 17 13 9 7 4 1 2 3 5 6 10 7 8 9 7 7 6 7 10 9 8 7 7 5 3 1 1 2 5 6 7 7 5 2
26 23 23 18 16 19 19 17 17 15 11 9 6 9 10 8 3 4 0 1 5 6 5 7 8 8 9 10 9 8 6 7 4 2 2 2 3 6 8 9 11 8 5
17 22 21 11 6 8 6 3 1 2 5 7 6 5 6 6 6 6 5 3 4 6 10 8 9 11 9 9 8 7 5 4 3 3 1 2 6 9 11 12 13 12 11
21 24 19 17 17 14 10 8 7 11 12 11 10 8 8 3 3 5 5 6 7 6 5 8 9 11 11 11 10 9 8 8 6 4 1 4 8 9 11 16 14 12 11
26 21 19 16 12 14 16 21 20 19 18 15 11 9 6 10 10 8 7 7 5 8 7 12 12 12 12 10 10 11 10 8 8 6 3 2 9 11 12 12 7 7 8
24 19 20 18 13 16 21 22 23 22 15 12 9 8 8 8 10 10 9 7 5 7 10 11 10 10 12 12 11 12 9 10 10 8 6 9 10 6 4 14 4 0 1
19 20 20 17 16 23 22 19 16 15 13 10 8 8 9 9 10 10 12 12 8 4 2 7 6 9 11 12 13 11 9 9 10 9 7 9 8 4 1 2 3 3 5
15 17 19 19 21 18 17 16 14 12 10 7 8 8 8 8 7 9 10 11 11 10 4 3 8 10 9 12 12 12 11 9 7 5 3 6 6 2 1 1 1 3 3
12 15 18 20 19 18 15 14 13 10 9 9 8 8 8 8 8 9 10 11 11 12 10 7 9 12 12 13 12 11 10 9 7 4 4 6 5 3 1 3 3 3 3
11 14 17 18 18 18 16 13 11 10 9 8 7 7 7 8 7 8 9 11 11 12 9 6 6 7 10 12 12 10 9 8 5 3 2 7 6 5 4 1 5 4 3
13 16 18 19 19 17 15 12 10 8 7 6 6 6 7 6 7 6 7 8 9 10 10 8 6 7 9 11 12 11 10 7 4 4 4 4 2 5 5 4 4 3 2
15 18 18 18 17 14 12 11 10 8 5 5 4 3 4 5 5 7 9 10 10 10 10 9 8 8 9 9 12 12 9 8 6 5 7 6 6 3 2 1 2 4 6
13 14 15 15 14 13 12 10 7 5 2 1 4 5 5 5 7 8 9 9 9 10 10 9 7 6 7 7 10 9 9 7 6 8 8 8 8 7 7 5 4 4 4
14 15 14 13 12 11 9 9 8 6 5 4 4 7 8 7 6 7 8 8 9 10 11 10 11 8 11 9 9 9 7 5 3 10 8 8 8 8 7 6 4 4 5
14 15 14 13 13 13 12 11 9 9 8 7 6 5 9 9 8 7 6 5 6 8 9 10 10 10 8 10 9 10 9 6 4 4 5 4 7 6 6 6 4 2 1
18 17 16 15 14 12 12 11 10 9 8 8 8 8 10 10 9 8 7 6 6 5 6 9 10 10 10 9 10 9 9 8 7 6 5 3 4 4 5 5 4 3 2
19 19 18 16 15 14 14 13 12 11 9 8 9 11 12 12 10 9 9 8 7 5 3 2 3 7 8 8 8 9 10 9 5 4 7 4 3 4 4 6 7 7 5
22 18 17 17 15 14 15 15 16 13 11 10 10 11 12 12 11 11 10 10 9 9 8 7 6 6 6 6 7 7 8 9 4 3 8 7 5 5 3 4 7 9 7

GFSMA_925_spd_084.txt.gz
Wind_Speed
15 15 14 13 12 11 11 10 9 9 8 8 7 7 6 6 5 5 4 5 4 4 5 6 8 8 8 7 7 7 5 5 5 6 5 5 5 5 4 4 3 2 1
14 13 12 12 12 11 11 11 10 10 9 9 8 8 8 7 7 6 6 6 7 8 9 10 11 11 10 10 12 11 9 8 9 10 8 8 7 7 6 5 4 4 3
13 12 12 12 11 11 11 10 11 10 9 8 8 8 7 7 8 7 7 7 8 9 8 10 13 13 13 11 13 10 10 7 8 10 10 12 12 9 9 7 6 6 5
13 13 12 12 11 11 11 12 11 10 10 9 9 8 8 7 7 8 8 9 9 10 12 13 13 14 15 14 13 11 9 7 7 5 7 11 13 13 12 11 9 8 7
15 15 13 13 13 12 12 12 12 12 11 10 9 9 8 7 9 9 10 10 11 12 12 14 16 15 13 14 14 14 8 8 7 6 6 7 8 10 14 14 13 11 10
17 17 15 15 14 14 14 14 14 13 12 11 9 8 9 9 9 10 10 10 10 11 10 11 10 10 13 13 13 11 10 9 7 6 6 6 6 6 7 11 15 16 14
16 17 17 17 16 16 16 17 16 14 13 11 8 10 10 9 11 11 7 5 4 8 6 5 6 6 7 10 11 11 9 7 5 6 6 5 5 5 5 4 5 8 19
18 18 18 17 17 17 17 17 17 14 14 14 9 5 4 5 3 6 7 6 6 6 4 4 5 5 4 3 5 8 7 5 4 5 5 4 3 3 4 5 7 8 9
16 18 20 23 23 21 15 16 18 19 17 16 17 7 3 4 3 6 4 6 5 5 6 5 3 4 4 4 4 7 7 5 4 4 3 2 2 4 6 8 10 10 11
10 16 20 20 20 22 26 22 19 14 16 15 15 12 7 6 4 4 2 3 3 6 6 6 5 5 6 5 7 8 7 6 5 4 4 1 2 5 7 9 12 13 12
11 14 15 11 12 20 22 15 10 7 8 9 10 8 6 4 5 8 6 6 4 7 7 8 7 4 5 6 4 6 6 6 6 6 3 2 3 7 9 11 15 14 15
18 16 16 18 25 24 23 21 18 10 8 7 9 12 13 8 7 6 6 7 6 9 6 6 7 6 8 6 8 8 7 9 7 7 5 3 4 8 11 16 14 11 12
26 26 24 24 28 27 25 22 16 16 19 20 19 20 18 13 10 11 8 5 5 5 5 7 7 6 7 5 6 10 10 9 9 6 5 3 8 8 10 14 10 7 7
35 35 31 30 30 30 23 23 21 22 20 20 18 17 13 11 10 9 6 6 4 8 10 13 4 5 5 5 9 9 9 11 9 8 7 9 10 8 6 4 10 5 3
26 27 29 30 30 26 23 21 21 22 21 20 18 16 14 11 11 9 8 9 9 3 5 7 6 4 4 5 8 9 9 8 8 8 8 8 8 9 3 3 5 4 5
15 17 23 28 26 23 20 19 18 18 19 18 16 13 12 9 8 7 8 10 12 12 5 5 4 6 7 6 9 10 11 9 7 7 6 6 7 6 3 3 2 4 4
14 17 19 23 22 20 20 19 18 18 18 16 15 12 11 10 7 8 8 9 10 11 11 8 10 10 10 10 10 11 10 10 9 7 5 5 5 5 4 3 2 3 5
10 13 17 20 20 20 20 21 22 21 18 16 14 13 11 10 10 9 9 10 11 10 11 9 9 9 9 9 10 10 10 9 8 6 3 3 4 4 5 5 3 3 5
9 12 15 18 21 23 22 21 20 19 17 14 14 13 11 10 10 9 9 10 9 11 11 7 5 7 9 8 9 10 10 9 8 6 3 3 3 4 4 6 5 3 3
8 11 13 16 18 20 21 19 17 16 14 13 12 11 10 10 10 10 10 10 9 9 9 8 8 7 8 7 9 11 11 11 9 7 6 7 5 6 7 7 4 4 6
9 11 14 15 17 17 17 19 18 14 12 11 9 9 10 10 11 9 9 11 10 10 8 8 6 5 6 6 8 9 11 10 10 9 6 6 5 5 5 6 4 4 5
11 11 13 14 15 17 18 18 16 14 12 11 10 8 8 11 12 13 13 12 10 9 8 8 7 7 8 8 10 10 9 6 4 7 6 8 8 6 7 6 6 5 5
14 15 13 13 16 15 19 18 16 12 13 12 12 12 11 13 13 10 9 9 9 9 10 9 9 9 8 11 10 10 11 8 5 4 5 6 6 6 7 7 6 3 2
17 19 18 17 15 15 19 19 18 14 16 15 15 13 14 14 14 13 10 8 5 5 7 8 8 7 9 7 9 8 7 6 4 6 7 3 5 5 6 6 6 4 3
17 20 20 20 19 17 21 20 18 16 13 13 12 13 12 14 14 13 11 9 6 5 5 5 7 9 11 11 9 7 7 7 5 5 8 3 4 4 4 4 5 7 5
22 19 21 22 21 19 21 21 20 16 14 10 9 11 15 14 14 13 12 11 10 9 8 6 4 4 5 6 8 6 6 7 4 3 5 5 5 4 2 4 5 7 6

GFSMA_925_spd_087.txt.gz
Wind_Speed
18 17 15 16 14 13 12 11 10 10 9 9 8 8 7 6 6 5 4 5 5 5 5 6 8 9 9 10 8 8 6 5 5 4 4 4 5 5 5 5 5 4 3
16 15 14 14 13 12 11 11 11 10 10 9 9 9 8 7 7 6 6 7 6 7 7 10 11 11 11 10 12 12 10 9 8 8 7 8 7 6 5 6 6 6 6
15 14 13 13 12 12 11 11 10 10 10 10 10 10 9 8 8 7 7 6 6 8 9 9 11 12 13 12 13 13 10 9 9 9 9 8 9 10 10 7 7 6 6
14 14 14 13 12 11 11 12 12 11 11 11 11 10 9 9 9 8 7 8 9 8 10 12 11 13 14 15 15 12 11 9 8 7 8 6 9 11 11 11 10 8 7
15 14 13 13 12 13 12 13 12 13 12 12 12 10 9 10 9 9 8 8 8 8 9 11 14 14 15 14 14 14 10 9 7 5 7 6 7 7 10 12 13 12 11
16 16 13 12 13 14 14 14 13 13 13 13 12 11 11 11 11 9 9 7 7 7 6 8 9 10 9 11 12 11 10 8 7 5 4 4 5 7 6 6 7 11 14
16 15 13 14 15 14 15 15 15 15 15 14 12 12 9 13 12 10 8 6 4 4 4 3 3 4 7 9 7 7 8 8 6 4 5 5 5 5 6 5 5 7 9
12 14 15 15 15 16 14 16 18 16 17 18 12 10 4 10 8 9 8 5 4 4 3 3 3 3 3 4 7 5 6 7 5 4 5 4 4 4 3 5 6 8 10
12 14 16 18 18 14 15 15 18 20 18 18 20 8 3 3 8 10 7 4 4 5 4 4 3 2 2 4 4 4 7 7 5 5 4 3 5 5 4 7 10 12 12
6 8 12 16 16 16 18 24 29 19 17 17 16 19 10 4 1 2 7 5 4 6 6 5 4 4 3 3 5 6 6 5 4 4 4 4 2 4 8 10 13 15 15
14 10 10 14 18 13 14 12 20 24 16 11 9 5 4 5 5 3 5 5 7 6 6 6 6 4 4 3 2 6 6 5 3 4 5 1 2 6 8 11 16 16 15
9 12 14 16 16 13 13 20 19 18 15 17 13 12 11 7 5 7 5 7 7 6 7 6 5 5 5 4 7 8 5 7 7 6 4 4 7 8 8 11 16 12 12
18 25 25 26 17 17 13 26 21 22 19 20 18 17 14 17 16 15 11 6 5 4 6 8 5 4 4 2 5 5 6 7 7 6 4 2 7 8 11 10 11 9 8
28 28 31 27 24 24 22 25 24 24 24 22 19 17 20 18 19 16 10 9 3 7 5 7 6 3 3 5 8 4 5 6 6 6 6 9 8 9 10 9 7 7 7
26 28 31 33 27 25 29 27 30 29 25 24 22 20 18 16 17 16 15 13 9 2 3 6 5 4 4 3 5 4 6 6 7 8 8 8 8 8 8 6 7 7 6
28 29 31 31 28 29 30 30 28 29 26 25 22 19 16 16 14 15 15 14 13 10 3 5 3 4 4 4 6 5 8 8 7 6 7 7 7 7 7 6 5 6 6
15 17 20 24 29 30 30 27 25 26 24 23 20 18 17 14 13 13 13 13 14 14 9 7 7 8 7 7 9 8 9 9 9 8 7 7 6 5 6 7 8 3 4
11 11 13 17 23 26 26 25 23 27 26 24 21 19 16 13 13 12 13 12 13 13 12 10 8 9 9 8 10 8 8 8 8 8 7 7 5 6 7 8 10 5 5
10 11 12 15 19 21 21 22 24 24 22 21 20 18 17 15 15 14 14 11 12 12 11 8 5 8 9 8 8 8 9 9 9 8 6 4 4 5 6 8 9 6 4
7 9 10 13 16 19 21 20 20 20 20 17 16 16 15 17 15 13 14 13 13 12 11 9 9 7 8 8 9 9 9 11 11 10 9 8 7 5 7 7 8 6 6
7 7 9 12 15 17 20 20 19 18 16 15 15 15 15 14 15 16 16 12 12 12 10 9 8 7 7 8 8 7 10 11 12 11 10 8 6 6 7 7 7 6 6
9 10 11 11 13 15 18 18 18 18 16 15 15 13 13 14 15 16 15 13 11 10 10 10 9 9 10 10 11 10 10 6 3 9 10 8 10 9 9 7 9 7 6
11 12 12 14 14 15 17 19 16 14 14 14 14 15 14 11 12 12 13 11 10 13 12 8 10 12 11 15 11 11 12 8 4 5 8 5 8 8 10 9 7 5 3
14 14 15 15 15 16 16 20 19 14 15 17 17 16 14 13 14 12 10 10 9 8 8 11 11 8 11 9 11 9 9 9 6 7 8 4 5 4 6 4 5 5 2
14 15 16 15 17 18 18 21 21 21 17 15 16 16 13 11 12 14 12 10 8 8 9 10 12 11 10 9 9 8 10 9 5 5 7 6 3 5 3 3 4 5 3
17 16 16 19 20 19 19 23 22 19 16 16 13 14 14 13 14 16 15 14 13 13 11 7 6 6 7 10 11 10 9 11 5 4 6 7 5 5 2 4 6 5 5

GFSMA_925_spd_090.txt.gz
Wind_Speed
25 20 15 19 18 16 15 12 12 9 11 10 10 9 7 7 6 8 5 5 4 5 4 5 5 6 7 7 10 9 7 5 5 5 5 5 4 4 4 5 5 4 4
24 20 19 19 18 17 14 14 14 11 11 11 11 9 9 8 8 7 7 8 6 5 6 6 7 8 8 9 11 11 9 10 8 7 7 7 7 7 6 6 6 6 6
22 20 19 20 18 15 16 14 13 13 12 11 11 12 11 10 11 10 9 10 7 6 7 6 7 8 9 10 11 11 10 9 9 7 8 8 9 9 9 9 8 7 7
22 21 18 20 18 16 15 14 14 12 12 12 11 12 12 11 11 11 10 10 10 9 4 4 8 7 10 12 11 11 10 10 7 6 5 5 7 7 9 10 11 10 9
21 21 19 17 16 17 16 15 14 14 14 13 14 14 15 13 12 11 9 9 10 8 4 7 7 7 10 8 10 10 8 7 8 6 5 5 4 4 5 7 10 11 11
21 19 18 16 15 16 15 14 14 15 15 15 14 14 12 12 12 12 11 11 7 4 4 5 8 6 6 6 6 9 9 7 9 7 6 5 3 4 5 5 5 5 6
21 20 17 14 14 15 16 15 16 15 16 15 12 15 14 15 15 15 12 10 3 5 6 4 2 3 3 4 6 5 4 6 8 7 6 4 4 4 4 4 5 6 8
17 17 17 16 14 15 16 16 18 17 16 17 12 6 2 9 19 17 9 7 7 2 3 5 5 4 4 4 7 6 6 7 7 6 5 4 2 3 3 5 7 8 9
17 16 17 16 17 13 18 18 17 11 10 15 23 8 2 4 5 12 13 10 6 5 5 5 4 5 4 7 8 5 6 8 6 5 3 4 1 2 3 6 9 12 13
14 14 15 14 17 20 19 20 15 13 12 9 16 25 13 2 2 2 13 11 8 7 4 5 3 6 7 6 6 5 4 6 6 4 5 7 3 2 4 7 11 15 16
13 14 15 15 20 17 18 17 17 15 15 16 13 14 11 4 8 6 2 2 6 9 10 10 8 3 5 6 4 4 4 5 4 3 6 5 2 2 5 8 11 15 14
13 16 13 17 15 15 17 15 14 11 12 14 14 15 13 7 4 2 1 5 8 10 11 10 7 7 7 8 8 6 4 6 7 7 5 4 4 4 6 7 10 12 11
24 20 18 19 21 18 18 19 17 18 15 10 21 20 18 14 9 15 14 6 6 4 5 6 8 9 8 7 5 5 6 7 7 6 5 5 8 7 8 9 8 9 8
25 25 28 22 25 17 17 22 16 21 20 17 24 23 23 18 19 23 17 12 2 7 5 5 10 8 9 7 7 6 4 5 6 9 10 9 10 8 7 8 7 8 8
25 25 26 25 22 23 24 27 21 24 22 24 25 25 23 22 21 21 22 18 10 3 4 7 7 9 10 8 6 6 5 4 6 8 9 9 9 9 7 6 6 5 6
23 26 27 27 28 33 31 28 28 29 28 28 29 27 26 23 22 21 20 17 15 10 3 6 4 12 9 5 4 5 5 7 7 6 7 7 6 7 7 6 7 8 8
11 14 20 23 23 29 31 31 31 29 29 31 27 29 27 24 23 20 17 17 17 16 8 7 6 9 8 7 7 6 7 9 9 9 7 9 6 7 6 6 7 8 6
10 15 16 16 19 24 29 32 33 30 30 28 29 29 27 24 21 18 16 16 17 17 14 9 10 11 9 8 7 6 7 9 9 8 8 7 6 5 6 6 7 11 5
10 11 12 17 18 21 24 27 29 30 27 29 28 28 28 25 21 18 16 17 17 15 15 14 9 10 11 10 9 9 10 11 9 8 6 6 6 5 6 7 6 9 6
10 9 12 13 16 19 21 23 23 24 24 24 24 23 23 22 21 19 20 19 17 15 14 15 13 11 11 10 11 11 11 10 10 9 9 9 7 4 6 7 7 8 6
12 11 12 14 15 17 19 21 21 21 23 22 21 20 19 18 16 16 17 17 15 14 14 14 11 9 10 10 11 9 10 9 9 10 11 10 9 8 10 9 7 7 6
15 14 14 15 15 17 18 19 20 21 22 21 21 19 18 17 16 17 15 16 15 17 16 16 17 13 16 13 12 11 9 6 2 9 10 10 9 8 9 10 9 9 7
16 17 17 16 18 16 17 19 20 20 20 20 19 18 18 16 16 15 15 15 14 13 16 19 17 17 15 16 14 11 12 9 6 4 10 4 9 9 9 11 9 7 5
16 18 18 18 19 19 19 18 20 18 19 19 18 19 18 16 14 14 15 15 15 16 16 15 14 13 14 12 13 12 11 12 8 8 10 7 10 8 7 7 5 5 3
17 17 20 19 20 21 21 19 22 21 21 20 19 19 18 17 15 16 16 16 14 13 11 11 12 12 12 13 11 11 13 15 6 7 10 7 8 7 5 5 5 5 4
20 19 20 20 20 21 22 22 23 26 24 22 21 21 19 19 17 21 21 18 18 17 13 11 11 13 13 12 11 14 15 16 6 5 10 11 9 7 3 5 6 6 6

GFSMA_925_spd_093.txt.gz
Wind_Speed
28 29 28 27 25 23 21 17 14 13 12 9 8 9 8 10 8 10 9 7 4 5 5 6 6 6 7 7 8 8 7 6 4 3 2 2 2 3 3 4 4 5 5
29 29 27 29 27 24 21 17 15 12 12 11 12 12 10 10 11 12 12 6 7 5 6 6 6 7 8 9 10 11 11 9 9 6 5 4 4 4 5 5 4 4 4
32 27 25 26 26 23 21 17 16 14 14 14 14 13 12 13 12 11 10 9 9 8 7 6 6 7 7 9 11 10 11 10 10 9 8 6 6 6 6 6 6 6 6
32 26 24 25 24 21 22 20 18 17 16 15 14 15 14 15 14 15 12 13 12 10 9 8 7 8 9 10 12 11 10 10 9 9 7 6 6 6 6 6 8 9 8
25 31 25 27 24 24 23 20 19 18 16 15 14 14 16 15 14 13 12 13 12 12 9 8 6 8 9 9 8 10 10 9 9 9 9 6 5 3 1 2 4 5 7
29 31 27 25 25 23 22 21 19 18 18 17 16 14 15 14 17 15 14 12 15 11 9 8 6 9 7 8 7 8 10 8 11 11 9 6 4 2 2 3 4 4 4
32 30 29 26 25 26 25 21 19 19 18 15 15 15 15 15 15 15 15 12 14 11 8 7 7 6 7 5 6 5 5 6 8 10 9 7 4 2 1 2 3 5 7
32 32 28 27 26 23 26 23 21 19 17 18 11 4 2 8 20 21 19 17 15 10 7 7 7 7 7 5 5 6 6 6 8 8 7 6 4 2 1 3 4 6 8
36 32 31 29 25 24 21 23 22 22 20 17 20 6 2 4 3 14 16 21 17 12 7 9 9 6 7 7 5 4 4 8 7 7 7 8 6 2 2 4 6 8 10
29 25 26 29 26 23 20 24 22 21 17 15 12 15 6 4 2 2 11 15 15 12 11 11 9 7 7 7 7 5 5 8 9 7 7 9 5 3 3 4 7 11 12
34 30 23 25 21 22 21 25 23 24 21 21 22 14 14 13 10 1 3 5 11 9 7 10 10 7 6 6 7 6 5 6 8 7 8 8 5 4 3 4 6 9 10
12 20 24 22 13 16 17 28 21 22 24 23 21 23 19 9 10 8 3 4 3 7 12 12 9 9 10 9 8 8 6 7 8 6 7 6 6 6 4 4 5 6 6
11 13 13 13 12 16 23 25 20 19 18 21 26 27 24 23 18 18 16 4 5 8 7 10 11 11 11 9 8 6 7 9 8 7 6 9 9 7 8 6 5 6 6
23 27 27 23 19 17 26 22 21 22 19 23 25 25 24 24 10 20 10 10 3 8 7 5 11 12 11 9 6 6 6 7 8 8 11 8 9 9 9 8 6 4 4
18 18 25 30 25 21 27 24 21 19 20 26 28 27 26 19 21 21 18 20 13 4 5 10 9 13 12 9 8 8 7 7 8 9 10 11 11 9 7 8 8 5 6
27 31 31 31 25 24 30 27 23 20 26 22 27 24 22 22 28 24 22 23 24 16 3 10 7 15 14 11 10 7 7 7 7 9 10 8 8 9 7 8 7 7 7
8 11 11 19 27 30 31 30 30 28 24 25 29 28 27 28 26 23 23 24 23 20 7 5 9 14 14 12 9 7 8 8 8 9 10 9 9 10 8 6 6 7 10
8 8 8 9 11 14 19 22 25 28 30 31 30 29 30 28 27 27 26 26 24 21 16 10 12 14 13 13 11 9 8 9 10 11 11 10 9 10 7 7 7 9 9
13 12 11 9 10 13 16 21 24 27 29 33 32 33 33 30 30 28 27 26 23 21 19 13 11 13 12 14 12 12 11 11 11 12 12 9 9 8 8 7 7 9 8
15 16 13 13 12 13 15 17 20 24 28 29 30 30 30 31 32 30 27 26 24 22 20 18 14 13 13 12 14 13 11 13 14 14 12 12 10 8 8 8 7 7 7
13 15 16 15 14 13 14 15 17 20 21 22 22 22 23 26 26 25 25 25 24 24 23 21 15 12 12 10 14 12 15 14 13 13 12 12 11 10 10 10 9 8 8
15 13 14 16 16 16 15 16 17 19 20 20 20 19 19 22 22 23 24 24 26 27 26 23 18 13 18 17 15 15 14 9 4 10 12 12 12 12 12 11 9 8 10
19 18 16 14 17 17 16 16 16 18 20 21 22 23 22 22 22 22 21 22 23 24 23 25 22 21 18 20 18 16 16 12 9 7 13 7 10 11 11 10 10 8 7
21 21 22 19 18 20 18 18 17 19 19 21 21 23 25 24 23 23 23 22 21 22 22 22 21 19 18 15 17 18 17 14 9 8 10 3 7 8 8 11 11 7 5
20 21 22 22 21 21 20 20 19 19 20 21 20 21 24 24 24 25 25 24 22 21 19 18 16 16 15 14 15 16 16 18 6 10 13 9 9 7 7 9 9 7 6
21 21 23 23 22 22 22 20 23 23 24 23 22 23 24 24 23 23 26 25 25 24 20 17 15 14 15 15 16 18 17 20 11 5 14 11 9 8 2 7 9 9 8

GFSMA_925_spd_096.txt.gz
Wind_Speed
29 31 30 29 30 26 25 24 21 19 17 16 13 13 12 11 11 11 12 9 7 7 8 8 7 7 6 5 6 7 7 7 6 4 4 4 4 4 3 3 4 4 4
25 25 29 28 29 26 25 24 22 20 19 17 15 15 14 13 13 13 13 12 9 8 8 9 8 8 9 9 9 9 10 11 9 9 6 6 5 5 5 5 6 6 6
23 22 30 30 29 30 26 24 22 19 19 18 17 16 15 14 14 14 13 15 10 11 10 9 8 9 9 9 10 11 13 11 10 11 9 7 6 7 8 7 7 9 9
28 30 33 33 34 33 29 28 24 23 20 21 19 18 18 16 16 16 14 15 15 14 14 12 11 11 10 10 10 11 11 12 11 10 10 9 8 7 7 8 8 10 10
34 34 34 33 34 34 32 33 27 26 23 22 19 18 18 18 18 17 16 17 19 19 16 15 13 11 11 11 11 9 9 11 10 10 10 9 8 5 3 3 4 5 6
39 39 34 31 29 31 33 31 28 26 24 21 19 17 18 18 17 18 18 18 14 18 17 15 13 11 10 10 10 9 9 10 10 11 11 9 7 5 4 3 3 4 5
35 38 37 34 33 35 35 32 29 26 24 22 16 18 18 17 18 20 20 17 20 18 19 15 12 10 9 8 8 7 5 5 8 10 11 9 7 5 3 2 3 5 6
36 36 34 35 36 37 34 32 30 26 26 22 11 5 2 8 19 20 20 19 21 17 19 14 11 9 8 8 8 7 6 6 7 9 10 9 8 6 4 4 5 6 8
37 35 36 37 37 35 35 34 34 30 26 26 23 7 2 4 3 11 21 20 21 22 20 16 12 9 8 7 7 7 5 4 7 8 9 10 9 6 4 4 5 6 10
35 34 34 38 38 37 36 38 37 35 30 24 23 19 7 6 3 0 2 12 19 21 21 17 14 11 9 7 6 5 6 8 9 9 9 10 10 6 3 3 6 7 11
34 32 33 34 37 33 32 33 37 36 36 27 25 15 15 8 4 3 2 3 4 6 13 17 16 13 10 9 7 6 5 7 10 10 10 10 9 6 4 4 6 7 8
18 34 34 31 27 25 24 30 32 31 29 21 28 27 28 14 14 9 3 4 14 22 15 12 15 14 12 11 8 6 8 7 9 10 10 9 9 7 7 8 6 6 8
23 21 30 30 27 23 21 26 25 23 23 21 26 28 29 25 19 23 15 5 4 5 10 16 15 16 16 11 10 9 8 9 11 11 8 8 12 10 8 8 8 8 8
9 17 13 11 19 20 18 24 28 27 23 22 28 33 29 27 31 26 22 13 3 4 5 8 16 18 16 13 10 9 8 8 10 10 11 12 10 10 10 10 8 8 8
12 10 11 14 23 28 27 27 27 27 22 25 30 29 29 27 27 25 26 28 18 5 5 10 9 17 16 13 10 8 7 8 9 12 12 11 11 11 11 9 10 11 12
11 13 19 23 27 28 29 26 23 24 22 22 24 24 28 30 26 24 21 19 19 4 3 9 8 18 19 16 12 10 9 9 9 10 11 11 11 8 10 10 11 11 9
6 8 9 10 14 21 27 25 24 26 28 27 27 26 27 21 23 26 25 25 22 19 6 5 11 16 19 18 16 13 9 9 10 9 9 9 11 10 10 10 10 9 9
8 7 8 9 11 14 21 29 29 29 31 30 30 28 29 27 28 31 31 27 24 26 15 9 14 16 17 18 15 13 9 9 10 11 12 12 11 9 9 10 8 8 9
10 9 9 9 9 9 12 16 20 25 29 32 32 32 32 32 31 31 34 31 27 26 23 15 11 16 13 20 17 14 13 13 12 12 13 13 12 9 10 10 9 8 8
14 12 11 11 10 11 13 15 18 19 24 27 30 31 32 33 33 33 35 33 30 27 25 19 16 15 16 16 20 18 14 16 15 15 15 16 14 12 9 12 10 9 9
18 17 15 13 12 12 12 13 15 17 20 23 25 29 31 30 31 33 32 33 31 29 25 23 13 11 14 13 20 16 18 17 15 18 17 17 16 14 13 14 11 10 9
18 18 18 18 16 15 15 15 15 17 19 19 22 24 25 26 27 26 28 29 32 32 28 22 16 12 16 21 21 22 17 8 4 14 18 16 15 15 15 14 11 10 10
18 17 18 20 20 19 18 18 17 17 18 19 21 22 22 23 23 23 23 23 23 26 27 30 24 26 21 26 22 20 18 16 11 8 17 9 12 13 13 11 10 9 9
22 21 21 20 21 20 19 20 19 18 20 21 20 21 22 24 24 24 24 25 26 26 29 28 26 27 25 20 20 22 22 20 12 10 13 6 9 9 13 12 12 11 9
25 25 22 21 22 23 21 19 20 20 21 22 22 22 23 25 24 23 23 23 23 24 24 22 20 20 19 18 21 22 21 20 6 9 15 8 7 9 10 12 12 11 9
25 22 20 19 19 21 21 20 18 20 21 22 24 22 23 25 26 27 27 27 26 26 23 22 19 18 17 18 19 23 24 21 9 5 15 12 9 8 3 10 12 12 12

GFSMA_925_spd_099.txt.gz
Wind_Speed
27 26 25 28 28 27 24 24 22 21 20 19 18 17 17 16 14 14 14 12 10 10 10 9 8 8 7 7 7 7 8 8 7 7 5 4 4 4 4 5 5 6 7
30 33 25 27 30 29 26 24 23 22 21 20 19 18 17 17 16 15 16 15 13 11 11 10 10 9 10 10 10 10 11 11 11 10 9 7 6 5 5 5 6 7 7
29 32 29 24 27 26 25 24 24 23 21 21 22 20 18 18 17 17 16 16 16 15 13 12 11 10 11 11 11 12 13 14 12 12 11 10 8 6 6 7 9 8 8
31 29 24 23 24 23 27 26 28 26 25 24 23 22 20 20 19 18 18 17 19 17 16 15 14 12 12 12 11 10 12 13 12 12 11 10 9 8 7 7 8 9 9
29 26 30 29 25 26 30 32 32 29 28 26 24 23 21 21 20 19 19 19 20 21 20 19 17 14 14 14 13 12 11 11 12 12 11 10 10 8 6 4 4 5 6
30 35 34 31 28 32 34 37 34 31 30 28 24 22 21 22 21 21 22 21 22 21 24 23 19 19 15 14 14 12 10 9 11 11 11 11 9 7 5 4 3 4 5
25 31 28 32 35 39 40 38 35 32 32 28 22 21 21 21 22 23 23 23 23 23 21 22 19 19 15 12 11 10 9 6 7 9 12 12 10 8 5 3 3 5 7
29 28 33 34 36 40 35 34 35 28 30 29 14 2 2 11 24 24 21 24 25 23 23 22 21 19 15 12 11 11 10 7 7 9 11 11 10 8 6 4 3 5 7
29 29 33 35 38 40 36 38 36 34 24 30 29 9 2 4 2 10 23 22 22 21 22 23 21 19 15 13 10 10 9 8 7 9 10 10 10 8 5 3 3 5 7
32 30 32 37 37 38 38 40 40 38 31 23 29 28 14 5 3 2 5 14 21 21 24 24 21 20 16 12 9 10 9 9 8 9 10 10 10 9 6 2 2 5 8
29 29 29 33 37 37 39 38 37 38 37 27 26 24 16 12 6 2 3 3 12 18 25 26 27 23 16 12 11 11 9 10 13 13 11 12 11 10 6 4 4 5 7
30 29 26 29 30 31 32 33 33 33 32 33 31 28 24 12 10 5 1 3 8 21 29 30 29 27 22 19 14 11 9 9 11 12 11 9 10 10 6 4 5 5 7
25 26 23 27 33 33 30 21 19 20 21 27 30 29 29 26 19 20 14 7 6 11 16 26 28 25 22 19 16 13 11 9 10 9 8 8 13 9 5 7 8 5 3
24 21 23 27 30 33 32 27 27 20 18 20 20 23 24 27 29 29 22 15 3 5 8 7 24 24 23 21 16 14 12 10 11 11 10 15 12 9 9 9 9 8 7
7 4 2 4 7 15 28 24 23 26 26 29 29 27 28 30 30 31 31 28 21 8 9 13 11 25 25 22 20 16 13 11 13 14 15 14 12 11 10 10 11 9 10
10 7 7 10 14 16 16 18 21 23 23 29 31 28 28 29 31 31 33 31 27 20 5 8 11 21 25 23 20 15 13 13 13 13 14 13 15 13 11 10 8 9 10
14 13 10 11 12 11 15 18 23 23 26 27 28 25 27 26 25 28 28 31 23 17 4 4 13 17 24 24 20 17 15 14 12 12 11 10 10 12 10 10 9 9 10
11 11 10 9 10 12 12 20 23 27 28 27 30 28 28 28 28 25 24 23 21 22 13 7 14 19 21 25 20 18 17 14 12 12 12 10 9 10 9 8 8 8 8
16 14 12 12 12 12 13 15 16 15 24 30 29 28 30 29 29 27 29 29 29 29 29 17 13 19 16 25 22 20 18 15 12 12 11 12 12 11 9 7 8 8 8
18 17 15 15 14 14 14 14 15 17 20 22 19 25 29 29 31 29 31 33 31 29 28 22 17 16 20 26 27 25 19 19 16 15 12 13 13 12 10 8 10 10 9
19 19 18 16 16 16 16 16 15 16 19 22 23 22 23 26 32 32 31 27 29 27 22 19 14 11 15 18 24 20 19 19 16 17 15 17 17 16 12 10 12 11 10
21 22 22 21 19 16 14 16 18 19 18 19 23 25 24 24 26 28 30 31 33 30 25 22 16 13 17 20 23 23 19 9 3 16 20 20 17 18 15 14 15 13 11
20 21 21 21 23 23 20 19 17 20 21 21 21 22 25 25 24 26 27 28 31 32 34 35 26 22 20 25 25 23 25 18 12 9 20 14 17 17 15 15 15 13 11
23 22 21 18 18 22 23 21 21 21 21 21 21 22 23 24 24 24 23 24 26 25 27 27 32 29 24 22 18 26 27 21 13 13 17 9 12 14 15 16 16 13 10
23 21 20 19 19 20 20 19 20 22 22 24 23 22 22 23 24 23 23 23 25 23 24 25 22 22 17 20 22 26 24 21 6 10 20 9 10 11 13 16 16 13 9
24 25 25 22 20 19 17 18 18 20 20 20 22 23 22 22 22 22 24 25 24 26 24 24 22 18 18 19 22 26 28 23 13 7 20 17 13 11 4 12 15 14 12

GFSMA_925_spd_102.txt.gz
Wind_Speed
22 25 27 27 25 22 25 24 23 21 21 20 19 19 19 18 15 14 14 14 13 12 12 12 11 10 8 7 7 6 7 7 7 6 5 4 3 3 4 4 5 6 7
19 23 30 30 27 25 25 25 23 21 21 20 20 19 19 18 17 16 15 16 15 14 13 13 13 13 12 11 9 10 10 11 10 9 8 7 6 5 4 5 6 7 7
18 25 29 30 29 30 28 25 23 21 21 21 21 21 20 19 19 19 18 17 18 17 15 15 14 14 13 13 11 12 13 12 12 11 12 11 9 6 4 6 7 8 9
21 24 30 32 30 29 29 24 25 25 25 23 25 24 23 21 20 21 19 19 18 20 18 17 16 15 14 13 12 12 12 12 13 11 12 11 10 7 5 5 5 5 6
21 27 32 34 30 31 30 25 27 26 25 26 27 26 24 24 22 22 22 22 22 21 21 20 19 18 17 16 15 13 12 13 11 12 11 10 9 8 6 4 2 3 5
19 23 31 32 27 28 28 29 27 28 27 26 29 27 25 26 23 25 25 23 23 23 22 23 22 21 20 18 17 15 15 14 11 10 10 12 11 9 6 4 2 2 5
19 23 26 28 27 30 27 29 30 30 28 30 24 23 28 28 25 27 27 26 27 26 24 24 24 24 22 21 18 16 13 12 10 9 11 13 11 9 7 5 2 2 5
19 23 25 26 30 30 33 30 33 26 29 31 17 8 3 11 25 31 29 30 28 25 26 25 23 24 24 22 18 15 14 12 10 7 10 12 11 9 8 6 3 1 3
24 24 29 28 28 32 35 42 38 34 26 28 33 15 3 4 3 16 33 33 30 28 27 26 25 25 25 22 18 16 14 13 11 9 10 12 12 11 10 7 4 0 2
24 30 30 32 32 33 34 32 39 38 31 22 23 34 21 5 4 2 9 24 31 27 27 26 25 25 26 23 21 18 14 12 11 12 13 13 14 13 11 8 4 1 2
23 26 30 33 34 34 34 35 33 36 34 27 25 22 29 19 13 4 3 5 16 25 27 26 25 27 27 26 24 18 15 15 12 14 14 15 15 15 13 9 6 3 1
27 29 30 33 32 31 38 40 39 37 36 33 27 30 24 17 15 7 3 4 6 12 24 24 26 30 30 27 23 19 18 15 17 19 16 14 16 17 14 8 5 3 4
24 27 28 30 35 35 31 33 33 34 35 33 33 31 33 27 24 24 13 5 5 12 11 24 30 33 30 29 25 21 18 14 14 14 13 13 18 18 14 9 5 6 4
10 15 27 29 30 33 28 29 25 26 24 23 26 24 25 29 31 27 17 9 3 5 13 14 27 31 33 32 29 24 18 15 14 14 15 20 19 16 12 8 7 6 8
14 10 10 10 11 19 29 29 28 26 26 23 19 19 20 22 22 26 24 23 14 7 9 15 18 30 33 32 30 25 19 16 16 19 22 19 17 16 13 10 9 11 11
18 18 18 14 10 11 12 13 15 28 28 30 31 25 25 26 27 31 28 26 25 24 14 20 28 24 36 34 29 23 19 18 19 20 20 18 17 14 12 11 13 12 11
19 18 17 19 17 15 12 13 14 15 20 23 28 27 27 28 26 27 28 29 28 24 12 4 16 20 28 33 30 24 22 20 20 20 17 17 14 14 14 14 12 10 9
18 18 17 17 17 17 16 15 13 13 18 21 24 25 27 27 31 28 27 28 27 26 19 8 14 18 23 28 27 25 25 23 22 19 18 16 14 11 13 12 11 9 9
20 19 19 18 19 19 18 17 18 18 17 16 14 21 26 29 30 27 27 26 27 25 25 14 11 18 16 30 30 28 28 26 23 21 18 17 14 13 11 11 11 11 9
21 21 21 20 20 20 18 19 20 20 20 20 20 19 20 18 26 26 26 28 26 25 27 21 18 18 23 28 29 27 25 26 25 20 18 17 13 12 11 13 13 12 10
21 22 22 22 22 21 20 20 21 23 23 23 21 21 21 20 21 20 22 26 26 24 22 21 12 10 16 19 30 28 22 28 25 24 21 19 17 17 16 16 18 13 11
19 20 21 21 21 21 21 20 18 22 23 24 24 24 24 23 22 22 23 24 24 26 21 20 19 19 24 23 25 27 21 13 6 24 22 21 21 21 18 19 18 15 12
23 24 23 22 22 23 22 21 20 19 22 22 23 25 26 24 25 24 24 24 24 26 30 33 25 24 23 33 37 30 28 24 13 15 29 20 23 22 21 20 18 16 14
23 23 22 20 20 23 24 23 22 22 22 23 24 24 25 26 25 24 25 25 25 26 28 31 31 30 32 37 44 36 34 29 18 15 23 9 15 19 19 19 18 17 15
21 21 21 22 22 22 23 21 21 23 23 24 23 24 26 26 25 24 23 25 27 26 25 25 26 30 29 27 33 33 29 23 7 11 25 12 12 13 15 18 19 17 15
23 21 20 19 20 24 24 21 20 20 20 20 21 23 23 25 25 24 23 23 21 25 24 22 21 22 23 26 28 33 35 25 9 6 20 18 18 13 5 14 19 19 16

GFSMA_925_spd_105.txt.gz
Wind_Speed
20 23 26 27 26 25 23 22 22 21 20 21 21 20 19 18 17 15 14 14 14 14 13 13 12 11 10 9 8 8 8 7 7 6 6 5 3 3 3 2 4 5 6
16 18 21 25 28 26 25 24 24 23 21 20 20 20 19 19 20 18 17 16 16 16 15 15 15 14 12 11 11 11 10 11 10 9 8 8 6 5 4 3 4 5 6
14 15 19 23 27 28 27 24 25 25 23 20 21 21 20 20 20 20 19 18 17 19 18 17 16 15 15 14 13 12 12 12 12 11 12 11 10 7 5 4 5 4 5
15 17 20 24 29 29 27 27 25 25 25 21 21 23 21 20 21 21 22 22 21 21 22 21 19 18 16 15 14 13 11 12 13 13 11 13 12 10 7 6 5 3 2
19 20 21 23 25 28 29 28 28 27 22 23 21 24 22 22 23 24 24 24 23 22 22 23 22 21 19 18 17 15 14 14 13 12 13 12 12 12 10 7 5 3 1
19 19 22 24 24 24 25 25 25 29 21 21 24 26 24 23 24 26 28 26 27 26 25 25 25 24 23 22 21 19 17 15 13 12 13 12 13 14 12 10 8 5 1
20 19 20 23 24 25 25 23 21 22 30 29 21 23 30 30 27 29 30 29 29 29 27 27 26 27 26 24 24 22 19 16 14 12 13 13 15 15 14 12 10 6 3
18 21 21 25 23 21 22 22 19 19 18 24 14 9 5 13 20 32 36 33 32 31 31 31 28 29 27 28 26 25 21 17 15 12 12 16 17 17 15 13 10 7 4
18 20 21 22 22 22 24 26 27 24 19 19 27 13 2 7 10 20 30 36 36 35 34 32 31 29 29 28 27 25 22 19 16 13 11 15 17 18 17 15 12 9 6
12 16 21 24 23 24 27 27 29 31 27 22 20 31 33 12 5 5 12 21 29 31 37 36 33 31 30 30 29 27 23 20 18 16 17 19 20 20 18 16 13 11 7
16 17 18 22 24 26 30 31 30 33 35 32 29 22 29 34 24 7 7 4 13 28 35 36 33 33 32 31 29 28 23 21 20 19 20 21 21 21 20 18 14 12 9
15 16 18 21 24 25 26 28 31 33 35 35 34 33 29 16 24 18 7 8 6 10 24 28 30 30 30 30 31 31 27 23 23 23 19 22 23 23 22 20 15 13 10
9 11 14 19 22 25 28 29 31 32 34 36 38 34 31 30 25 27 25 14 7 13 9 20 27 28 28 29 32 32 29 27 26 24 20 20 20 22 21 18 15 13 10
12 12 8 8 7 13 25 32 34 33 32 35 34 32 28 32 33 27 24 16 8 6 11 11 19 24 31 32 35 32 32 31 27 24 21 20 21 25 26 19 15 13 13
18 18 16 14 12 14 13 17 25 28 30 32 29 29 31 30 30 33 29 28 18 9 9 12 16 23 26 32 37 37 37 33 28 24 22 25 27 27 23 21 17 17 16
20 19 19 18 18 16 18 16 15 13 13 22 31 31 30 28 27 26 25 23 20 17 8 17 20 26 25 32 36 39 40 33 31 25 24 29 26 22 22 21 20 19 15
18 20 17 16 17 18 17 18 16 15 14 16 21 18 26 26 25 23 24 25 24 24 13 22 21 28 28 29 34 39 38 35 28 25 28 28 23 22 24 23 21 19 16
19 19 20 21 19 19 17 19 18 18 19 19 19 16 21 21 26 30 29 28 26 25 27 25 22 22 26 30 35 39 35 32 29 28 27 25 24 23 22 22 22 21 17
19 19 20 20 21 21 20 19 18 19 17 16 20 19 20 20 17 22 26 24 24 27 31 27 15 19 19 24 28 32 32 29 27 27 26 25 24 21 21 20 20 19 17
18 19 19 19 19 19 18 20 19 18 18 18 18 18 19 17 17 21 21 24 27 25 24 22 17 16 19 24 26 28 26 31 31 29 28 26 23 23 20 18 18 18 17
16 17 19 19 19 18 16 20 20 19 19 19 17 16 18 19 19 18 19 22 17 19 20 20 11 9 15 14 26 26 23 24 28 33 30 26 24 22 20 18 20 21 17
18 19 18 18 19 19 20 20 19 19 18 18 20 21 19 23 21 21 21 20 20 21 15 18 18 17 21 24 25 25 20 13 4 29 30 27 26 26 25 23 24 23 19
21 21 21 21 21 22 21 20 19 18 20 19 20 21 23 21 25 25 25 25 24 24 23 21 19 23 22 32 36 30 31 31 23 27 35 20 29 28 26 26 24 23 21
19 20 19 18 19 20 20 20 20 20 20 21 21 23 22 23 23 24 25 27 27 28 27 25 27 26 34 34 40 44 43 31 22 27 33 10 27 25 26 27 25 25 22
23 23 22 21 19 19 19 20 20 19 20 21 20 20 20 21 22 24 25 25 24 26 30 28 27 26 33 34 36 32 27 26 8 14 33 20 18 22 25 28 28 24 22
23 23 23 22 20 19 19 18 18 17 17 17 19 20 19 19 21 23 25 23 22 23 26 31 30 26 26 33 37 39 39 30 13 4 25 20 20 16 6 21 27 26 22

GFSMA_925_spd_108.txt.gz
Wind_Speed
15 15 18 16 18 18 19 18 16 16 18 18 18 18 17 15 13 12 11 14 15 15 14 14 14 13 13 12 11 10 10 9 9 9 8 7 6 5 4 4 3 3 3
14 15 15 16 17 18 21 20 18 18 18 18 19 19 18 16 15 15 13 12 16 18 18 17 17 16 16 15 14 13 13 12 12 12 11 10 10 8 7 6 5 4 4
13 12 13 15 16 19 22 25 21 17 19 17 17 17 18 18 16 16 16 14 14 17 20 20 19 18 18 17 16 16 16 15 14 14 14 15 14 12 10 8 7 8 6
16 12 12 12 13 15 17 19 19 20 21 19 17 17 16 17 15 17 17 16 15 15 16 23 22 22 20 19 18 18 18 16 15 14 14 15 17 15 13 10 10 9 6
17 15 14 14 13 16 18 21 20 20 20 22 26 20 18 17 17 19 19 18 17 18 17 19 24 25 24 23 21 19 18 16 17 17 16 16 16 17 16 14 12 10 8
15 16 16 16 16 17 18 21 21 21 20 20 25 17 19 18 20 20 20 19 20 20 19 20 19 24 27 27 25 23 21 19 20 18 17 16 16 18 18 16 14 12 10
24 23 18 16 16 22 20 22 22 20 19 19 15 20 24 27 27 23 21 20 20 19 22 23 22 21 21 27 28 27 25 22 21 19 18 17 18 19 19 17 15 13 10
18 18 16 16 16 19 19 21 19 18 19 18 13 17 9 20 25 30 30 29 26 29 27 27 25 24 23 22 29 30 30 27 23 19 19 18 19 21 20 19 17 15 13
14 14 15 17 14 17 20 22 22 21 19 18 21 16 4 8 15 21 27 28 29 29 30 32 32 28 28 26 26 30 31 29 27 21 19 19 22 21 20 19 18 16 14
9 12 14 16 17 17 18 19 21 21 21 19 15 27 27 10 2 8 23 21 23 27 29 29 31 29 29 31 33 34 32 31 28 24 20 20 21 23 23 22 19 17 16
11 11 12 15 16 17 17 19 21 23 25 26 25 16 23 23 25 11 7 7 9 19 25 26 27 27 31 34 35 34 33 31 29 27 24 23 23 24 24 24 21 19 16
9 5 8 12 15 18 17 22 23 28 26 29 29 28 26 15 20 17 12 17 16 21 18 18 20 22 31 32 34 36 35 32 26 31 26 26 26 27 26 26 24 23 19
8 8 6 7 11 17 17 20 25 28 29 30 30 31 34 34 33 29 27 19 12 28 24 22 20 22 28 32 32 31 31 28 31 32 29 26 28 30 30 27 26 25 21
11 11 11 8 10 8 6 7 13 27 31 32 33 33 33 34 36 35 30 20 11 13 22 21 17 22 25 29 28 26 21 28 33 35 33 29 30 31 30 27 26 23 22
12 13 13 12 12 13 12 12 12 15 12 24 32 34 33 37 36 36 32 25 14 9 12 20 16 21 23 26 23 23 24 28 39 39 37 35 33 32 31 28 31 27 22
12 14 14 15 15 16 14 15 16 15 17 15 16 16 24 29 30 28 28 28 28 26 14 26 20 21 21 24 25 26 35 35 40 43 42 38 37 36 32 32 33 27 23
13 15 15 16 17 16 17 17 17 18 18 20 20 21 19 19 19 29 29 30 30 27 11 20 22 21 26 29 32 30 37 42 43 45 43 40 35 32 32 34 30 25 23
15 15 15 15 14 14 14 16 16 15 17 17 20 21 22 23 20 19 21 29 27 24 16 11 19 27 29 31 33 35 38 42 39 41 43 40 34 32 34 29 26 25 24
14 14 13 13 13 14 14 14 15 16 15 14 15 16 17 19 19 20 22 21 19 28 29 31 28 23 25 28 26 26 30 34 37 40 40 34 34 34 28 27 26 25 23
13 14 14 14 15 15 13 16 17 16 17 16 15 15 15 15 17 19 20 19 19 21 16 20 18 18 20 21 22 21 20 28 31 32 35 33 32 29 28 26 25 23 23
12 13 14 14 14 14 13 16 17 17 16 17 16 15 15 16 18 17 18 19 19 18 17 16 9 9 10 9 19 17 19 22 26 32 32 32 32 30 27 26 24 24 22
11 12 13 13 14 13 14 15 16 18 18 18 18 17 17 17 16 20 19 20 19 18 20 15 14 12 18 20 20 21 18 11 3 31 31 28 32 30 30 27 27 24 22
13 14 14 15 15 16 17 19 19 18 18 18 18 19 19 18 19 18 20 20 20 20 19 22 21 19 19 21 24 23 26 27 24 26 36 23 37 32 32 30 28 25 23
15 16 16 15 15 15 15 16 18 17 17 18 18 19 19 20 19 20 22 23 21 21 21 21 22 23 25 24 31 33 37 41 23 26 37 14 27 25 34 34 30 26 25
15 15 15 15 14 15 14 14 14 15 15 15 16 18 19 19 19 23 24 23 23 23 23 24 26 28 29 30 29 30 23 18 5 12 37 25 20 20 25 32 31 28 27
15 15 16 14 14 15 13 14 16 16 17 17 17 16 16 17 20 23 25 25 26 27 27 28 29 29 26 26 30 34 30 25 17 5 23 27 21 23 6 21 31 30 27

GFSMA_925_spd_111.txt.gz
Wind_Speed
14 14 16 14 13 16 18 21 22 20 19 18 20 19 17 16 14 13 11 13 13 15 14 14 14 14 14 13 13 12 12 11 11 10 10 9 8 8 7 6 5 5 4
13 15 15 15 16 17 18 20 19 19 17 18 18 18 19 17 16 15 14 13 13 16 17 17 17 17 17 16 15 15 14 14 14 14 13 12 12 11 10 9 8 7 6
12 13 13 15 15 17 17 18 17 18 18 18 17 18 19 19 19 17 17 15 14 14 17 20 20 20 19 18 18 18 18 17 17 17 16 17 16 15 14 12 10 9 9
16 12 12 13 12 11 13 14 17 21 21 20 23 22 20 20 20 19 18 18 18 16 16 18 22 22 21 20 19 18 19 19 18 17 16 16 17 18 17 15 14 12 10
14 15 12 12 12 12 13 14 17 18 17 19 21 22 22 21 23 21 21 22 21 20 17 18 19 22 25 23 22 20 21 20 19 17 17 17 17 18 19 18 16 14 12
15 13 14 10 19 15 13 16 19 18 21 18 20 21 20 21 20 22 21 23 25 23 21 21 19 20 23 27 26 25 23 22 19 19 19 19 19 18 19 19 19 16 13
16 17 14 12 18 18 17 18 20 18 19 21 14 17 20 25 26 26 27 25 23 24 23 23 22 21 19 21 26 30 28 26 24 23 22 20 19 18 19 20 21 17 15
17 18 17 19 16 20 17 18 20 16 18 18 10 11 4 12 28 31 29 30 29 26 25 26 27 27 26 24 25 29 31 30 28 25 23 22 21 20 20 21 21 19 18
19 17 17 18 22 20 18 18 19 21 19 20 26 13 3 6 8 18 30 33 32 31 33 32 35 34 30 29 28 29 30 32 32 30 24 22 20 20 21 22 22 21 18
15 16 17 17 20 20 21 21 21 21 22 20 18 23 24 12 3 5 14 19 29 30 31 31 30 30 28 28 33 34 35 33 31 29 28 23 20 19 22 23 23 22 19
6 7 12 14 17 18 21 22 21 21 22 21 21 16 17 20 20 7 8 10 12 21 24 27 25 23 24 28 29 33 37 34 29 28 25 25 21 22 23 26 26 26 22
3 1 4 6 8 12 17 20 21 23 24 23 23 23 22 10 14 12 10 14 17 26 23 26 26 24 23 29 32 38 39 34 31 26 28 28 25 27 26 29 28 29 26
10 8 4 4 4 6 9 12 14 15 19 23 24 27 27 29 27 23 22 16 11 28 28 28 24 21 23 29 33 33 36 33 32 27 25 24 24 30 33 33 31 31 29
13 11 9 8 7 6 6 9 7 8 10 15 23 27 28 28 26 27 27 18 9 13 28 31 32 31 27 31 30 30 32 27 28 25 28 25 29 33 35 35 35 32 31
13 12 11 11 11 12 11 12 11 13 15 14 14 16 15 18 29 29 29 26 20 11 11 27 26 30 27 28 30 30 25 26 25 27 30 30 30 33 38 38 35 33 31
14 14 15 15 15 14 14 13 14 15 17 16 17 19 17 18 20 18 22 33 32 25 12 15 22 23 27 27 30 27 25 24 24 27 29 31 33 36 42 42 39 36 34
14 15 14 14 16 17 14 16 18 18 18 18 18 19 19 19 21 21 22 23 19 23 9 20 23 26 30 28 28 26 27 28 29 31 33 34 37 39 44 44 41 35 37
11 11 12 12 12 13 14 15 17 17 17 17 16 17 18 19 18 19 23 22 21 26 21 15 22 21 25 29 30 30 33 34 34 37 40 41 40 41 46 46 41 36 36
12 12 12 12 12 12 13 13 12 12 13 14 15 15 16 16 15 18 20 20 22 21 21 17 16 14 22 27 28 32 36 36 39 43 44 39 37 38 43 43 41 34 38
12 13 13 13 13 13 11 12 14 15 16 15 14 14 14 14 17 18 17 17 18 20 19 17 16 14 13 19 21 19 24 32 34 35 34 34 32 40 41 33 30 35 30
12 13 13 13 13 13 10 14 15 16 16 17 16 14 15 17 18 14 17 18 18 18 18 16 13 10 6 6 10 16 20 20 24 25 24 27 33 34 29 33 37 33 27
14 15 15 16 17 14 14 15 16 18 18 17 17 17 17 17 15 17 16 15 16 18 18 16 16 13 14 14 17 17 14 7 2 22 27 26 33 32 36 37 36 33 29
15 15 15 16 17 16 16 17 16 16 17 17 17 17 18 16 18 18 18 18 19 16 16 19 19 18 18 17 20 19 19 16 14 16 30 19 31 28 34 34 36 34 32
15 15 15 15 16 16 15 16 15 16 18 18 17 16 16 17 17 16 20 20 20 20 19 21 22 24 24 26 28 27 22 28 22 18 28 12 27 24 33 36 37 37 33
14 14 14 15 15 16 14 13 12 15 15 16 16 14 14 15 16 19 22 22 23 22 22 23 25 26 27 27 27 28 22 17 7 11 28 15 15 20 25 33 36 38 35
15 14 15 14 14 15 13 11 12 14 16 16 15 16 14 13 13 16 19 20 21 23 28 30 30 28 27 26 25 26 24 20 17 5 22 21 18 18 4 22 33 37 36

GFSMA_925_spd_114.txt.gz
Wind_Speed
18 15 15 15 15 18 18 22 23 25 23 22 21 22 20 19 16 16 15 15 15 14 17 16 15 14 14 14 13 13 12 12 12 11 10 10 9 9 8 7 6 6 5
17 18 19 19 12 16 18 20 24 27 25 23 24 22 19 20 18 19 18 17 16 15 18 19 19 18 17 16 16 16 15 15 14 14 13 13 12 12 11 10 10 8 7
20 18 17 18 19 18 19 19 21 22 24 21 21 21 20 22 21 19 17 18 19 18 18 21 22 21 21 20 19 19 19 17 16 16 16 16 15 15 15 14 12 11 9
24 21 17 15 14 15 14 16 19 22 21 24 26 22 25 23 22 21 21 25 23 23 20 19 22 24 24 23 21 20 21 20 20 18 18 17 17 17 17 17 15 14 11
25 25 20 20 16 9 7 8 14 16 18 22 23 25 27 29 27 25 26 23 23 25 25 22 22 22 25 26 24 22 21 21 20 20 19 18 17 17 18 19 18 17 16
26 26 24 18 13 11 11 9 14 17 17 16 17 20 21 25 26 29 31 31 27 27 29 27 23 23 24 25 28 27 24 23 23 22 20 19 18 18 18 19 20 19 18
25 23 22 20 16 13 18 15 12 18 19 17 17 18 23 25 28 25 27 30 31 33 31 33 32 30 28 28 26 30 31 28 26 25 24 22 20 19 18 18 19 20 19
26 25 24 20 15 16 19 17 14 18 17 13 7 4 2 7 26 31 32 35 35 32 31 27 30 32 30 31 29 29 31 33 30 28 27 24 23 20 18 18 20 20 19
31 31 25 24 20 19 18 18 15 19 16 14 20 10 2 4 4 18 30 33 34 34 36 39 32 30 31 34 33 32 31 31 31 32 30 26 25 23 21 19 20 22 19
40 26 25 15 13 13 15 19 16 19 18 18 16 25 27 10 3 3 10 20 31 32 33 34 38 44 43 41 41 41 38 35 33 29 33 29 30 26 23 19 21 22 22
9 25 14 12 8 8 11 12 16 19 23 23 23 20 20 20 19 8 9 9 17 19 30 29 35 35 37 41 42 42 40 39 34 31 32 32 30 26 23 21 23 25 26
14 15 10 6 3 1 5 10 12 14 16 20 22 24 19 7 7 10 8 12 13 27 28 29 31 32 31 36 42 41 40 37 34 30 32 33 31 29 24 23 23 25 26
18 20 15 10 6 3 3 6 5 6 10 10 11 17 21 22 21 20 19 15 9 24 24 29 30 37 37 38 33 35 38 34 29 33 36 34 31 29 28 27 23 21 23
17 16 15 14 13 11 9 7 6 7 9 9 10 9 9 8 13 23 27 21 10 11 22 24 28 30 34 34 35 36 35 30 31 32 36 35 34 33 31 27 22 24 28
14 17 18 17 17 15 14 12 11 12 12 14 12 14 16 12 13 17 17 18 12 10 9 14 20 31 35 36 38 36 31 34 33 33 36 37 37 39 33 29 27 30 27
17 18 17 18 17 15 14 13 14 13 14 13 14 15 17 18 18 17 18 19 17 15 5 17 22 29 32 38 39 37 31 31 33 33 36 34 37 35 33 31 32 31 29
18 19 17 16 15 14 14 14 14 12 12 13 14 16 16 15 17 14 18 18 15 16 8 10 19 23 21 24 28 32 33 31 32 33 32 32 31 31 33 35 32 34 35
17 17 16 16 15 13 14 12 14 13 14 16 15 15 15 18 13 18 19 17 15 13 15 13 21 22 24 28 34 34 34 34 31 31 33 33 31 30 34 37 37 38 36
16 16 15 14 15 16 15 13 15 16 17 15 15 15 15 16 17 22 17 18 16 17 14 14 16 20 22 23 18 21 24 34 36 32 35 36 37 40 40 40 39 38 38
13 14 15 14 15 15 12 14 17 16 15 15 14 14 14 15 18 19 14 17 15 16 15 14 14 16 17 20 19 17 17 23 28 30 33 34 37 38 37 38 38 39 40
16 16 17 16 16 14 11 15 16 14 16 15 15 13 14 17 14 14 17 18 18 16 15 14 13 14 14 17 16 18 16 21 23 25 27 30 30 31 33 33 33 40 44
17 17 17 17 17 16 14 14 15 18 18 18 18 18 17 15 14 14 13 14 16 18 16 14 13 14 15 17 19 21 20 10 3 14 16 26 23 25 27 28 36 42 45
17 17 17 17 18 18 15 15 15 17 19 18 20 20 20 16 13 13 14 16 16 16 14 16 16 16 20 20 22 22 21 19 18 20 18 16 20 25 29 32 35 32 32
15 16 18 18 19 19 16 15 15 16 18 20 21 22 21 19 15 15 17 20 19 17 17 18 19 22 22 23 24 23 24 26 26 25 23 7 18 24 29 32 34 35 34
16 17 17 19 18 18 17 15 14 14 18 20 20 18 17 17 12 13 16 20 22 25 25 19 19 21 23 24 24 26 21 18 14 14 19 18 11 20 19 28 33 37 37
16 17 19 18 18 18 14 13 13 14 15 17 17 18 18 17 15 14 17 20 19 24 24 25 29 32 25 24 22 22 24 20 16 13 19 17 13 14 4 20 31 33 38

GFSMA_925_spd_117.txt.gz
Wind_Speed
19 25 21 20 19 22 23 23 25 27 28 27 25 26 24 23 18 23 18 23 20 18 16 19 18 17 17 16 16 15 15 14 14 14 13 12 11 11 10 9 8 7 6
29 23 26 23 22 19 23 23 25 28 29 28 27 25 29 25 25 21 21 20 21 20 18 19 21 20 19 19 19 18 18 17 17 16 16 15 14 14 13 12 11 10 9
30 28 25 26 25 18 20 22 22 25 28 28 29 27 28 28 24 23 27 25 23 23 21 20 22 24 24 22 21 21 21 19 18 18 18 17 17 16 16 15 15 13 12
31 31 30 29 27 23 21 22 23 24 25 25 28 29 31 33 30 24 19 23 23 24 24 23 21 24 26 25 24 24 24 23 22 22 20 20 20 20 19 19 18 17 15
35 32 28 28 27 25 22 21 17 19 17 16 22 26 24 20 25 29 21 19 21 25 26 26 26 25 26 29 28 26 26 26 26 25 24 22 21 21 20 19 19 19 17
34 34 30 29 27 24 22 20 17 13 12 10 14 19 21 22 28 30 31 31 27 27 24 28 29 29 28 27 30 32 29 29 29 28 26 25 23 22 20 19 19 20 20
31 37 35 34 28 26 24 19 15 15 14 15 14 16 22 22 22 25 28 30 33 35 33 32 31 34 33 32 30 31 34 34 33 31 30 28 25 23 22 20 19 20 21
31 32 32 33 33 28 25 22 18 15 13 14 8 5 0 7 20 28 31 33 37 35 34 35 37 35 37 39 36 34 35 34 36 35 34 32 29 26 24 22 20 20 21
32 36 36 35 35 31 26 24 21 18 17 15 19 8 2 5 3 13 27 34 34 34 36 37 36 34 33 37 41 36 34 34 33 36 36 34 34 30 27 25 23 21 23
16 22 28 37 36 28 20 20 19 16 16 13 14 21 25 4 3 2 11 21 29 28 32 33 34 36 40 36 36 39 38 36 35 35 35 36 37 34 30 26 26 22 24
12 11 15 26 28 19 19 10 12 12 8 9 12 12 15 18 23 8 5 7 15 20 21 25 29 32 32 34 39 43 43 43 48 43 40 37 39 35 32 31 28 25 26
20 21 12 14 11 14 13 6 3 2 1 2 5 8 11 8 4 6 6 8 11 21 26 28 29 29 32 33 35 37 41 43 44 43 43 39 38 38 37 33 29 28 28
20 24 23 24 2 18 15 10 8 7 7 6 7 6 5 7 9 12 14 12 8 18 18 26 29 30 33 34 38 39 40 38 39 39 41 38 37 38 39 35 34 32 33
23 26 27 22 21 16 18 16 14 12 10 9 9 10 9 9 11 12 10 8 4 6 17 24 24 24 27 34 36 39 42 43 39 39 43 39 39 38 38 36 36 36 34
24 22 15 14 16 21 18 18 17 16 14 13 13 12 12 11 13 14 12 15 7 3 3 5 7 12 19 29 34 36 41 42 42 40 36 35 39 40 36 37 38 38 35
22 18 17 18 19 17 16 16 16 15 14 14 13 13 13 13 14 12 16 14 8 7 4 10 13 24 24 22 23 36 42 42 41 45 45 39 40 36 34 39 42 39 33
18 17 17 16 17 17 16 16 14 15 15 15 15 11 10 11 10 12 15 14 14 13 5 14 18 24 24 28 28 22 29 39 41 42 43 42 45 40 37 38 42 39 35
16 17 17 18 18 18 15 16 17 16 15 14 13 13 13 9 9 13 12 10 10 13 13 13 17 18 23 23 26 24 18 28 34 33 36 35 34 34 35 35 32 34 33
14 14 15 15 16 15 12 14 15 14 14 13 12 14 12 12 15 16 13 13 10 13 13 14 15 19 21 21 25 21 20 20 17 19 23 31 36 32 32 30 32 31 35
11 13 12 11 12 12 9 16 17 16 15 12 13 12 13 14 13 12 12 12 10 11 12 14 14 15 18 21 19 20 22 21 26 24 19 19 19 26 28 31 36 40 42
14 14 14 14 14 12 12 13 13 13 14 13 11 12 13 14 9 10 10 10 14 16 14 12 12 12 13 16 17 19 20 25 27 18 19 18 17 18 22 26 32 36 38
12 12 12 12 12 12 10 9 10 12 14 15 16 15 14 12 8 7 5 8 11 13 14 12 10 10 12 16 18 20 19 18 5 10 24 23 22 25 23 22 24 27 31
13 14 14 14 16 16 13 13 12 13 14 16 17 19 20 18 15 9 6 10 13 10 11 13 14 15 17 20 20 19 18 18 20 24 26 25 24 26 28 26 26 25 24
13 14 15 16 16 16 14 15 14 15 16 17 17 18 19 19 17 11 11 14 16 18 16 14 15 18 19 23 23 22 23 24 23 24 23 15 21 24 28 28 25 26 25
13 14 15 16 17 16 16 12 13 14 16 17 17 16 17 20 18 16 14 14 18 22 21 17 15 16 19 19 19 20 20 17 13 18 22 20 16 23 25 29 26 24 25
14 14 14 14 13 14 14 13 14 16 17 18 21 18 16 17 17 16 17 17 18 22 23 20 17 24 21 22 18 16 19 14 15 10 7 12 15 13 7 14 23 26 28

GFSMA_925_spd_120.txt.gz
Wind_Speed
27 26 25 30 28 28 28 30 29 29 29 31 31 29 28 27 27 27 27 26 25 28 25 22 21 20 20 19 19 18 17 16 16 15 15 14 13 13 12 11 10 9 8
30 33 34 32 32 31 30 30 31 30 30 32 33 33 32 30 29 27 26 30 26 31 29 24 22 22 21 20 20 20 20 19 18 18 18 17 17 16 15 14 13 12 11
30 31 34 36 32 28 29 29 30 30 29 32 34 34 34 32 33 30 30 27 29 31 31 27 24 24 24 22 22 22 22 22 21 21 20 20 19 18 18 17 16 15 14
28 32 32 35 32 32 31 30 31 29 27 29 32 34 33 30 31 33 30 31 32 31 33 31 28 25 25 26 25 24 25 24 24 23 22 22 21 21 20 20 19 17 17
28 29 32 34 35 37 36 33 31 30 27 25 27 28 26 30 26 23 21 15 16 29 32 34 31 29 28 25 27 27 28 28 29 27 26 26 25 24 24 23 22 20 19
23 26 30 32 34 36 36 35 33 31 29 27 18 17 17 18 16 20 29 29 33 26 24 28 32 32 31 29 28 28 30 31 30 30 30 29 28 28 26 25 24 22 22
28 28 29 31 32 34 36 35 34 28 24 19 13 15 19 19 23 25 22 27 33 34 32 29 28 29 33 34 34 30 30 32 34 33 32 32 30 29 29 27 26 24 23
26 26 26 27 27 28 34 33 27 20 22 22 10 4 2 5 18 27 28 26 27 30 36 41 35 35 36 37 36 35 34 35 33 35 35 35 33 32 31 30 29 26 24
19 19 22 22 23 27 28 32 29 26 17 23 21 7 2 4 1 11 23 20 24 33 34 33 34 35 36 36 35 36 37 40 37 37 37 36 36 35 33 32 31 28 25
18 16 12 11 14 15 25 31 33 29 23 19 14 24 15 2 2 3 7 15 24 28 26 23 27 30 28 32 36 38 38 36 40 41 39 36 36 36 35 34 33 33 30
19 22 16 13 11 5 8 19 31 33 30 22 17 6 5 5 7 5 4 4 12 16 18 17 23 27 27 28 30 33 35 39 38 40 43 39 35 35 37 35 36 35 32
22 24 24 14 17 16 18 10 7 9 13 12 9 6 1 1 2 5 6 6 8 14 24 24 30 30 32 31 32 33 34 34 36 41 44 42 40 40 40 38 39 39 37
24 24 25 24 24 21 19 18 24 16 6 13 8 8 8 8 7 3 3 3 2 5 12 21 26 25 29 30 30 33 34 35 40 39 37 36 39 41 42 40 41 42 41
18 17 20 23 23 24 23 21 18 14 18 16 13 13 9 9 9 11 6 4 2 2 7 13 11 6 4 11 15 21 29 36 37 36 38 42 39 37 40 39 41 43 44
13 15 16 18 20 20 20 19 17 12 13 16 15 13 12 12 10 8 8 7 2 1 2 3 7 13 26 23 20 22 23 28 34 37 38 37 41 39 40 40 40 42 45
14 16 16 18 18 15 15 13 12 12 15 14 11 9 10 12 9 11 8 5 3 2 3 7 15 23 27 29 27 25 25 24 25 33 34 35 36 41 40 36 35 36 39
14 14 14 15 17 15 14 13 10 12 12 11 12 12 13 10 8 8 6 4 6 3 3 7 14 21 23 27 27 27 26 23 22 21 25 32 35 40 44 47 39 37 36
15 17 17 15 14 13 13 14 14 14 13 12 12 13 12 9 10 9 6 4 5 6 5 9 12 14 22 23 23 26 24 22 20 20 19 19 20 35 40 41 44 45 39
14 14 14 15 16 14 15 15 16 15 14 13 11 10 10 10 9 8 7 9 7 6 9 8 11 13 17 17 24 18 24 23 23 23 22 18 16 15 17 27 36 36 31
12 12 12 11 12 9 10 13 14 15 14 13 12 10 11 12 10 9 8 7 8 12 13 12 13 13 13 15 18 20 25 25 29 26 15 15 12 15 13 14 19 19 20
11 11 10 10 10 10 10 10 10 10 12 13 13 12 11 9 6 7 4 6 10 11 12 9 10 11 12 16 16 20 20 24 28 10 21 22 24 24 20 18 17 14 18
10 10 11 11 12 11 9 10 10 12 12 13 12 13 13 11 10 10 5 5 8 10 12 11 10 12 14 15 16 17 17 19 5 11 31 32 28 30 26 27 23 19 19
9 10 11 11 11 11 9 10 8 8 11 12 12 13 13 13 13 13 8 7 8 8 9 11 14 16 17 20 22 19 18 17 17 27 25 22 26 27 24 27 27 25 24
9 10 11 11 12 12 12 12 11 12 12 13 14 15 15 15 15 13 14 13 11 12 15 14 14 17 17 19 20 20 21 22 20 20 20 11 22 27 29 29 29 25 24
9 9 10 10 9 10 10 11 12 14 15 16 16 16 14 16 17 15 15 15 16 18 17 16 15 15 14 16 15 18 19 15 12 17 25 16 11 22 25 23 19 20 22
9 9 7 7 7 9 9 11 12 15 17 18 16 12 14 15 18 18 18 20 22 25 22 19 19 19 18 19 16 14 15 13 14 9 7 19 21 17 8 13 15 23 22

GFSMA_925_spd_123.txt.gz
Wind_Speed
25 25 28 30 31 30 32 31 33 33 33 32 32 33 34 33 31 29 29 28 29 26 26 26 23 22 22 21 20 19 18 18 17 17 16 16 15 14 13 12 11 10 9
24 27 29 30 31 33 38 35 38 36 36 36 34 35 36 36 35 31 31 30 30 31 29 31 29 25 23 23 22 22 21 20 20 19 19 18 17 17 16 15 14 13 12
24 26 29 31 31 31 33 36 36 36 34 35 36 36 36 37 37 35 31 30 30 31 33 32 33 31 26 24 24 23 24 24 22 22 21 21 20 20 19 18 17 17 16
23 26 29 30 29 31 31 30 34 30 30 30 31 34 34 35 37 37 31 29 32 31 32 34 36 33 30 28 25 25 25 26 24 24 24 23 23 22 22 21 20 19 19
22 22 24 26 27 28 29 27 27 28 28 30 32 30 28 29 31 29 24 25 23 26 28 31 37 37 33 30 29 27 28 29 29 27 27 25 25 24 24 24 23 23 22
22 24 27 29 27 27 23 24 27 29 29 32 31 28 27 26 28 25 23 23 31 26 22 22 23 30 34 34 31 30 29 31 31 31 30 30 29 28 28 27 26 25 24
21 22 25 28 27 24 22 23 25 26 25 29 19 17 22 24 24 25 24 23 28 36 30 32 29 24 26 33 34 36 34 32 32 33 33 32 31 31 30 29 28 27 26
25 24 25 28 26 27 23 22 23 20 22 25 17 3 3 7 21 28 29 28 26 25 27 25 31 38 30 33 35 38 38 38 34 33 34 33 35 34 33 31 29 29 29
21 23 23 23 24 23 22 20 20 20 20 21 27 10 2 4 3 12 25 26 30 30 28 23 28 32 35 37 36 37 37 37 37 40 38 34 35 35 35 34 31 31 31
18 18 23 19 21 18 13 18 16 21 20 16 13 27 14 3 3 1 7 19 26 25 26 26 28 30 23 21 22 26 30 33 32 34 36 36 38 36 36 35 34 33 33
21 23 21 20 21 22 16 7 4 10 14 22 17 12 17 19 16 2 3 3 10 15 20 18 16 15 15 17 22 22 25 28 32 31 33 34 34 37 35 36 37 34 35
21 22 24 24 24 21 19 19 13 2 12 13 17 19 24 10 3 3 3 3 4 9 16 17 18 18 18 19 20 23 26 29 32 31 30 30 33 35 36 38 38 38 37
27 24 21 20 21 23 22 18 16 21 15 11 8 13 23 20 3 3 1 1 1 2 4 12 14 10 8 8 8 14 18 21 25 27 29 30 33 34 35 39 39 40 41
17 17 17 18 18 17 19 19 20 18 16 16 16 16 10 13 16 13 2 1 1 2 3 1 10 8 9 11 12 14 16 16 21 26 30 31 31 32 34 35 36 40 42
16 16 16 16 17 18 16 15 17 16 15 17 15 18 10 6 6 8 8 4 2 1 1 1 1 6 16 19 19 17 17 19 18 22 25 27 30 31 31 33 37 39 41
12 12 13 14 15 15 16 15 16 14 13 16 14 13 2 3 8 10 8 7 7 3 2 3 4 19 21 19 19 20 20 19 19 19 19 20 21 25 27 29 29 34 37
14 14 13 13 13 12 15 16 15 15 14 13 13 9 8 9 10 10 6 6 7 6 4 6 12 19 21 26 23 21 17 17 18 22 21 20 20 20 22 27 28 28 28
13 14 12 11 10 8 12 14 15 15 15 15 14 11 12 12 10 9 6 8 7 4 5 5 12 17 18 20 20 21 21 20 21 22 23 18 18 16 18 20 26 32 33
13 13 13 13 11 8 10 12 13 12 10 10 10 10 10 11 10 10 9 7 8 8 9 8 9 15 17 19 25 22 24 23 23 24 19 17 17 16 14 13 15 16 19
10 10 11 12 13 11 10 11 11 12 12 11 10 9 9 9 8 8 5 7 8 10 10 11 10 12 13 19 19 21 25 25 30 24 11 19 21 24 22 19 15 14 13
9 9 10 9 11 9 11 12 11 11 11 11 10 10 9 8 6 7 7 5 6 8 10 12 11 11 12 16 16 19 18 23 22 8 23 31 30 29 26 25 25 19 18
7 8 8 9 8 7 7 8 8 9 10 11 12 12 10 9 10 10 8 6 7 8 8 7 8 9 12 16 16 16 17 17 6 10 29 27 22 27 26 24 22 23 21
6 7 7 9 9 8 8 8 7 7 7 9 10 12 13 12 12 13 12 10 11 10 9 11 14 15 15 17 18 18 17 14 16 26 23 22 22 23 22 26 25 23 25
7 8 8 8 8 7 7 8 7 7 8 9 11 12 13 13 13 14 15 16 14 14 15 16 16 18 17 17 15 16 18 18 18 21 18 9 23 19 27 34 24 16 15
7 8 9 9 9 9 8 9 9 11 12 12 11 9 10 13 15 16 18 20 19 18 19 19 18 17 16 14 15 15 18 13 9 15 21 9 17 27 25 23 12 17 20
8 9 8 8 7 9 9 10 11 13 13 13 11 12 14 14 15 16 16 18 19 22 22 23 21 17 18 18 16 13 13 9 9 6 11 16 18 15 9 14 17 33 28

GFSMA_925_spd_126.txt.gz
Wind_Speed
21 21 22 23 24 25 26 29 31 32 33 34 33 34 36 36 35 35 33 31 30 29 28 25 26 25 22 21 21 20 19 18 18 18 17 16 16 15 14 13 12 11 10
19 20 21 23 25 25 25 27 27 29 33 34 37 36 37 37 36 37 36 33 29 30 30 28 27 26 24 23 23 22 22 21 20 20 19 19 18 18 17 16 15 14 13
14 16 19 21 22 24 25 27 29 27 28 29 30 36 36 38 38 38 38 36 31 30 30 31 31 31 30 26 24 24 24 24 23 22 22 21 21 20 19 19 18 17 16
14 16 18 20 21 22 22 19 20 22 26 26 25 28 31 33 35 37 38 38 35 33 32 31 31 34 32 32 27 25 26 25 26 25 24 25 24 22 22 21 21 20 19
14 17 19 20 21 23 25 23 20 22 26 28 25 27 29 28 30 31 33 35 36 33 34 33 30 27 30 34 32 28 27 28 28 29 27 26 26 26 24 23 23 23 22
16 19 17 19 20 22 24 26 26 21 22 25 27 26 30 30 32 32 31 31 29 30 32 36 38 34 33 32 31 30 29 29 28 29 30 29 29 28 27 26 25 25 25
21 22 23 22 23 24 24 27 29 25 22 23 20 20 23 25 26 28 28 30 29 29 30 31 34 34 37 34 35 35 33 27 28 30 31 31 30 31 30 30 28 28 28
18 19 22 23 21 21 24 26 26 24 23 21 13 8 4 7 21 25 25 27 30 29 29 32 33 31 31 35 38 36 34 33 32 31 33 32 32 32 33 32 31 30 29
19 19 19 20 20 20 20 23 22 23 20 18 21 10 3 4 1 11 24 26 24 30 30 26 27 31 30 31 34 32 33 36 34 33 30 33 36 35 34 32 33 33 31
19 21 22 22 23 24 26 22 22 20 22 20 14 18 24 11 3 3 8 16 22 23 24 28 28 27 27 24 25 27 23 25 25 29 31 34 31 35 36 35 34 33 33
21 22 22 23 24 25 27 24 24 18 16 14 17 10 6 7 12 5 6 2 11 20 24 24 24 23 24 18 12 12 11 13 16 19 21 23 25 26 31 33 34 35 35
19 21 22 24 22 22 23 26 24 22 18 14 10 8 5 4 2 5 5 11 13 12 13 16 15 13 12 10 10 9 11 13 14 17 19 19 20 21 22 25 28 34 36
22 23 23 23 22 21 19 20 22 23 21 20 20 14 11 10 5 3 5 11 5 1 6 8 12 12 8 7 2 2 4 7 13 15 15 15 18 23 26 24 23 28 34
16 17 18 19 19 19 19 18 17 20 20 20 19 17 15 16 17 15 9 6 7 3 6 4 11 14 12 10 9 7 8 10 9 10 13 18 20 22 25 26 27 28 29
14 15 15 16 16 16 17 16 16 15 15 17 18 16 15 16 17 17 16 16 5 3 2 10 4 14 17 16 16 15 15 12 13 13 12 14 15 18 21 24 26 27 29
13 15 15 15 14 13 15 15 15 14 13 14 13 13 14 15 16 14 11 14 11 8 3 11 8 18 21 18 18 18 15 14 13 15 17 15 16 17 17 19 22 25 28
13 14 14 13 13 12 15 16 15 14 13 12 12 13 14 14 14 13 13 10 7 9 4 7 16 21 20 23 21 20 18 16 18 17 18 16 13 13 15 14 18 21 24
11 11 11 11 10 10 12 14 15 15 15 15 15 13 15 15 13 13 11 8 9 9 6 5 13 18 18 17 21 20 20 19 20 19 17 12 13 16 15 15 14 14 15
8 8 8 9 9 7 8 9 11 11 10 10 10 11 13 13 13 12 10 10 11 10 9 7 8 13 17 18 22 22 23 22 23 20 10 13 19 21 19 19 19 15 15
8 7 7 8 8 7 7 9 8 9 9 9 9 9 9 8 8 9 7 8 7 8 8 8 9 13 13 19 18 21 24 26 28 13 16 25 22 21 20 19 17 18 18
6 7 7 7 7 6 6 9 9 8 8 8 8 9 7 7 6 7 8 7 6 7 8 8 9 6 13 18 17 18 18 22 21 9 25 31 30 26 25 22 18 19 22
5 5 6 7 8 7 6 8 9 9 9 9 10 9 9 9 10 11 11 9 8 9 9 5 5 7 11 14 12 14 16 12 4 7 23 28 24 26 24 22 24 25 23
6 5 5 6 7 6 7 7 6 7 8 10 11 12 12 10 9 10 10 11 10 11 12 13 14 16 14 16 15 15 14 13 12 24 20 14 19 21 27 33 27 18 16
7 7 7 7 6 5 5 6 6 9 10 11 12 12 11 12 13 14 16 16 15 14 12 14 17 19 19 17 15 13 13 14 17 21 19 3 18 20 33 30 17 10 18
8 7 7 7 8 7 7 7 8 11 12 13 12 11 12 16 16 15 16 18 18 18 16 16 15 15 16 16 14 14 15 10 5 11 14 5 13 22 22 23 15 14 26
9 8 8 8 8 9 8 9 9 10 12 13 12 12 15 16 17 16 17 17 18 21 21 19 16 18 17 16 15 14 12 7 6 6 8 9 19 13 9 13 19 31 33